GFSSW_500_spd_000.txt.gz
Wind_Speed
60 60 65 70 81 84 82 82 81 78 75 72 70 66 63 60 57 54 54 46 45 43 43 39 36 36 34 30 30 25 18 27 22 22 23 29 22 22 23 27 23 24 21 16 17
56 58 59 60 58 66 83 88 87 86 82 78 75 72 69 66 64 58 49 50 49 45 45 43 38 39 37 33 31 26 21 29 27 30 28 19 18 24 21 21 20 22 22 17 17
41 49 51 53 58 61 60 78 92 91 89 86 82 78 74 72 70 58 55 53 52 49 48 47 42 41 38 34 32 28 23 31 29 27 23 22 20 21 19 20 22 25 25 21 20
26 19 28 35 38 39 46 55 76 92 95 92 89 84 81 79 72 62 58 58 56 53 48 49 47 43 38 35 35 31 25 30 31 25 24 25 23 20 20 20 23 25 29 25 24
23 13 11 16 21 29 32 37 47 64 83 94 94 90 87 82 75 66 63 61 59 56 52 50 46 43 38 37 38 32 28 28 30 30 25 25 23 25 23 24 30 27 32 28 25
18 16 15 12 14 21 25 28 32 39 52 65 84 95 92 80 77 74 68 64 61 57 53 52 45 43 40 39 38 34 30 29 26 27 31 31 30 30 24 26 32 32 32 33 26
16 10 8 11 8 12 19 21 23 26 28 37 56 73 91 84 79 77 74 65 62 60 56 52 47 47 42 40 40 35 32 31 29 27 30 29 18 17 24 23 29 32 32 32 28
15 8 6 2 9 17 20 23 23 25 35 35 42 55 67 60 79 77 73 68 66 63 57 55 51 49 44 40 38 35 34 31 29 31 31 29 27 24 23 23 27 28 28 30 24
24 18 10 2 8 14 13 17 17 19 28 38 37 46 52 61 60 66 70 69 68 61 61 54 54 48 46 39 39 36 32 31 29 30 32 26 26 31 23 24 24 22 23 22 21
31 25 31 21 13 15 26 26 21 19 28 36 40 52 43 47 39 51 59 68 63 61 57 57 50 47 43 40 37 36 33 30 29 30 28 25 22 26 26 22 24 25 23 20 18
33 31 32 22 17 16 16 25 28 27 35 38 40 39 42 42 49 58 65 66 65 57 57 53 48 47 39 36 42 36 33 28 30 30 25 26 25 27 24 23 24 23 21 18 20
28 27 24 24 34 34 36 38 31 28 35 31 44 39 40 48 47 65 67 71 60 55 52 51 48 45 43 43 40 34 28 27 30 29 24 25 24 25 24 20 22 21 22 23 25
32 30 30 30 41 39 30 25 29 36 37 31 35 37 42 40 44 66 57 54 52 53 48 42 41 48 43 37 39 35 30 29 30 29 25 25 25 25 24 22 21 22 24 27 30
32 30 31 34 32 39 32 30 35 35 37 31 37 44 37 48 48 65 59 56 54 44 42 43 46 40 40 39 37 34 30 29 29 27 26 25 27 25 25 26 25 28 30 31 30
22 23 27 26 26 31 29 34 30 31 31 33 34 37 38 44 51 61 53 54 49 47 50 46 41 43 38 34 33 26 28 31 29 25 23 24 25 25 25 26 26 28 28 26 25
18 26 33 35 26 26 24 32 29 27 26 26 39 40 47 47 56 60 59 52 56 51 43 41 42 40 31 28 25 26 27 28 25 22 25 23 24 25 25 26 22 20 19 19 20
14 16 22 30 25 26 28 31 26 22 18 37 31 36 38 44 47 49 49 49 45 45 42 37 32 27 26 24 23 23 24 23 21 20 21 21 23 26 23 21 20 18 20 21 23
9 20 19 20 25 20 17 17 21 27 35 27 33 32 32 40 46 45 45 46 39 37 33 29 30 27 23 20 18 20 22 23 23 22 21 19 19 22 22 23 21 22 23 26 28
13 14 12 17 17 20 21 19 19 24 20 30 33 30 40 30 36 40 41 37 34 32 28 28 25 23 21 20 19 21 19 18 18 18 17 18 19 23 21 23 27 29 30 32 35
15 16 13 11 8 12 16 16 14 19 27 26 26 24 27 28 35 37 35 31 28 25 21 20 19 21 20 20 19 18 17 16 17 17 18 18 19 25 25 27 30 32 34 33 36
13 11 11 10 14 16 19 14 10 13 20 23 28 23 24 28 30 35 30 29 25 22 21 20 18 19 19 19 18 17 16 16 16 18 20 21 19 25 29 30 31 34 34 35 35
8 8 7 13 15 16 12 11 12 10 16 20 21 22 22 25 23 28 31 29 24 21 19 18 18 17 17 19 19 18 17 18 20 19 23 25 20 25 28 29 33 35 35 35 35
7 1 7 16 23 16 16 12 10 16 17 17 20 19 17 16 18 24 23 24 24 21 21 18 17 18 20 20 18 17 17 18 21 23 24 27 19 23 26 28 33 37 37 36 39
11 5 9 19 13 15 13 11 12 12 19 19 19 15 13 11 12 13 22 23 18 18 17 18 20 20 19 17 18 19 19 20 21 19 24 22 23 24 26 33 35 38 40 40 38
16 9 9 15 16 14 13 15 14 10 12 14 12 7 7 7 8 10 12 14 16 16 15 16 17 21 21 22 22 20 16 18 21 21 30 23 31 27 32 32 33 36 39 43 46
20 16 12 13 15 16 15 15 14 11 13 11 12 10 9 9 10 11 11 11 11 10 11 11 14 15 15 17 19 19 18 23 25 26 30 32 27 33 34 33 36 41 46 50 54
22 19 15 15 20 16 18 18 16 13 11 10 9 7 6 5 5 6 6 8 10 12 13 15 16 17 17 21 23 21 21 24 26 26 28 28 32 34 37 41 44 49 54 59 61

GFSSW_500_spd_003.txt.gz
Wind_Speed
46 50 53 57 59 63 68 76 78 73 68 67 69 68 65 63 59 57 53 46 42 40 36 34 33 33 31 28 27 24 23 19 22 30 37 37 32 22 21 25 28 25 25 17 14
44 46 47 52 56 65 68 69 75 82 77 69 69 70 69 67 64 61 51 47 46 44 38 36 34 35 34 31 29 27 24 21 29 32 35 32 23 16 23 28 26 21 22 17 14
45 44 42 46 51 58 65 69 70 76 80 75 71 71 71 70 68 59 53 46 47 46 40 41 40 37 35 32 29 29 25 24 32 33 32 24 18 18 18 19 21 21 21 19 18
35 33 38 35 31 37 51 62 68 69 77 81 76 72 72 72 68 58 54 47 47 46 44 41 41 37 34 30 31 30 27 26 34 35 29 24 23 19 17 19 19 21 22 20 22
24 29 24 25 24 25 33 42 56 65 68 79 82 78 76 71 65 61 54 50 49 47 45 42 42 36 36 33 32 30 29 28 33 34 28 28 24 23 17 18 22 23 26 25 23
20 20 16 16 22 21 24 30 42 51 67 75 84 84 77 68 67 59 55 57 53 48 45 44 41 34 38 39 31 31 31 28 30 32 28 27 23 23 18 22 24 27 30 30 29
30 15 15 13 13 13 12 19 30 40 53 67 81 87 78 68 71 63 59 56 53 47 45 40 42 41 39 39 31 34 31 29 28 27 31 29 24 23 27 26 26 32 32 34 34
34 23 13 13 9 3 8 11 18 24 36 51 68 87 80 81 78 69 63 61 55 51 46 41 43 44 40 38 31 33 29 31 33 29 26 31 23 21 23 24 22 27 33 32 33
29 27 17 22 4 4 8 12 15 16 29 33 57 88 88 83 79 74 67 62 58 51 42 43 46 47 40 41 31 32 32 35 35 31 29 26 23 31 28 23 22 25 31 28 24
32 27 19 16 15 2 5 7 12 15 25 32 42 67 81 79 80 74 69 67 62 58 55 49 49 48 45 43 29 35 34 36 35 31 27 25 24 32 30 23 21 27 21 19 18
29 27 21 15 8 9 8 4 13 23 16 24 37 37 50 67 70 68 65 65 65 64 62 54 54 51 42 35 39 36 35 36 35 29 25 25 24 27 24 21 21 22 18 17 18
25 21 20 22 23 24 22 17 18 24 23 29 44 59 44 42 52 60 59 59 68 67 65 59 55 46 36 39 41 37 36 35 31 27 26 24 21 23 25 23 16 15 18 18 19
18 26 25 31 36 38 31 34 33 35 31 43 47 47 45 37 36 44 54 60 60 63 63 60 48 44 42 41 38 35 34 31 26 25 26 24 22 24 23 20 15 15 16 18 22
21 21 29 33 33 34 34 28 28 26 36 33 34 49 42 41 40 39 51 52 49 52 49 45 45 47 42 39 34 35 31 30 27 26 24 23 24 24 22 18 17 18 19 24 28
27 25 23 30 37 38 33 28 21 18 19 24 36 37 61 47 41 58 50 53 51 51 57 56 53 47 40 34 37 32 28 30 29 28 25 24 25 24 22 18 18 20 24 28 31
26 21 28 34 22 25 23 19 19 20 21 35 37 33 29 46 44 42 55 47 57 49 51 50 44 39 36 34 32 30 30 30 31 32 29 24 27 23 21 18 21 25 27 27 26
15 22 22 26 23 25 20 21 21 19 27 38 25 27 30 39 47 49 55 57 58 55 49 44 40 36 34 32 30 30 31 30 32 32 25 27 29 24 22 19 22 23 22 22 24
12 12 17 17 25 22 23 16 14 19 26 28 23 33 36 39 48 43 45 49 44 39 41 39 40 36 35 30 29 31 29 31 31 27 25 29 27 22 21 20 20 21 20 20 24
5 5 8 14 19 24 26 23 26 16 25 31 25 36 44 43 54 45 44 44 43 44 38 38 34 33 31 31 30 28 25 26 23 21 19 21 23 20 19 17 19 19 21 23 27
5 5 6 7 15 20 17 25 27 24 26 22 32 44 46 53 52 47 47 43 41 38 34 32 31 33 32 30 27 24 23 19 16 19 19 17 18 18 16 19 23 25 24 25 27
9 5 6 7 11 15 18 16 18 24 27 23 33 33 32 34 36 49 40 37 32 31 31 28 27 29 28 25 24 21 17 16 17 18 16 14 17 17 21 23 24 25 26 25 25
9 8 2 6 9 9 13 13 14 20 20 23 28 21 27 33 31 36 34 31 31 31 28 28 26 25 22 25 22 20 19 17 18 16 15 14 17 21 22 25 28 28 26 25 27
2 7 4 7 9 9 11 13 12 12 20 23 23 22 19 26 31 28 35 27 27 28 24 24 22 23 24 20 18 17 16 16 15 14 16 15 15 18 23 27 29 28 31 32 34
2 3 5 12 10 14 11 10 10 13 18 17 16 20 21 19 25 32 31 29 30 28 23 22 20 16 13 12 15 15 14 14 16 14 18 12 17 18 23 27 30 32 34 34 35
7 1 7 16 13 8 7 8 10 14 20 21 18 18 17 16 17 18 20 23 26 23 22 21 18 15 14 15 12 11 12 16 14 16 19 15 16 18 27 29 30 32 35 38 40
11 7 9 13 15 13 13 10 10 11 14 15 13 13 12 13 12 14 15 18 19 19 18 17 17 16 17 16 12 11 12 15 16 17 19 20 15 27 24 27 30 33 37 42 46
17 12 7 12 17 16 15 15 14 13 12 15 14 13 14 14 12 13 12 10 8 6 6 8 9 11 13 13 12 9 14 15 16 15 16 19 21 24 28 31 36 40 44 48 51

GFSSW_500_spd_006.txt.gz
Wind_Speed
51 49 46 51 58 61 62 59 69 77 77 73 68 66 66 65 62 63 58 45 43 41 39 37 33 33 31 27 23 25 23 21 21 23 29 29 34 31 22 26 24 24 23 20 19
42 42 40 46 54 57 61 64 63 65 76 78 72 67 67 69 67 64 56 51 47 44 39 38 36 36 34 30 25 25 24 22 23 24 27 30 34 28 18 19 24 24 21 19 17
43 43 35 37 52 59 57 61 66 64 65 78 77 72 69 70 71 61 56 53 51 47 43 42 41 39 36 30 23 23 26 24 25 26 25 32 29 25 19 22 26 26 21 21 18
44 43 29 36 40 45 46 53 58 63 64 70 80 77 72 69 67 64 60 56 54 50 47 45 45 38 29 26 26 24 27 25 26 26 25 31 26 25 22 21 26 19 17 19 20
44 40 25 23 25 27 38 44 48 55 58 67 75 81 78 65 63 64 62 57 59 54 49 46 44 35 30 28 30 23 26 28 27 26 24 29 27 22 20 18 21 16 16 18 20
43 35 29 23 22 23 26 33 36 42 56 61 71 79 79 67 64 62 61 60 60 53 49 48 39 35 33 31 32 23 27 28 26 28 24 29 28 25 22 26 22 19 21 23 24
39 37 30 23 14 15 18 26 26 32 44 61 68 75 80 68 70 63 60 61 60 51 48 37 39 40 33 33 32 26 24 30 26 29 25 30 26 28 27 23 21 22 23 27 28
35 36 28 19 19 12 11 11 19 29 42 50 62 72 78 73 74 63 63 60 59 52 47 41 43 39 36 37 32 27 26 29 29 27 25 27 27 28 27 25 24 27 31 29 28
37 32 30 17 16 5 11 4 8 18 32 38 51 69 71 83 74 64 63 60 55 51 46 47 43 42 39 38 32 29 25 28 29 27 24 24 29 27 26 26 25 27 29 32 30
33 31 25 19 12 4 3 3 7 10 21 31 36 66 71 73 72 66 60 61 56 50 50 48 40 43 42 40 33 24 29 30 28 26 24 24 24 27 26 22 23 23 23 24 23
34 31 25 20 10 11 7 5 1 10 18 25 38 53 60 70 74 67 64 60 58 56 52 49 50 47 39 33 27 34 29 30 27 26 26 28 27 27 29 22 23 21 22 22 21
28 23 29 18 18 15 14 11 6 11 13 21 29 41 56 68 71 70 66 62 60 56 54 51 47 41 33 32 32 35 32 27 27 26 26 28 29 26 24 21 20 19 19 19 19
21 21 25 30 31 29 20 9 10 12 11 22 30 43 56 67 66 67 65 63 58 57 52 51 43 39 36 35 37 35 32 28 27 25 26 31 26 22 21 22 16 16 18 17 17
24 28 26 35 33 28 26 26 20 17 10 36 40 34 49 49 54 61 60 59 61 57 55 52 44 50 45 39 39 31 29 30 28 26 29 30 25 23 23 20 16 17 19 18 19
22 28 29 36 29 18 22 26 25 23 22 31 37 39 34 40 54 52 47 54 57 58 57 55 55 51 47 36 31 25 28 29 28 25 28 28 24 22 20 19 18 19 21 22 23
20 22 28 35 32 16 19 18 15 11 14 19 27 33 39 36 50 48 44 52 51 52 56 55 51 48 43 37 31 28 28 30 28 27 29 29 26 19 19 20 21 23 25 26 27
12 21 23 30 35 20 13 14 16 23 24 22 32 38 39 39 52 50 53 43 47 55 52 53 47 51 46 36 33 30 32 33 31 30 29 30 29 23 23 23 24 27 28 28 27
11 12 22 24 33 13 11 11 23 32 30 29 29 27 44 56 47 49 53 47 43 42 43 45 50 43 40 38 31 30 33 32 29 29 30 29 30 25 24 24 27 28 29 26 25
9 8 14 18 26 15 17 13 19 27 22 24 33 31 36 43 52 51 44 41 44 41 43 42 38 41 35 34 34 34 32 30 29 29 29 29 28 24 22 24 25 23 23 23 24
5 10 13 14 19 17 18 17 22 19 18 24 30 40 41 33 43 45 43 42 45 37 39 37 34 35 35 36 36 32 30 29 28 28 28 27 23 19 18 19 19 19 20 22 23
10 7 8 8 16 17 16 14 12 14 18 18 30 34 29 43 42 51 48 43 47 39 39 36 36 36 36 36 32 30 28 26 26 25 20 19 15 15 16 18 20 20 22 23 25
10 5 6 7 11 18 11 13 15 15 17 25 30 32 41 42 39 43 41 45 38 36 41 38 35 34 32 31 31 28 27 26 22 18 15 13 14 18 20 23 23 23 22 22 23
5 5 6 6 8 16 16 14 16 16 23 22 22 32 38 36 33 35 35 37 33 31 32 32 32 33 34 32 29 26 24 21 20 18 15 15 16 20 22 23 23 23 23 26 31
3 4 10 9 11 15 12 12 11 20 18 19 19 26 33 36 36 35 39 35 30 30 30 30 29 26 22 19 21 22 21 20 18 16 16 13 18 19 23 24 23 24 27 29 31
2 2 12 12 10 12 15 12 14 18 22 18 20 23 23 23 34 34 32 32 29 28 27 26 23 22 23 23 22 21 20 19 16 19 17 18 17 24 25 21 20 24 27 30 32
5 1 11 13 10 8 11 12 14 17 20 21 19 18 15 20 26 30 31 29 28 30 25 21 22 19 20 19 18 18 19 19 19 21 19 20 16 23 20 23 25 27 30 33 35
12 6 7 11 11 12 13 12 13 15 15 18 16 18 17 16 18 23 23 27 29 33 34 36 30 29 25 21 19 20 20 20 21 21 20 15 17 19 21 24 28 30 33 37 41

GFSSW_500_spd_009.txt.gz
Wind_Speed
41 41 43 44 46 52 53 57 60 63 65 66 73 72 69 67 66 62 63 51 47 45 43 39 37 38 36 33 29 26 25 22 22 24 22 21 20 21 32 19 19 23 24 27 22
41 42 41 44 48 54 55 59 61 65 68 66 67 74 73 71 68 69 57 54 51 48 44 40 37 41 39 35 29 27 25 24 23 23 22 22 21 22 24 14 15 23 25 27 18
38 43 41 44 47 48 46 53 57 54 61 63 67 68 76 74 69 65 58 54 54 52 47 43 42 42 39 36 30 28 24 26 24 24 23 22 22 21 22 19 19 21 25 24 21
38 42 43 43 44 43 35 35 45 46 47 52 61 67 72 78 70 65 62 58 57 53 50 47 45 42 37 34 33 27 25 26 28 25 24 21 22 22 20 27 24 20 21 25 24
34 41 41 39 42 40 35 36 38 41 44 45 53 64 69 79 71 66 62 59 60 60 55 50 46 39 35 33 33 30 27 26 29 26 24 22 20 23 20 25 25 21 20 23 22
35 38 42 38 40 32 28 30 40 33 37 35 41 61 68 76 68 68 64 62 62 60 56 53 43 36 37 36 34 32 28 25 25 27 23 22 21 25 19 28 21 20 17 17 19
35 37 41 36 38 29 25 24 27 36 35 41 43 54 65 63 71 70 64 64 63 57 54 47 45 44 39 37 35 30 28 24 19 29 23 23 20 23 29 23 21 19 18 20 21
32 34 38 31 36 28 21 20 19 25 35 40 41 47 62 62 70 70 64 63 64 58 54 50 50 45 41 39 36 31 29 24 25 24 25 24 17 27 27 26 24 20 20 22 25
30 33 34 24 30 26 19 15 10 15 26 39 38 45 54 66 68 70 66 64 62 57 54 54 54 47 44 41 37 35 27 24 27 23 26 24 22 23 26 23 23 22 23 24 24
28 28 28 21 22 20 14 14 8 4 20 29 34 44 59 59 64 71 65 64 60 58 54 53 53 47 45 46 36 30 23 27 25 24 24 22 21 19 21 20 17 17 21 25 26
24 23 25 21 13 11 5 7 8 7 8 24 31 43 46 59 66 70 66 64 61 60 58 59 54 49 43 34 31 31 30 26 25 24 22 22 21 19 16 17 19 21 27 28 22
29 27 25 31 19 9 10 3 9 8 3 16 26 33 35 55 63 70 68 63 62 59 58 53 53 42 37 37 34 33 31 25 26 25 23 22 23 23 21 22 20 25 25 22 21
29 31 26 34 28 20 8 10 6 5 5 11 21 28 32 55 61 69 65 60 60 58 55 53 47 39 37 37 30 32 28 25 24 23 23 23 23 22 23 20 20 21 23 20 20
29 38 35 35 32 17 17 1 13 9 10 21 21 34 41 55 59 66 66 61 60 56 51 48 45 38 37 34 31 33 25 28 29 24 23 24 22 20 19 20 22 21 21 19 19
23 31 37 39 24 11 13 18 14 4 13 14 26 35 43 53 59 66 65 60 53 53 56 52 46 41 37 29 28 18 23 28 29 28 27 22 24 19 20 22 24 21 21 20 21
19 25 31 36 13 10 2 12 13 7 2 17 17 32 41 52 56 59 61 57 54 52 52 49 45 42 30 35 30 27 26 29 29 29 28 20 24 17 18 22 22 22 22 24 25
18 18 27 32 15 10 11 12 11 5 4 12 16 26 40 56 56 60 60 58 56 57 54 50 46 40 38 43 40 34 31 29 28 30 23 21 24 16 21 23 25 25 25 28 29
15 15 20 22 24 14 7 7 6 8 18 16 15 24 41 51 50 53 52 43 52 51 52 53 52 42 46 44 37 33 31 28 28 28 25 25 23 20 22 24 27 29 29 31 32
10 11 14 16 26 18 9 11 10 19 11 17 22 24 37 50 48 47 35 44 52 51 51 49 43 44 43 42 38 35 33 29 30 29 28 27 22 21 24 25 29 31 32 31 31
7 8 10 13 15 11 10 12 19 17 17 15 19 26 30 53 46 45 44 45 40 36 39 40 39 42 42 41 43 39 33 34 32 29 28 27 22 22 22 24 27 26 26 27 27
8 6 6 10 10 13 10 4 9 11 16 18 20 23 42 56 39 44 47 40 33 35 37 36 36 39 42 40 36 34 34 34 30 30 25 23 21 17 18 20 20 21 23 24 27
13 6 3 9 9 11 5 7 9 9 18 21 29 29 25 36 45 42 44 36 35 32 30 36 34 33 35 35 35 35 33 32 31 25 24 20 16 15 17 21 23 24 25 26 28
9 4 3 3 7 13 10 3 10 16 17 25 30 27 27 32 39 38 43 34 34 34 34 33 37 34 36 37 35 32 31 29 28 24 20 18 15 18 23 26 25 25 25 24 24
7 3 6 5 5 11 10 5 6 13 17 23 25 23 31 33 40 36 35 34 35 34 30 33 34 34 30 24 25 26 26 26 26 22 16 19 21 26 28 26 25 22 21 23 27
8 3 9 9 7 7 10 10 7 11 14 19 23 28 31 28 33 35 30 28 34 32 31 36 33 28 25 26 28 27 26 26 23 21 24 21 24 28 30 24 22 24 26 28 28
8 4 12 9 6 7 11 12 10 10 13 13 23 29 25 25 26 27 29 35 32 26 24 24 26 25 26 28 27 27 26 26 25 24 24 26 27 34 27 24 25 26 28 28 31
13 6 11 11 5 8 13 11 15 16 15 14 14 21 24 25 27 32 35 32 29 25 24 24 25 26 24 25 28 29 25 24 25 26 26 27 25 25 26 28 28 28 30 32 35

GFSSW_500_spd_012.txt.gz
Wind_Speed
41 38 39 39 39 42 45 45 49 52 53 52 55 61 64 69 69 66 60 54 52 49 49 46 42 40 36 35 31 30 28 27 27 23 22 22 19 14 14 17 11 13 18 16 19
41 37 35 33 37 41 45 49 55 55 56 57 62 63 67 71 74 69 61 59 54 53 52 48 42 40 39 37 34 31 27 27 30 24 23 21 19 14 12 14 20 12 12 18 19
38 34 30 35 40 42 46 49 49 53 58 64 61 64 71 74 74 69 67 61 57 55 53 51 45 45 41 40 35 32 26 29 30 29 24 22 20 14 11 11 20 14 13 13 19
39 30 30 37 39 41 44 44 47 54 50 49 51 59 62 70 71 76 69 63 59 58 56 52 50 48 41 38 34 32 30 29 29 30 23 23 20 17 11 14 21 20 17 16 15
27 28 34 34 39 41 39 40 48 43 37 47 51 44 52 65 67 72 70 65 64 60 59 55 53 46 40 36 36 33 31 32 31 29 24 21 22 20 11 13 21 27 21 17 16
30 34 33 34 38 36 36 40 40 31 32 41 43 43 46 56 60 71 72 68 67 61 59 56 52 42 41 40 39 35 35 34 29 27 26 24 20 17 11 20 19 18 18 12 13
35 31 32 33 35 34 34 38 35 32 35 38 42 42 45 43 62 68 72 68 68 63 58 52 48 47 44 40 37 39 36 32 26 26 29 26 17 20 21 18 14 15 16 15 15
31 34 31 35 33 34 33 34 28 27 34 34 38 37 36 49 59 66 70 69 67 64 57 53 51 49 45 44 39 38 35 30 27 32 28 24 13 24 21 16 18 17 17 17 16
31 30 34 36 33 28 30 28 25 24 29 26 32 33 41 41 53 61 67 69 69 63 59 55 55 52 49 45 42 40 32 29 30 32 26 24 15 19 18 18 19 19 19 18 19
29 32 38 37 28 21 22 23 24 22 24 22 27 33 35 37 48 59 66 70 68 64 61 57 55 55 52 47 45 30 30 30 31 31 27 22 19 20 17 17 19 18 19 17 17
30 34 42 37 30 24 15 22 22 22 22 16 22 26 28 37 48 58 65 68 67 65 63 56 57 60 49 36 32 34 37 32 32 33 26 23 21 20 17 14 17 17 16 17 20
30 32 39 38 31 22 14 17 20 18 19 11 19 25 24 28 47 58 66 67 66 64 63 58 56 44 40 40 39 37 35 30 31 30 25 22 19 20 18 16 17 18 19 21 22
33 31 39 29 32 19 17 15 18 17 13 6 15 21 26 26 47 56 64 68 65 64 63 58 52 44 40 41 38 32 31 30 29 29 23 24 20 21 20 20 20 18 18 18 18
32 34 31 30 30 19 16 11 16 18 15 13 8 17 28 27 48 56 61 63 62 60 58 55 37 43 43 40 35 29 28 30 30 28 23 24 21 19 20 22 22 20 19 19 16
32 28 27 30 27 19 16 15 16 13 15 11 12 20 29 31 47 55 61 60 58 57 59 58 52 41 41 36 29 23 29 27 29 26 25 19 21 14 20 24 24 23 20 19 18
28 25 25 29 20 15 17 18 17 13 15 4 14 22 31 37 48 53 63 60 56 58 56 55 53 36 32 31 28 27 28 26 27 28 28 20 22 11 21 23 21 20 21 20 20
23 22 20 27 32 19 11 11 19 19 11 12 10 24 31 39 51 55 62 59 52 59 57 52 47 44 37 32 31 37 27 24 24 24 18 22 25 13 19 21 20 20 21 21 23
18 21 20 20 26 18 10 13 14 10 10 8 5 25 33 47 52 55 61 56 49 53 51 51 51 46 43 34 33 30 26 21 21 20 22 21 22 16 19 23 23 23 23 25 26
13 19 19 18 24 21 14 7 4 7 3 4 6 27 40 48 48 55 59 59 51 50 52 50 44 41 36 34 28 34 31 25 24 23 22 22 20 19 19 22 24 24 26 29 29
9 17 20 17 19 28 14 2 2 4 3 5 4 28 42 51 48 52 55 54 50 47 45 45 43 41 38 36 40 36 31 30 29 27 23 21 20 19 20 22 23 25 27 28 27
6 17 19 14 15 22 21 7 2 7 7 6 13 26 43 52 54 56 55 52 49 45 44 40 39 40 37 36 36 35 34 31 30 30 27 22 22 20 20 22 24 23 23 25 24
3 14 12 8 12 17 22 12 5 7 8 4 9 18 29 39 48 48 51 44 35 37 37 37 36 34 37 38 38 39 37 33 32 32 27 24 20 20 19 22 24 23 24 25 26
4 12 7 5 7 9 14 10 9 10 5 9 10 24 28 34 37 38 34 33 30 34 33 33 37 38 37 37 39 37 33 33 31 29 27 25 19 21 23 23 23 23 26 27 29
5 9 6 0 2 5 9 11 3 4 11 15 17 27 34 32 30 30 32 30 27 25 28 32 33 35 33 29 26 31 27 27 28 30 25 24 20 22 26 24 23 26 27 28 29
8 8 9 5 1 2 5 7 6 4 12 20 20 18 22 24 32 28 34 30 29 25 25 27 29 32 26 26 29 29 29 29 30 26 29 21 26 29 27 22 26 26 26 30 32
10 7 11 7 3 3 3 3 3 7 11 16 17 17 22 23 25 19 30 26 22 27 27 23 25 25 26 26 26 27 29 30 29 28 27 24 25 27 26 25 26 26 28 32 32
14 9 13 11 6 5 5 5 6 13 14 16 18 21 24 24 28 26 24 22 19 23 25 24 23 27 28 28 27 30 28 27 26 26 26 26 24 26 26 26 25 27 32 34 34

GFSSW_500_spd_015.txt.gz
Wind_Speed
39 40 40 41 41 41 39 37 37 41 42 43 44 45 49 52 52 48 48 58 57 52 53 51 49 47 44 40 38 35 32 29 31 29 25 20 19 18 16 15 9 9 10 10 9
44 43 36 32 36 39 36 39 43 43 44 46 49 54 55 57 58 54 53 59 61 58 54 54 51 49 46 42 40 37 32 29 33 32 26 20 19 18 16 11 10 11 8 9 7
38 30 28 30 31 33 38 42 41 42 47 48 51 57 60 59 61 58 60 59 63 64 57 58 54 53 50 45 42 37 31 31 32 32 28 23 21 18 13 10 13 18 13 10 12
30 26 24 27 29 34 40 41 42 44 46 48 52 56 60 63 64 66 66 64 65 68 61 60 59 56 51 46 38 35 33 32 29 30 28 26 21 19 10 14 15 20 20 15 14
30 27 26 31 31 34 37 39 41 44 47 48 52 59 66 69 60 66 66 68 69 69 64 62 60 57 52 43 40 36 35 33 31 29 27 27 22 17 12 14 19 22 23 17 14
30 25 28 31 31 31 35 41 43 44 45 48 51 54 49 46 49 61 61 69 71 71 67 64 61 57 49 45 43 36 39 35 32 32 28 26 24 17 18 20 22 16 23 20 17
32 31 29 28 30 32 37 43 43 38 42 46 46 44 48 48 49 51 54 61 71 72 69 64 59 56 52 47 42 41 42 37 31 32 28 27 22 25 23 16 16 12 15 19 18
32 29 28 27 31 35 37 38 26 26 33 42 43 41 42 42 40 41 50 59 68 74 69 66 60 56 53 50 45 45 41 35 30 32 31 26 19 33 21 20 14 17 17 19 17
30 28 29 30 32 41 34 36 30 24 34 37 38 36 42 29 34 41 42 53 63 72 69 66 60 58 56 52 47 45 39 34 34 33 32 29 21 31 21 18 17 20 18 18 17
30 31 31 34 40 41 33 34 29 27 33 34 37 39 30 25 32 39 38 53 57 67 70 67 62 58 59 54 54 41 32 33 31 36 35 31 23 30 21 18 16 16 17 17 18
31 31 32 36 42 36 35 30 28 27 32 32 34 31 29 24 35 38 40 52 55 64 69 66 60 61 58 51 39 36 36 36 34 38 33 31 23 28 22 17 17 16 18 18 19
31 29 31 33 39 34 35 27 28 27 30 30 27 25 23 27 35 37 43 51 55 62 67 65 60 53 45 45 41 37 38 34 35 35 31 29 23 27 22 19 18 17 17 19 21
33 27 28 31 38 32 36 28 29 28 30 30 24 17 19 24 32 36 43 50 54 59 65 62 56 47 45 46 44 38 34 32 35 35 31 27 24 28 23 21 20 18 17 17 20
32 26 24 23 32 33 34 28 27 24 32 30 21 11 17 26 25 39 45 51 54 56 61 58 47 46 42 43 40 35 30 34 36 35 29 27 24 25 22 21 23 23 20 21 20
31 23 23 22 30 34 28 25 26 25 28 27 17 11 18 21 28 38 46 52 56 51 60 54 32 48 40 36 36 32 33 36 37 32 27 26 23 23 25 22 23 24 23 23 22
28 22 21 23 29 35 27 21 24 25 28 20 15 11 26 25 22 35 46 53 53 48 54 49 44 43 39 34 34 34 38 36 32 30 26 23 22 23 20 19 22 23 23 23 24
24 21 21 22 26 29 32 18 18 18 18 15 4 16 28 28 33 41 48 53 35 53 55 48 51 30 35 36 38 38 37 34 31 30 23 24 24 17 19 18 22 23 23 21 21
22 18 19 23 21 24 34 15 10 17 14 6 4 22 25 35 37 43 49 53 46 55 56 48 57 47 40 43 45 40 35 30 27 24 25 21 22 20 20 20 21 23 22 21 23
21 16 17 23 19 27 30 8 8 13 15 13 8 22 28 36 40 47 53 34 46 51 52 52 52 57 39 38 35 37 37 29 26 23 22 20 18 22 18 20 21 23 23 25 28
20 16 15 18 16 20 28 12 9 7 14 12 6 20 25 34 44 50 57 53 42 48 49 47 48 50 49 33 32 34 28 34 30 22 20 18 15 20 22 22 23 23 26 27 27
20 14 13 13 11 20 25 10 5 6 5 11 8 16 27 35 45 52 57 55 48 46 48 43 43 44 43 41 34 30 33 32 29 25 23 21 18 18 20 22 24 24 25 26 25
18 12 9 9 10 15 19 17 3 10 8 12 7 21 27 37 43 52 55 49 47 42 42 42 42 41 39 37 36 35 32 30 30 27 25 23 19 19 22 21 23 25 24 25 24
16 13 6 5 7 12 14 15 5 1 7 3 5 18 32 37 43 47 51 52 44 37 33 36 39 40 42 43 40 38 35 35 33 29 27 26 24 23 24 24 24 24 24 23 24
15 13 2 4 5 9 12 13 2 4 3 3 10 21 25 29 35 39 44 43 39 34 31 34 34 33 35 33 32 31 31 31 33 33 28 26 20 22 23 26 28 25 24 26 26
15 14 5 4 1 2 3 6 3 4 5 9 10 25 27 27 32 33 37 34 28 26 29 31 31 33 36 35 34 33 33 33 33 29 31 21 24 26 29 27 25 25 27 27 28
15 14 9 9 7 3 1 4 3 3 8 13 19 22 28 27 23 24 29 35 30 26 27 28 28 31 32 35 34 35 32 32 34 33 30 25 23 26 26 26 25 26 25 27 29
16 17 13 12 9 6 2 2 7 7 11 17 16 17 23 25 27 28 29 28 25 18 18 17 17 19 22 27 26 27 23 26 27 27 26 25 20 27 26 24 25 26 27 28 29

GFSSW_500_spd_018.txt.gz
Wind_Speed
30 32 36 42 45 47 45 43 45 45 44 37 40 38 38 40 40 39 43 46 47 51 53 51 47 49 49 46 43 40 40 34 31 35 35 29 23 23 22 20 17 16 17 15 14
31 34 35 30 30 32 30 33 38 38 39 41 43 44 41 40 41 41 46 49 51 50 53 56 53 49 53 49 47 44 41 33 32 37 35 32 25 22 22 18 16 15 18 18 16
31 31 27 25 28 27 27 30 32 37 41 44 46 46 45 45 44 43 52 55 55 56 52 57 59 53 53 53 52 47 39 33 36 38 33 33 28 22 21 18 17 17 20 19 19
32 31 28 24 28 30 30 31 33 39 42 43 45 46 47 47 48 48 53 58 60 60 57 57 61 60 52 56 52 46 38 36 36 36 34 33 29 23 18 20 17 19 24 24 19
32 34 29 24 27 30 31 31 32 34 37 41 46 48 50 51 52 53 56 57 60 63 62 59 62 63 57 56 52 47 42 38 38 39 35 32 29 26 17 24 20 21 23 26 18
33 35 31 28 28 31 31 31 31 37 42 44 47 49 49 45 46 51 56 61 62 63 66 62 61 64 61 57 54 46 43 40 43 39 36 29 28 22 30 24 20 19 21 25 21
34 38 31 29 28 30 31 33 34 38 42 47 46 41 37 37 42 49 55 60 65 67 66 68 63 66 64 58 56 50 48 46 43 39 35 30 26 26 30 22 19 18 19 25 25
34 38 34 33 31 31 34 37 39 40 43 43 41 37 38 38 45 47 51 48 54 56 64 69 66 69 66 60 57 53 53 51 40 38 34 33 25 30 30 26 20 17 18 22 27
35 37 35 34 35 36 39 39 40 43 42 41 39 37 37 39 45 50 52 55 60 59 59 69 70 70 63 63 60 57 54 47 40 35 37 33 26 29 29 27 23 19 19 23 25
38 38 36 34 36 36 37 37 40 42 38 35 38 39 38 43 46 53 52 48 49 55 61 65 71 70 67 65 67 60 56 43 36 38 37 37 28 27 27 24 21 20 21 25 25
39 39 36 34 37 36 36 34 37 39 35 38 39 41 40 41 43 43 37 39 43 46 52 58 69 72 66 62 61 57 44 41 36 40 40 37 29 26 27 22 22 22 22 27 27
38 40 37 32 35 34 32 34 36 38 34 37 39 41 40 40 37 32 35 37 37 38 37 54 67 69 51 57 56 49 45 41 41 38 37 37 29 30 30 23 25 23 24 27 26
38 40 37 32 32 32 33 38 40 32 35 37 37 41 39 32 24 27 31 32 29 48 32 54 64 63 61 54 55 52 47 41 36 34 37 35 29 31 30 24 27 25 26 25 24
37 40 37 32 30 32 34 37 36 29 35 36 37 34 33 20 18 27 25 32 45 41 29 53 59 57 56 53 51 47 43 40 37 33 37 34 29 28 30 27 27 27 27 25 24
36 39 35 31 31 30 30 36 33 26 33 34 31 26 23 14 19 24 22 32 57 30 33 50 59 60 42 47 45 42 43 39 37 35 34 31 29 27 31 28 27 29 29 27 25
34 37 33 28 28 30 28 34 30 27 35 34 32 23 11 16 18 22 24 41 39 36 46 48 49 48 40 42 45 45 44 39 35 33 31 30 28 27 31 29 28 28 29 28 28
33 33 31 26 26 29 28 32 28 25 27 23 22 12 13 19 20 22 37 46 31 51 49 59 33 58 46 41 46 47 43 38 35 34 28 28 29 24 31 28 27 26 27 27 28
31 30 28 25 25 25 28 33 26 17 18 21 16 8 15 21 23 25 50 30 30 54 54 60 32 44 54 46 43 47 42 38 35 29 28 30 29 27 25 29 26 25 25 25 25
28 28 26 22 25 22 25 25 15 15 15 18 10 6 14 23 27 36 46 34 49 46 47 53 50 42 50 44 41 45 43 39 33 29 29 27 28 25 28 28 27 23 23 25 26
26 25 25 19 21 17 21 20 12 13 14 10 9 7 14 24 31 40 44 38 51 48 42 54 52 35 44 45 42 37 38 36 34 29 28 24 27 26 23 26 28 24 23 23 25
24 22 21 17 17 11 15 17 10 7 10 8 5 14 16 25 34 43 43 40 48 47 49 50 46 52 37 43 43 42 41 40 34 31 29 24 23 24 23 22 22 23 24 26 27
21 20 18 15 13 7 12 15 4 9 8 13 8 15 14 24 35 42 42 38 43 46 41 43 45 49 42 36 35 41 39 35 36 33 30 23 22 22 23 21 22 23 25 27 27
19 17 16 14 12 5 8 14 1 6 5 11 5 12 17 26 37 46 40 36 38 42 41 42 41 40 43 43 45 28 28 31 32 32 30 27 22 21 24 25 22 22 24 26 26
17 15 13 13 10 3 7 6 2 2 5 2 8 9 20 31 35 43 47 38 31 29 39 40 38 38 38 39 32 33 30 28 27 29 28 28 24 24 26 27 26 25 28 28 26
16 14 13 13 10 3 3 9 9 7 0 3 4 5 15 22 31 36 42 41 36 30 29 35 34 33 34 33 35 36 37 37 36 31 34 26 29 26 29 28 29 30 29 28 27
17 13 13 14 10 6 4 3 2 9 5 8 16 11 16 18 19 28 37 40 34 32 28 24 27 28 32 34 37 40 40 38 36 36 32 33 30 28 32 31 30 31 29 28 27
17 14 14 16 12 11 6 2 4 7 9 11 9 18 23 22 29 27 31 30 31 26 24 28 27 28 31 33 33 34 36 36 35 35 30 33 21 32 34 33 30 28 27 27 29

GFSSW_500_spd_021.txt.gz
Wind_Speed
25 26 28 29 34 37 35 36 38 44 46 49 49 48 46 39 37 37 36 37 38 42 43 45 50 48 45 41 47 43 45 40 36 33 34 37 32 26 28 30 28 25 25 24 22
26 27 29 30 33 33 31 29 29 28 32 37 40 43 42 41 40 42 41 38 39 40 48 45 48 53 51 46 44 48 46 41 34 36 37 39 33 28 26 31 29 26 26 22 24
28 28 29 29 34 34 30 29 28 30 31 33 34 36 41 44 45 44 43 43 42 42 46 49 49 50 53 52 47 46 52 40 38 37 41 39 33 32 26 27 30 29 24 23 26
28 29 29 28 33 34 29 28 30 32 34 35 37 40 43 46 46 43 41 44 47 46 46 50 52 52 53 56 54 47 49 43 42 40 42 38 35 29 29 25 31 28 24 23 28
30 31 29 31 31 34 32 33 32 33 35 36 39 38 37 39 42 43 47 46 47 49 50 52 56 57 55 56 59 53 44 46 45 43 41 40 35 30 27 28 31 28 26 26 27
31 32 31 32 31 35 33 32 35 34 33 32 35 38 39 41 45 49 52 54 52 53 54 53 55 59 60 57 60 56 46 46 48 47 44 42 35 33 26 38 30 28 24 26 27
34 32 32 34 33 35 35 35 37 37 36 37 40 41 44 44 48 51 55 54 52 50 53 56 56 59 61 61 59 60 52 49 52 48 45 41 38 28 32 38 29 26 25 22 23
36 35 32 33 34 38 38 35 37 41 42 42 43 46 47 45 47 48 47 50 50 50 50 53 57 59 62 64 61 61 58 54 52 48 44 44 33 35 38 33 30 22 25 21 23
38 37 34 34 36 39 40 37 37 38 39 41 43 48 48 42 44 48 47 50 52 52 51 55 61 66 64 64 63 60 60 55 55 49 43 47 34 36 36 33 30 27 23 20 25
40 38 36 34 35 40 43 41 37 38 39 38 42 45 43 40 44 46 49 53 55 52 55 57 57 67 71 63 64 59 56 58 56 49 44 43 39 36 35 33 29 28 25 22 24
41 40 36 35 35 41 42 41 39 38 38 40 46 43 40 41 43 47 49 52 54 55 57 59 64 59 66 64 58 55 62 58 52 45 47 42 41 36 36 31 26 26 27 25 25
42 40 37 36 35 41 41 40 40 41 44 44 44 39 39 41 45 49 51 50 53 51 50 57 66 61 59 62 60 61 55 55 50 49 46 42 42 35 36 32 24 24 26 24 26
42 40 38 36 35 41 41 39 41 42 47 48 42 37 39 42 44 50 50 44 42 37 40 47 49 52 59 60 54 57 54 50 52 52 41 44 40 34 32 37 24 26 27 25 26
41 39 38 36 37 39 39 38 42 43 49 49 39 36 38 39 41 42 38 27 27 28 32 38 41 48 53 56 54 58 53 52 52 47 41 44 39 39 36 35 28 26 28 26 27
40 37 37 36 37 37 36 36 42 45 49 45 36 35 35 37 33 27 21 21 24 30 32 39 43 46 58 41 44 56 49 50 48 45 44 43 40 30 34 35 30 27 28 27 27
38 35 35 35 37 36 34 35 43 43 49 41 37 37 31 24 22 17 19 21 30 31 24 37 35 47 59 41 41 57 53 48 48 45 43 36 33 31 33 36 31 27 28 28 30
35 33 33 33 35 34 33 37 40 42 36 30 28 32 25 11 12 14 19 24 26 24 26 27 43 51 60 46 41 41 51 51 46 46 37 38 33 28 33 32 30 27 27 29 31
33 31 30 32 32 33 31 36 34 33 23 23 29 27 16 9 11 13 17 21 27 22 20 31 51 51 52 48 47 43 50 51 47 43 35 31 31 33 29 29 30 27 27 28 30
31 29 28 29 29 31 30 31 30 25 18 18 22 20 11 10 13 14 17 29 29 11 17 44 41 44 46 44 47 49 51 43 43 39 32 32 29 30 28 29 27 28 26 28 29
29 26 26 26 28 28 28 25 23 20 17 17 15 12 5 11 11 13 33 35 32 18 30 49 44 47 41 39 42 42 48 41 37 33 29 29 27 30 27 28 29 28 29 30 29
27 25 25 24 26 23 24 20 20 12 11 14 9 6 4 11 15 27 27 34 37 36 30 42 23 55 55 44 41 41 43 41 38 34 27 24 26 29 26 27 28 29 30 28 28
25 24 22 22 23 20 20 15 18 9 8 11 4 7 9 15 22 31 20 26 41 43 35 27 26 41 57 48 43 37 36 36 34 34 33 29 28 27 24 25 25 26 29 29 28
24 23 20 19 19 18 19 12 11 9 8 8 2 6 11 18 28 29 27 33 32 40 29 21 41 32 47 42 40 38 36 36 37 37 33 29 28 23 20 20 22 25 25 26 27
24 22 19 18 19 16 14 11 8 7 6 4 8 3 12 21 31 34 36 34 31 38 33 34 38 28 23 26 34 36 32 32 32 34 33 30 31 25 24 24 24 24 26 27 29
24 20 18 16 18 14 12 11 10 10 8 6 10 4 14 24 33 37 32 31 33 31 36 35 36 35 30 30 26 23 35 19 33 32 31 30 32 28 28 28 26 28 29 33 33
24 20 18 17 16 15 9 5 6 8 10 6 5 4 18 21 25 32 31 32 32 34 28 26 28 27 25 25 25 27 28 29 26 27 28 27 26 30 32 32 34 32 32 33 34
25 22 17 17 17 16 13 7 10 7 10 7 10 9 15 24 30 37 30 26 26 23 18 22 28 25 25 23 24 28 30 31 30 30 31 29 27 33 35 36 39 37 33 33 31

GFSSW_500_spd_024.txt.gz
Wind_Speed
24 24 24 26 26 27 28 30 31 34 32 31 33 44 47 46 45 45 42 40 36 35 36 38 38 39 40 44 43 40 42 44 38 34 32 32 33 30 27 25 28 26 28 35 24
25 24 24 26 28 27 29 31 30 32 32 30 28 25 30 39 45 45 44 42 38 38 36 38 39 41 40 42 47 46 42 38 40 36 37 36 38 29 27 27 29 31 33 38 26
27 26 25 25 28 28 30 31 31 31 34 32 31 29 30 32 33 35 39 42 42 39 38 38 39 41 42 41 44 48 43 37 40 40 41 42 37 28 30 28 28 34 38 36 25
28 28 27 28 27 27 30 31 30 31 34 32 31 31 30 33 34 31 33 38 44 44 42 40 41 44 44 45 43 46 45 43 36 43 45 44 36 34 31 26 32 34 32 29 26
30 29 29 30 28 28 29 33 32 31 35 37 36 34 34 35 28 39 39 40 41 43 43 42 44 46 46 47 48 47 45 46 42 42 48 46 41 32 32 28 35 36 30 29 28
34 32 32 31 30 30 31 31 33 31 35 38 38 37 36 32 34 38 36 40 41 43 45 45 45 46 49 50 51 50 49 47 46 45 48 51 43 39 29 31 37 36 27 27 27
38 36 36 35 34 32 33 31 35 34 34 37 41 41 41 36 40 39 44 44 46 47 49 50 51 51 52 53 54 54 55 52 47 47 46 51 48 41 29 33 39 35 28 28 27
38 39 38 39 37 36 35 34 34 36 37 38 40 42 43 41 44 45 47 48 50 52 53 53 52 51 55 55 54 56 59 56 46 48 48 50 50 37 35 38 37 35 31 27 28
40 40 41 41 39 38 38 37 36 36 37 39 43 41 42 41 43 46 47 49 52 53 50 47 46 46 48 51 53 57 57 56 52 50 51 47 50 37 36 39 36 30 32 27 27
46 43 42 43 43 40 40 39 39 40 40 40 43 42 39 39 41 45 48 51 53 53 51 51 53 53 51 51 52 51 55 56 54 52 51 48 47 40 39 39 33 33 31 31 27
50 46 45 44 44 40 40 39 40 42 42 42 43 40 43 44 46 46 48 48 49 51 50 53 57 54 52 51 52 51 50 53 54 54 52 50 45 42 39 40 37 33 31 33 28
48 49 45 45 44 40 41 39 42 42 44 44 42 42 45 48 48 45 45 45 48 50 54 57 61 53 55 53 53 54 55 52 48 54 48 50 46 47 40 38 37 31 31 34 28
45 48 47 45 42 42 39 41 41 42 48 46 39 43 45 48 44 39 43 46 47 50 55 59 54 52 55 57 55 55 55 53 49 44 47 52 48 46 38 35 38 32 30 32 27
45 45 46 44 40 40 38 40 41 43 49 44 44 40 41 37 34 34 41 44 48 50 51 52 49 53 57 62 60 58 53 45 35 44 51 48 47 44 39 41 41 37 31 33 26
49 46 41 43 38 38 37 38 40 44 47 42 47 44 34 32 35 38 41 45 46 41 38 38 36 42 53 54 52 57 54 54 31 35 47 45 50 42 40 41 38 35 32 31 26
51 43 44 41 37 36 35 37 39 43 47 44 40 30 27 30 33 35 34 32 29 29 28 29 30 31 33 44 52 51 46 41 49 47 53 51 43 39 39 35 36 36 34 29 25
46 43 42 37 36 33 32 37 39 39 39 40 32 24 25 30 27 20 19 18 17 21 23 26 26 20 35 45 62 67 54 39 46 51 50 42 42 34 36 37 35 32 32 28 26
44 44 39 35 32 31 32 36 37 33 35 29 24 24 24 23 16 16 15 10 13 13 26 18 19 31 34 47 57 45 38 38 43 46 44 43 45 38 37 30 32 32 30 27 25
46 43 36 32 29 30 31 32 31 31 31 25 24 24 21 16 11 10 8 10 13 14 10 3 13 26 39 39 52 58 44 38 42 39 40 38 36 35 30 29 29 28 26 24 25
47 40 33 31 28 29 28 27 25 28 27 20 22 20 17 12 4 9 10 12 16 21 13 9 11 34 47 43 27 45 38 52 47 36 31 37 33 34 27 26 27 23 22 23 23
42 38 31 28 28 27 22 25 22 22 21 16 20 11 7 2 1 4 7 13 18 8 13 22 28 30 26 33 31 42 42 42 44 38 28 35 35 32 24 22 25 23 23 22 24
39 36 30 28 28 23 20 21 21 19 18 15 13 5 6 11 10 9 12 14 17 23 27 24 11 17 29 34 29 42 37 39 40 35 30 27 28 23 20 20 21 22 25 28 28
37 34 30 28 24 21 20 18 16 18 15 13 10 6 9 14 20 14 8 16 13 18 22 19 9 23 34 29 28 41 37 34 40 33 28 25 24 21 20 19 21 24 25 25 25
37 35 28 23 22 20 19 16 11 13 12 10 8 7 8 12 15 27 15 13 16 20 26 9 7 12 38 33 27 29 29 29 32 29 26 26 26 24 19 20 21 21 20 20 22
38 31 24 22 23 18 17 15 13 17 13 9 6 5 11 14 18 22 22 29 23 20 20 13 15 15 38 38 26 24 22 27 30 29 31 31 27 24 25 25 23 22 23 23 25
34 29 25 22 22 16 18 11 8 12 15 9 2 4 14 15 19 21 24 21 24 27 21 20 23 12 12 30 27 31 29 28 28 31 30 30 25 28 29 29 20 28 27 27 29
33 28 26 24 20 17 17 10 8 8 7 8 5 5 19 20 25 26 19 16 20 21 20 14 21 22 17 14 12 14 13 24 30 19 28 25 20 26 26 27 28 29 31 32 32

GFSSW_500_spd_027.txt.gz
Wind_Speed
28 27 28 27 27 27 26 26 27 26 28 29 29 29 30 29 31 43 37 39 42 41 41 38 38 37 37 35 36 39 41 37 27 35 26 34 33 30 22 21 24 24 28 32 29
28 27 27 27 26 25 24 25 28 27 28 28 28 27 31 32 27 24 38 44 45 45 41 38 37 36 35 36 37 38 33 33 29 32 36 35 39 36 23 22 25 26 30 39 33
28 27 26 26 26 26 25 26 27 28 28 28 28 28 29 32 31 23 24 34 42 43 43 40 38 39 36 37 38 37 31 32 34 33 35 40 42 35 28 24 26 28 32 40 31
29 28 28 27 28 27 27 27 27 28 27 30 29 28 30 30 31 27 28 28 31 36 42 43 41 40 40 38 39 38 38 34 34 37 36 40 46 39 33 28 27 29 33 36 30
32 30 30 29 29 29 29 29 28 28 27 30 30 30 29 33 31 37 30 28 32 34 36 40 43 44 42 42 42 42 40 39 35 39 38 39 43 41 37 30 30 31 35 35 29
37 35 34 32 31 31 30 30 30 29 29 29 31 32 30 29 35 39 34 33 34 36 38 40 41 44 44 43 44 43 43 42 40 37 38 42 40 41 36 32 34 33 33 35 29
39 39 38 37 35 33 33 32 32 30 31 30 31 34 33 32 35 38 42 39 37 35 37 40 43 44 43 44 43 42 43 43 42 43 39 43 37 36 32 37 36 36 34 33 33
43 41 41 40 38 36 35 35 33 33 32 34 33 34 33 36 37 38 44 45 45 44 42 44 46 46 47 47 46 46 45 45 47 45 45 47 35 33 31 40 39 35 34 33 31
45 45 43 42 41 39 37 36 36 36 36 35 37 36 36 35 37 40 42 44 46 47 47 48 48 48 49 50 50 51 50 51 50 48 47 50 44 34 33 39 42 38 32 33 32
45 46 47 46 45 43 40 39 39 39 40 39 39 39 39 36 37 39 41 40 43 47 47 48 47 47 51 54 50 45 44 46 49 43 47 49 48 39 34 40 43 38 33 35 29
51 47 46 47 47 45 45 41 42 42 40 41 41 40 39 37 37 38 40 43 46 48 48 49 51 53 46 43 42 43 44 46 46 51 48 51 50 42 40 42 42 38 33 36 28
48 50 49 46 46 45 46 45 44 44 43 41 42 40 38 39 35 38 42 44 47 50 52 56 55 47 43 47 50 51 50 46 45 45 46 49 53 44 44 43 40 35 35 38 27
51 48 50 47 44 45 45 45 45 45 46 44 39 41 37 36 40 39 45 47 48 53 52 52 51 46 48 49 51 53 51 46 44 42 42 43 48 48 47 46 38 36 35 38 27
54 49 47 48 45 43 43 44 44 43 46 44 41 32 34 40 42 38 44 42 45 43 44 48 48 50 53 54 54 55 48 49 47 45 43 40 49 47 47 41 40 39 38 36 29
55 50 46 46 45 43 42 42 40 42 45 41 39 39 39 41 43 37 35 38 41 43 45 49 50 50 53 50 51 52 47 48 49 45 41 43 47 46 41 45 44 38 38 34 30
53 50 46 44 45 46 42 38 37 41 41 42 40 37 41 41 35 36 37 38 36 38 43 44 44 45 44 45 48 45 51 48 46 45 45 48 45 45 41 44 39 36 38 34 31
50 51 48 44 45 45 41 37 41 37 35 37 36 37 40 34 32 35 33 26 26 24 24 34 31 29 32 35 39 46 47 52 51 52 51 47 49 44 43 40 34 37 34 32 28
46 48 47 44 44 42 43 39 37 31 31 34 33 36 31 31 29 24 18 14 13 15 16 22 26 26 21 28 29 42 51 54 55 57 64 41 41 46 36 32 36 35 32 30 28
50 48 46 42 41 39 40 37 28 27 30 29 31 33 25 24 20 14 10 8 9 13 16 17 25 25 14 18 32 36 56 47 40 41 48 42 36 32 36 30 32 29 28 25 27
44 48 39 40 38 40 39 27 25 27 25 25 29 21 20 17 12 11 12 14 11 12 20 14 7 17 21 18 30 45 53 61 59 31 41 36 40 32 32 26 27 24 25 27 25
41 50 38 38 38 42 31 22 23 24 20 27 25 16 14 14 7 5 8 12 13 14 12 10 5 7 8 16 30 48 57 56 24 17 32 28 32 30 27 24 21 24 22 22 21
41 48 43 36 41 37 23 21 22 20 18 27 20 14 12 14 6 4 10 5 12 5 8 6 6 10 22 31 31 47 42 29 26 15 20 31 29 30 26 21 19 23 22 21 21
42 42 41 38 37 27 24 22 18 14 21 24 13 14 13 16 12 5 7 7 7 10 18 15 4 8 12 16 25 30 31 15 16 24 32 27 26 28 22 21 21 21 21 20 20
44 43 35 41 31 27 23 19 16 13 18 13 7 11 11 13 13 10 5 3 7 18 16 8 12 1 11 10 11 21 32 36 32 30 25 21 24 25 23 18 19 19 20 19 18
41 42 41 33 28 26 24 18 17 18 17 13 6 8 8 13 11 12 14 9 9 7 7 19 14 9 13 10 10 39 33 31 31 29 25 26 19 17 16 16 17 18 17 16 15
39 39 36 32 25 28 22 15 19 15 17 15 9 6 8 8 10 14 10 8 6 8 9 17 14 25 12 19 20 24 27 26 30 31 26 20 17 17 18 17 17 17 16 15 15
36 40 30 30 25 23 18 18 17 14 13 11 11 5 12 15 19 16 15 12 11 7 10 14 15 16 26 23 22 17 17 18 24 28 24 22 21 21 21 21 19 20 21 19 21

GFSSW_500_spd_030.txt.gz
Wind_Speed
31 30 30 29 30 31 31 30 28 29 28 26 25 25 26 27 28 21 25 29 40 41 40 37 38 37 36 33 35 35 35 31 30 31 28 36 37 37 31 25 24 25 27 28 30
29 29 28 27 27 28 28 27 27 28 28 26 26 26 26 27 26 22 31 28 28 41 41 40 42 41 41 36 38 36 31 26 25 30 29 37 44 40 35 26 26 25 28 30 33
29 29 28 26 26 25 25 24 25 26 25 25 27 27 27 27 26 22 25 28 28 28 42 46 46 44 41 40 37 35 29 28 27 29 37 37 46 45 38 31 25 27 30 31 31
29 30 30 27 26 25 24 23 24 25 25 26 26 27 26 29 28 25 28 28 29 28 31 35 46 46 42 41 38 38 33 30 28 30 37 40 40 45 43 33 29 28 31 33 31
32 31 31 30 29 27 26 24 24 25 25 25 25 26 27 28 32 30 26 27 31 33 32 32 33 43 43 44 42 41 37 36 32 33 36 42 42 40 40 42 34 31 32 35 33
35 34 33 32 32 31 30 29 28 27 27 25 25 25 27 30 31 33 30 29 32 34 34 34 36 38 44 44 45 42 41 40 41 37 39 42 41 42 36 35 43 35 32 34 36
39 39 38 36 35 35 35 33 32 30 29 29 27 27 28 31 30 30 35 34 32 34 38 38 39 41 40 41 44 44 44 42 40 40 39 43 43 38 35 32 41 41 34 36 34
39 41 41 41 39 37 37 37 35 33 31 31 30 30 28 30 32 32 34 34 35 35 39 44 44 42 41 42 44 45 44 43 42 43 43 45 37 41 39 35 34 40 38 36 33
42 42 43 44 43 41 39 37 37 35 35 33 33 32 32 32 33 35 34 35 36 38 40 43 49 49 49 48 48 49 47 45 45 45 46 46 40 42 43 37 37 34 41 38 35
48 46 44 43 43 43 42 41 39 38 37 36 36 34 35 34 35 36 36 37 38 39 41 42 46 50 53 52 50 49 49 47 47 44 49 47 45 44 42 44 39 36 41 42 34
44 47 49 47 44 42 42 43 42 42 40 39 39 39 37 36 37 37 37 38 39 40 39 43 49 48 46 48 51 53 51 49 47 48 52 54 52 50 47 45 43 39 37 42 35
53 49 46 47 49 46 43 42 42 43 42 41 41 39 41 41 37 39 42 43 41 39 43 46 47 47 49 52 53 53 54 50 49 49 51 53 55 54 51 47 45 43 37 41 36
60 56 53 50 47 43 45 45 41 41 44 41 41 40 40 41 40 37 40 43 43 45 46 48 49 52 54 54 57 57 56 51 51 46 50 50 53 56 51 47 49 47 40 43 38
58 60 58 55 50 45 42 44 42 39 42 41 42 43 38 37 42 44 43 42 42 41 45 49 50 51 52 55 53 57 53 51 49 50 51 51 56 56 51 53 49 44 41 40 38
51 54 55 55 51 46 45 41 40 39 43 43 41 38 36 40 43 41 41 41 38 37 43 45 45 47 54 49 45 49 50 52 52 52 53 49 54 51 46 53 54 45 41 40 37
50 48 46 52 51 49 45 41 40 39 43 40 36 39 40 40 41 39 36 35 37 41 45 46 49 50 49 49 49 48 48 51 54 52 58 49 51 51 42 46 48 45 44 41 36
42 46 44 51 49 49 46 40 40 41 37 35 36 38 38 39 38 35 34 33 32 32 32 34 36 39 39 40 39 41 45 49 52 55 60 52 50 42 36 36 35 43 42 37 34
40 32 32 41 49 48 45 41 38 36 32 32 35 36 36 36 32 30 27 23 17 11 11 14 17 23 26 31 31 32 37 46 48 55 54 51 54 45 40 36 36 40 41 36 31
42 37 40 43 43 44 45 42 35 31 30 34 34 35 32 30 26 23 19 14 12 10 16 20 19 21 24 29 34 35 38 30 40 48 50 48 52 47 43 41 38 39 35 33 30
43 39 39 39 38 42 45 41 35 26 30 31 30 33 28 25 21 18 12 12 15 15 23 21 25 24 24 28 35 32 30 37 45 43 43 47 47 45 40 41 33 34 29 28 28
45 41 35 38 40 43 45 40 28 26 29 28 28 32 25 19 16 11 12 13 14 16 22 19 17 15 15 20 28 41 39 33 41 42 39 45 50 42 32 40 31 25 23 26 29
45 37 33 42 37 42 42 33 26 27 26 24 27 27 24 18 15 11 13 13 10 8 14 12 10 9 7 9 6 13 32 35 46 47 36 39 38 27 26 33 27 24 25 26 27
39 32 34 37 36 35 34 29 27 24 23 24 25 26 23 18 17 12 11 8 9 11 12 9 4 11 8 2 6 1 22 33 43 46 40 21 30 25 25 26 27 26 29 26 25
47 42 43 37 41 33 31 31 24 23 24 21 20 19 14 15 15 15 12 6 12 12 9 8 3 3 5 9 9 15 27 45 42 24 13 26 24 24 25 26 23 25 27 25 22
52 46 39 39 43 33 30 27 24 25 24 22 16 15 11 13 13 16 11 7 16 14 15 9 20 19 5 11 12 15 19 12 13 13 14 18 27 26 25 27 26 23 21 20 18
46 46 29 29 36 33 30 24 23 25 25 25 21 17 12 11 17 19 15 11 10 6 7 13 25 15 3 4 6 18 14 14 8 21 23 26 32 36 29 25 24 21 19 18 16
35 27 33 36 29 30 26 21 22 24 25 21 18 18 11 17 18 15 12 13 5 2 4 11 21 19 9 24 22 14 23 10 23 27 23 25 22 20 23 22 20 19 17 16 17

GFSSW_500_spd_033.txt.gz
Wind_Speed
36 35 34 36 36 37 34 34 36 37 36 36 34 33 32 30 29 24 26 26 27 26 28 36 36 35 36 35 36 34 37 28 22 24 26 34 37 39 38 34 31 30 30 28 29
35 33 31 31 30 32 31 31 31 32 32 33 33 32 31 30 27 26 26 23 26 29 31 29 40 40 40 38 41 40 38 27 23 22 26 37 41 40 42 38 33 31 30 29 30
34 33 31 29 29 29 28 28 28 27 29 29 31 30 28 27 27 25 27 25 25 26 30 28 30 41 42 42 43 42 38 32 28 27 29 38 45 43 43 41 34 32 34 31 31
35 34 32 30 28 27 27 26 26 24 24 25 26 26 26 25 25 25 27 26 27 25 27 27 27 31 42 48 44 47 39 36 31 30 32 35 42 47 42 41 39 35 37 35 32
36 36 35 33 30 28 27 26 26 24 22 23 23 23 24 22 26 24 24 26 28 29 29 30 30 32 33 36 45 51 43 40 38 35 32 34 38 43 40 38 42 41 38 38 35
35 37 38 35 34 31 30 29 27 26 23 24 23 23 24 24 24 24 24 25 27 28 31 32 33 34 35 34 35 43 44 42 42 40 37 36 35 41 39 43 37 42 41 39 38
35 37 39 38 36 34 33 32 30 29 27 26 26 26 25 26 24 24 24 24 26 28 31 34 36 36 36 36 39 38 44 46 46 43 41 40 39 38 37 43 39 37 40 40 40
39 37 38 40 40 39 37 36 34 32 30 29 29 27 26 28 25 25 25 26 27 29 32 33 37 38 38 40 41 43 43 45 45 45 45 44 36 37 38 40 42 39 36 41 41
45 43 41 39 41 42 41 39 38 36 33 32 32 29 28 29 29 27 29 29 28 29 32 35 38 39 40 41 45 46 44 44 46 46 48 47 42 37 40 42 42 40 38 37 46
44 44 47 45 42 41 42 42 41 39 38 35 33 32 32 31 31 31 30 30 30 32 35 38 39 41 43 42 43 45 50 49 49 49 52 50 47 44 40 44 44 39 39 41 43
53 49 45 47 48 45 42 41 41 42 40 39 38 35 34 33 33 34 34 33 35 36 39 41 43 41 41 43 46 50 53 57 57 56 55 55 54 50 46 46 46 41 42 41 40
54 56 52 49 45 48 47 43 42 41 41 41 41 39 37 35 34 35 35 37 39 41 42 43 42 43 43 44 47 50 52 54 57 57 60 58 59 55 53 49 48 45 43 45 43
57 59 58 54 52 47 43 48 47 42 41 39 39 38 39 39 37 36 39 39 40 42 45 46 45 46 47 49 51 51 52 56 56 56 58 61 63 60 54 52 51 48 45 46 47
58 53 58 59 60 50 44 45 42 44 45 41 39 39 38 40 41 42 40 41 44 46 49 49 45 45 48 49 52 53 53 57 59 60 60 60 65 59 56 52 48 50 48 49 45
58 49 43 59 59 53 47 50 44 40 41 38 39 39 37 38 40 38 38 40 41 44 46 45 45 45 49 48 51 55 55 57 59 61 62 60 65 62 57 52 47 46 49 49 46
57 59 43 47 57 54 53 49 45 42 44 37 33 33 34 36 37 37 38 41 43 44 43 41 43 45 45 48 53 55 57 57 55 56 64 61 64 65 55 49 48 47 46 49 45
53 54 42 46 48 44 52 51 48 48 41 38 35 35 36 37 36 34 36 39 38 38 37 38 26 24 23 28 37 48 50 50 50 54 67 65 63 63 54 47 49 46 43 48 48
66 45 42 46 45 43 43 51 52 47 40 40 36 36 36 33 32 34 35 32 32 32 27 25 19 24 26 28 32 33 40 44 49 53 58 54 62 55 47 41 42 43 42 45 47
63 46 52 37 44 35 42 50 50 42 40 39 38 38 33 29 32 31 30 27 30 23 25 25 23 24 28 35 35 33 35 29 38 45 41 51 51 47 44 41 42 40 34 36 38
66 48 45 40 38 39 39 45 44 41 39 36 36 35 30 31 29 24 25 25 21 20 24 27 29 27 30 36 35 36 34 34 40 35 34 27 46 44 42 40 37 30 27 30 35
61 46 51 39 42 40 31 46 42 37 36 36 34 32 28 28 22 22 19 24 20 24 29 31 35 26 25 29 26 31 38 39 39 44 39 31 41 38 40 34 36 31 26 30 34
53 49 42 47 49 49 25 34 36 32 34 34 31 30 25 22 19 20 18 21 23 22 21 20 25 21 25 16 7 22 26 41 39 32 38 38 40 34 36 31 31 26 27 34 33
60 50 37 37 39 40 29 26 30 32 33 31 29 26 23 17 20 17 17 21 20 19 16 18 25 23 18 20 24 20 11 29 28 34 29 37 30 34 29 26 30 30 28 31 35
51 39 36 36 39 38 20 22 26 30 29 28 27 21 17 17 19 15 17 17 17 16 21 25 24 24 23 17 17 25 25 15 19 36 28 37 22 28 34 34 37 34 32 32 29
46 26 34 25 35 33 23 28 28 27 28 30 23 17 13 14 18 16 16 15 18 20 26 25 24 20 13 10 17 7 8 7 13 22 29 27 36 40 38 43 39 36 33 32 26
31 33 26 25 28 32 26 23 25 28 27 25 18 19 13 15 17 19 16 15 16 20 19 14 17 16 12 8 8 4 9 11 7 11 9 36 38 33 35 35 32 27 24 27 27
30 24 29 29 25 24 23 24 25 27 22 21 18 20 18 20 19 18 17 18 17 11 5 11 12 7 12 13 10 11 7 18 15 25 34 33 34 32 32 32 28 26 26 26 25

GFSSW_500_spd_036.txt.gz
Wind_Speed
38 36 35 37 36 36 35 38 40 43 45 44 42 39 39 42 41 36 35 35 28 28 26 24 23 26 33 32 31 33 36 26 20 19 18 30 37 40 36 37 39 37 35 32 29
36 37 36 37 35 35 34 35 36 39 41 42 42 38 37 38 38 32 35 33 28 27 25 25 25 26 29 34 35 36 35 26 23 22 24 32 39 42 41 38 40 38 36 35 34
35 35 35 34 35 33 33 31 31 32 35 37 38 35 35 35 34 32 34 32 27 26 26 25 24 25 28 29 37 38 38 32 30 30 30 34 37 42 41 40 37 40 41 39 37
35 34 34 34 35 34 32 30 29 29 31 33 34 33 33 35 32 29 32 30 25 25 25 24 24 24 25 28 31 38 40 38 35 35 37 35 38 41 38 36 40 40 44 41 38
36 34 33 34 36 35 33 31 30 28 28 29 29 29 28 29 30 27 27 26 26 26 25 24 25 26 24 26 29 34 35 41 42 39 39 39 38 38 37 32 37 40 40 41 40
36 37 33 34 37 36 35 34 32 29 27 26 26 25 24 24 26 23 22 21 22 24 24 24 27 28 27 27 29 32 35 35 35 44 43 41 38 40 30 35 35 35 40 39 41
35 40 36 37 36 39 37 37 35 33 30 28 26 25 24 22 22 20 20 21 21 23 23 24 27 29 30 31 31 32 34 36 34 33 42 45 45 41 33 37 36 37 35 39 40
40 38 41 39 36 39 40 39 37 36 33 31 27 26 25 23 21 20 21 23 23 23 23 23 25 28 31 34 35 35 36 35 35 36 39 47 46 39 39 39 38 39 36 36 37
35 43 42 43 42 38 41 42 39 38 36 33 30 27 26 25 24 22 22 23 23 23 24 26 27 29 32 35 37 37 38 38 39 40 42 46 50 46 45 45 44 43 40 36 36
44 41 46 44 46 44 41 42 42 40 38 36 32 30 28 28 27 26 24 25 25 25 28 30 31 32 34 35 37 40 42 43 44 44 47 49 51 49 48 49 47 44 42 39 38
46 50 49 50 47 48 46 41 42 43 40 39 36 34 32 31 29 28 27 27 27 30 31 33 34 35 36 39 42 45 45 46 46 47 50 53 53 51 49 52 48 44 42 40 38
51 57 56 55 53 50 49 46 43 41 41 41 39 37 35 34 33 32 30 30 32 32 35 37 38 39 44 48 47 48 49 49 49 48 51 52 54 56 54 54 50 47 44 39 39
58 61 61 44 47 56 49 48 48 44 42 40 38 38 38 37 36 35 35 35 35 37 39 41 41 43 46 48 51 50 51 52 54 54 54 55 53 56 58 57 54 51 47 44 43
61 64 60 48 41 56 54 50 45 46 47 42 39 36 35 35 35 35 36 37 38 39 41 42 40 43 46 47 50 51 52 55 57 60 58 57 59 53 54 60 57 53 50 49 46
58 65 67 68 47 55 51 50 49 44 45 44 43 38 36 35 34 34 35 36 38 37 38 40 42 43 46 45 50 51 53 55 57 59 62 59 67 54 52 51 57 56 53 51 50
49 61 69 62 49 46 39 49 51 48 46 37 35 35 36 35 35 36 36 36 35 36 37 38 42 43 43 44 48 51 52 55 58 60 68 62 66 59 56 48 46 52 51 51 50
43 53 65 65 52 42 45 47 48 54 47 39 33 31 30 30 31 31 31 31 31 34 37 39 40 40 40 35 34 36 35 41 44 47 56 63 70 65 57 57 48 49 50 49 50
37 47 59 63 38 50 44 44 52 52 46 41 38 34 32 32 31 31 28 29 31 35 36 38 34 28 29 29 33 38 39 42 51 50 48 48 59 71 63 62 52 48 48 48 48
31 43 57 70 43 41 49 46 45 42 43 39 40 35 34 32 32 30 27 28 30 35 35 33 24 25 29 34 36 39 44 44 54 48 46 50 45 51 61 63 51 43 48 48 47
31 45 59 60 38 44 49 37 33 29 39 40 37 38 34 34 35 29 28 27 32 30 27 23 28 29 33 39 38 38 40 42 48 50 48 44 39 43 36 43 40 45 41 42 41
36 47 58 41 48 46 45 34 30 31 34 38 40 37 35 36 33 28 25 28 28 23 22 25 32 27 29 30 37 37 42 41 44 45 48 43 31 25 27 34 36 41 42 38 33
33 49 62 35 38 45 39 33 28 28 29 35 36 37 37 35 27 25 24 27 21 16 18 25 21 25 24 32 38 40 36 35 42 42 38 34 27 35 20 26 34 40 37 38 32
36 55 31 29 27 40 39 34 29 30 28 32 33 33 34 28 26 21 25 24 14 15 18 22 21 29 32 34 35 36 40 36 28 32 29 33 21 29 15 23 35 44 34 30 29
41 34 35 28 27 39 32 25 20 24 28 28 31 30 27 26 22 20 20 20 10 14 18 24 25 34 42 27 34 36 31 35 31 21 21 27 5 23 20 29 36 39 33 31 36
43 32 21 33 26 26 39 28 18 23 26 25 24 25 27 21 20 14 16 12 11 14 16 23 29 26 17 19 19 22 18 7 15 14 19 16 23 29 24 36 38 34 32 32 34
25 23 17 36 26 25 26 23 24 24 20 19 21 27 23 18 14 16 10 10 10 13 17 23 10 16 15 14 16 17 15 12 8 13 13 28 28 33 39 39 35 33 31 30 32
22 18 22 29 25 28 27 22 19 21 20 19 21 20 20 23 16 16 10 10 6 10 19 10 8 12 13 18 16 26 16 14 13 13 18 25 21 26 32 34 28 36 31 28 27

GFSSW_500_spd_039.txt.gz
Wind_Speed
33 30 35 35 36 35 35 36 35 34 36 37 40 41 41 44 44 36 34 40 40 39 36 32 31 31 29 27 29 32 35 27 22 25 23 31 35 37 36 35 35 37 38 35 32
31 33 36 36 35 35 37 36 36 35 37 37 38 40 41 44 44 38 38 38 40 39 35 32 28 29 28 26 25 28 29 22 21 24 27 30 32 34 34 34 38 37 38 39 36
34 34 37 35 35 37 36 36 35 36 37 36 37 37 41 42 43 39 38 37 40 38 34 31 28 27 26 26 26 25 21 26 25 25 28 29 31 36 35 31 34 38 39 39 40
30 36 32 35 35 37 35 34 35 35 35 33 33 34 38 40 41 40 38 39 39 36 33 31 28 25 24 24 24 23 21 23 27 30 30 31 35 37 37 29 32 35 37 39 38
28 33 34 34 35 36 35 35 35 35 32 31 32 32 34 36 39 39 38 37 35 33 31 31 26 25 22 23 22 22 20 22 24 28 32 34 34 38 41 33 33 33 35 36 38
32 33 36 33 38 36 34 36 36 35 33 31 30 29 31 33 36 35 36 36 34 33 32 30 26 26 24 22 23 23 23 23 23 25 29 33 38 45 37 36 35 35 33 34 33
35 33 35 37 36 38 35 37 37 34 33 32 29 26 27 29 32 32 33 32 31 30 28 27 25 25 24 24 24 26 25 25 25 25 27 32 35 41 39 41 40 36 34 35 31
43 38 37 40 37 40 37 37 38 36 36 34 31 28 26 26 26 26 28 27 27 26 25 23 21 21 23 24 25 26 26 26 28 30 30 31 31 34 39 43 42 41 39 37 30
52 46 40 43 43 39 42 41 38 38 37 36 33 30 28 25 24 23 25 26 25 24 22 21 21 23 24 24 25 24 29 30 31 33 35 35 34 31 39 43 44 45 45 42 37
55 52 45 43 47 44 41 42 38 40 39 37 34 33 31 27 25 24 24 24 23 21 22 23 24 24 24 24 29 31 32 33 34 36 37 38 39 33 37 43 47 49 48 44 41
55 52 49 50 50 47 48 45 43 38 39 38 37 35 34 32 29 27 26 24 23 22 23 25 26 24 26 30 32 34 37 39 42 44 45 44 44 44 39 40 46 51 52 49 45
49 50 56 59 48 53 54 43 44 43 40 41 40 37 35 34 31 29 27 25 24 24 25 27 27 29 30 33 37 41 45 48 51 52 54 54 54 51 45 41 45 49 51 52 48
42 46 62 66 62 48 55 48 45 48 44 41 41 40 39 37 34 31 29 27 27 27 28 29 31 32 36 41 45 46 48 50 53 55 57 57 57 52 50 48 46 50 52 50 49
36 39 60 64 61 49 43 47 47 47 49 43 40 38 40 38 36 34 32 30 30 29 30 32 33 38 41 42 42 46 46 49 52 54 54 55 61 56 53 50 50 49 53 53 49
29 36 50 60 57 54 45 36 40 49 46 49 44 38 37 36 34 32 32 31 30 30 32 34 35 37 40 40 42 44 48 51 53 56 58 57 64 54 57 51 48 52 53 53 52
21 36 41 53 59 55 49 37 40 49 48 43 44 41 38 36 33 32 30 30 30 31 32 34 37 38 37 39 44 48 49 49 50 51 58 53 56 55 55 57 54 52 53 52 54
20 35 37 53 63 47 37 43 46 45 46 43 34 35 37 37 35 33 31 31 31 31 32 33 33 35 36 41 44 43 38 40 42 45 46 41 44 49 50 53 61 58 54 54 52
22 27 35 57 64 43 39 44 43 40 44 41 37 32 27 28 28 27 26 26 25 27 29 31 31 32 36 38 33 33 36 39 45 48 50 50 43 36 40 45 49 58 60 53 54
11 17 32 61 64 39 42 45 48 36 34 39 38 35 30 27 26 25 24 25 23 25 29 30 30 31 30 27 32 33 37 40 50 53 57 53 51 45 37 42 48 52 49 55 55
10 12 32 62 73 34 33 38 42 32 30 33 37 35 35 32 29 27 26 24 24 27 28 29 31 22 23 25 27 31 36 39 47 55 57 57 47 39 35 32 34 37 36 53 47
4 17 36 64 56 34 40 41 36 26 23 30 35 37 35 32 31 30 27 25 26 27 27 31 29 18 16 18 24 31 41 45 44 49 52 52 44 35 26 27 25 25 29 48 45
11 13 38 64 49 39 26 34 38 27 23 28 35 37 38 37 34 30 22 25 26 27 29 27 23 11 13 23 30 37 41 42 51 55 51 47 36 23 24 19 26 19 34 47 46
25 15 37 66 42 39 36 35 31 26 24 24 29 37 38 36 32 28 20 26 29 28 25 18 14 17 18 24 29 30 31 36 36 38 43 39 24 17 18 26 33 18 32 46 40
21 24 31 54 34 27 28 36 33 25 22 21 26 31 32 32 31 23 23 29 29 25 18 10 13 22 24 19 25 28 26 29 23 25 22 20 2 10 24 27 28 21 37 40 41
25 22 47 34 31 35 38 36 25 24 22 21 20 22 27 25 21 23 26 26 19 15 9 7 15 17 16 18 20 17 19 15 17 13 3 2 10 21 27 8 17 35 40 41 36
37 27 21 21 32 45 41 30 21 22 21 21 21 25 21 19 23 24 22 16 13 9 4 7 10 9 9 11 20 18 18 12 3 13 8 9 14 12 3 25 31 33 34 33 37
24 22 20 25 30 32 31 31 20 18 20 21 20 16 18 22 23 22 16 15 10 8 3 7 5 4 11 14 17 22 27 12 9 3 1 8 20 26 30 39 27 26 27 27 31

GFSSW_500_spd_042.txt.gz
Wind_Speed
23 26 26 29 34 33 36 36 36 35 35 36 38 40 42 46 45 40 40 42 45 42 37 34 37 36 36 34 34 35 35 30 25 26 28 36 40 41 38 36 36 37 34 35 36
27 22 25 30 30 29 35 36 36 35 35 34 35 37 40 43 44 39 41 40 43 40 36 34 37 37 37 34 33 34 31 24 24 26 32 37 40 40 37 31 31 34 35 34 34
29 29 30 28 33 31 35 37 37 36 35 34 34 35 37 39 41 39 42 41 44 43 38 35 37 37 38 34 32 32 25 24 24 28 31 33 35 36 35 30 26 30 33 34 36
30 29 31 32 32 30 32 33 36 36 36 34 35 35 36 39 40 38 40 42 43 45 38 36 37 39 37 33 30 30 26 24 24 28 30 30 33 34 35 28 31 31 31 31 34
31 33 33 35 34 33 29 33 35 34 35 34 34 36 37 38 39 39 40 42 42 44 41 37 38 38 35 31 28 27 23 22 23 26 30 33 31 33 38 34 35 32 31 30 30
38 36 35 35 38 38 34 34 34 34 34 34 34 35 36 37 38 38 38 41 41 42 41 38 38 38 36 32 29 26 23 22 20 22 25 30 33 38 34 35 40 39 35 33 32
42 43 41 38 37 42 39 34 37 34 35 35 35 35 34 35 36 37 38 40 40 41 39 37 38 37 35 33 29 27 24 22 21 23 24 28 30 30 32 40 42 41 38 36 35
49 49 49 46 41 40 42 39 39 37 36 36 36 35 33 33 33 35 36 37 38 37 37 37 37 36 33 31 30 29 26 24 24 26 26 27 22 27 31 33 35 44 45 41 38
63 59 55 51 48 43 44 43 39 40 36 38 36 34 34 31 29 30 33 35 36 35 34 35 33 32 31 29 28 26 27 26 26 26 27 29 29 27 29 30 34 38 44 45 42
71 67 54 55 52 48 47 46 46 42 41 35 36 35 34 30 27 25 28 30 30 31 31 31 30 28 27 26 27 27 27 27 26 27 28 31 35 31 32 32 33 35 39 44 45
59 54 49 49 53 55 50 42 51 44 37 35 37 37 34 32 28 27 26 26 27 27 28 29 28 25 25 25 26 27 28 31 31 32 37 37 39 40 38 36 36 39 39 43 48
53 45 45 40 54 60 50 48 49 38 43 41 39 39 36 34 32 29 27 26 26 27 28 28 27 26 25 26 27 28 31 34 38 39 42 44 42 48 49 49 48 46 46 45 47
38 32 32 38 51 55 53 51 40 44 44 44 38 40 38 37 34 32 29 27 27 27 27 27 27 25 25 27 28 31 35 39 43 46 49 53 51 57 57 55 51 49 49 50 50
28 21 24 37 44 51 55 49 46 41 46 46 41 38 40 37 36 34 31 29 28 28 27 26 26 26 27 29 32 35 38 44 47 49 50 51 58 55 54 50 49 50 52 54 54
17 20 21 40 39 59 48 50 39 34 44 45 46 40 39 39 35 34 33 31 29 29 28 29 27 28 29 32 36 38 40 44 46 48 50 52 57 49 53 52 53 55 56 56 59
20 20 20 35 42 62 50 48 46 41 47 42 45 43 38 37 36 35 33 32 31 30 28 28 28 29 32 34 36 39 41 42 46 49 53 51 52 51 51 56 57 56 59 60 60
25 22 21 31 50 66 43 46 49 48 42 42 38 41 38 34 34 33 33 31 29 28 27 28 30 31 31 34 35 37 39 44 45 47 50 44 42 27 24 32 35 39 42 52 62
21 17 13 28 54 69 48 45 48 46 37 36 37 37 40 37 35 32 32 30 28 28 30 30 27 28 29 32 34 36 39 33 41 41 41 44 42 34 40 39 46 53 51 43 55
22 13 11 37 64 53 49 45 42 44 34 29 34 32 31 36 35 33 32 31 31 29 26 25 25 26 28 28 33 32 33 37 39 40 46 50 49 49 45 43 50 56 55 54 45
20 2 20 46 74 57 46 46 38 39 32 27 29 32 30 25 29 29 28 28 27 25 24 24 25 22 24 26 28 32 32 31 35 45 52 54 55 56 50 40 46 51 52 53 49
16 8 26 50 75 55 37 44 38 36 25 25 26 29 31 27 29 28 26 25 24 23 24 24 24 19 22 25 27 28 27 34 39 43 47 51 48 44 42 39 37 41 48 46 48
10 6 24 55 60 50 38 33 31 31 28 23 25 31 33 31 32 29 27 26 24 25 23 23 20 16 17 21 23 30 32 34 37 39 44 44 44 39 37 37 34 36 35 33 35
13 4 23 51 55 40 32 36 35 28 24 24 27 30 36 36 30 30 28 27 26 24 21 19 18 10 13 20 23 23 23 30 34 38 36 38 40 36 26 28 26 30 32 33 36
8 12 22 39 39 32 34 29 32 33 22 22 27 31 33 35 36 31 28 27 25 23 20 19 13 10 10 15 15 16 17 25 35 36 31 29 29 32 22 22 25 29 27 31 39
15 13 29 41 34 32 32 27 33 31 23 19 20 26 32 35 34 31 29 26 24 20 18 15 12 6 10 5 8 16 19 25 27 25 27 26 27 26 26 22 18 26 23 26 35
26 20 39 24 28 29 30 31 31 26 22 16 20 26 29 28 29 25 23 24 21 18 17 14 8 7 3 5 10 12 17 24 22 18 22 22 19 17 17 11 4 14 16 32 37
21 27 40 20 23 26 30 31 25 24 21 21 18 18 19 22 21 21 20 17 17 16 17 12 8 7 7 6 10 14 14 22 19 11 13 11 7 1 9 14 13 24 25 27 31

GFSSW_500_spd_045.txt.gz
Wind_Speed
25 27 25 23 28 26 37 30 35 37 39 39 38 39 42 44 46 46 43 44 45 46 46 45 43 41 39 38 37 38 42 38 31 29 29 41 36 39 40 37 36 34 33 37 32
27 26 27 28 24 26 32 38 36 34 38 39 39 38 40 41 44 43 44 44 43 45 46 44 44 44 40 37 37 40 41 35 31 33 36 40 36 40 42 39 38 34 36 36 36
30 29 31 29 30 31 30 34 35 42 34 37 39 39 38 39 41 41 44 44 44 45 45 44 44 45 41 38 36 40 40 33 34 33 35 38 35 41 43 43 36 34 35 33 32
35 32 33 32 32 31 33 31 35 37 41 39 38 39 38 38 39 37 44 45 44 45 44 42 43 45 42 38 38 40 38 37 34 31 35 35 35 38 37 38 37 35 34 24 29
38 39 38 36 37 34 34 35 34 35 40 41 39 38 38 39 38 36 39 43 44 44 42 41 44 46 45 40 41 38 36 37 32 33 32 34 33 34 37 36 33 32 32 29 29
42 43 43 43 40 40 37 36 37 34 36 38 40 39 38 38 35 36 36 41 43 44 42 43 45 46 46 41 38 40 36 34 33 30 31 31 32 33 33 32 35 36 34 32 33
45 46 48 47 44 45 43 39 38 37 37 37 37 39 38 38 34 33 36 39 42 44 43 42 44 43 45 42 38 39 37 33 31 30 29 29 30 30 30 34 35 35 35 36 36
49 50 51 54 54 51 47 44 42 39 39 38 37 38 36 35 33 33 34 37 41 43 42 40 41 42 43 41 38 40 38 35 33 30 31 28 25 27 29 33 35 38 37 37 37
64 62 64 65 63 59 55 49 46 39 42 42 38 37 37 35 31 31 33 36 40 42 41 40 40 40 41 41 40 41 38 35 35 33 32 29 28 28 27 29 31 34 37 38 36
75 82 76 68 69 65 61 53 49 44 45 44 39 38 36 35 32 30 31 35 39 40 39 37 38 39 39 39 38 40 40 37 33 32 31 32 32 29 32 33 34 34 35 37 37
78 64 58 48 46 49 52 55 45 45 49 42 39 38 36 35 32 29 30 32 36 38 37 36 36 34 35 38 39 36 33 31 30 30 32 33 33 33 33 32 34 36 37 38 39
55 46 38 34 34 39 49 56 51 49 49 41 40 39 38 37 34 31 30 29 31 32 34 33 31 31 31 31 31 30 30 30 30 31 34 35 35 38 37 39 41 42 43 43 43
35 31 23 19 26 39 43 52 51 50 44 42 42 44 39 37 36 33 31 30 30 31 29 30 28 26 26 26 28 28 30 31 34 35 36 40 39 41 43 44 48 50 52 55 55
16 15 16 15 23 40 39 62 48 51 48 48 44 46 39 40 38 36 33 31 28 27 28 27 24 23 24 24 27 28 31 33 36 38 40 41 45 42 47 50 53 55 56 59 60
13 20 15 15 18 35 47 61 49 46 46 47 45 47 40 41 38 36 34 32 29 27 26 26 25 23 23 25 27 31 32 35 38 41 44 45 52 43 50 51 53 54 56 56 54
22 23 21 11 16 34 56 49 38 47 43 48 45 44 41 41 39 37 35 33 29 27 25 25 24 24 26 27 30 31 34 36 40 44 47 48 52 44 50 51 51 53 49 52 58
27 25 24 18 14 42 68 51 46 52 46 43 44 40 42 37 38 38 35 32 30 27 26 26 24 26 27 28 30 33 35 38 42 43 45 48 52 49 47 35 41 44 47 44 44
21 28 18 16 28 53 63 50 41 48 46 38 37 38 43 36 37 36 35 32 31 29 25 25 26 26 27 29 31 32 34 34 40 44 45 50 51 41 42 39 47 49 51 51 50
22 23 12 13 37 66 54 44 34 41 40 35 35 32 40 39 33 33 33 30 29 27 26 27 28 27 28 28 29 30 32 35 39 40 45 45 44 47 50 49 46 50 54 55 58
17 14 4 21 42 60 50 39 27 43 40 33 26 30 32 36 33 30 29 29 28 27 27 26 27 27 25 25 28 32 30 32 35 40 44 46 51 53 54 49 54 54 53 58 58
10 16 2 19 44 60 43 33 20 36 36 29 26 30 23 30 31 30 30 29 29 28 28 27 26 21 22 27 27 27 26 29 35 41 45 51 50 52 46 46 48 50 53 54 57
13 7 6 21 36 47 41 32 28 36 32 28 26 30 28 27 30 31 31 30 29 28 26 25 22 19 22 25 25 23 22 29 34 36 43 46 46 43 41 42 42 40 42 46 50
10 4 14 29 39 42 42 35 29 32 25 25 27 28 30 25 27 28 28 28 27 25 24 21 18 17 21 23 20 19 21 23 29 35 37 41 38 32 44 42 34 36 32 39 38
4 10 20 39 38 35 38 36 33 33 23 22 23 29 31 27 27 26 26 25 24 23 21 19 16 18 18 19 17 14 16 20 29 35 36 29 42 31 40 35 37 38 36 27 27
13 26 33 40 36 40 33 26 31 23 19 18 20 25 29 31 29 27 27 26 25 23 19 16 15 16 19 18 13 11 14 19 29 31 31 25 34 38 35 36 39 39 34 28 28
15 23 24 42 31 31 31 22 28 26 20 15 19 24 30 30 31 33 31 28 25 21 17 14 16 17 18 11 11 14 17 22 26 21 19 25 25 26 29 25 17 11 9 9 13
13 35 34 27 28 27 26 26 30 27 19 15 11 14 23 27 28 27 29 29 24 17 16 16 18 15 15 12 16 15 15 17 16 12 12 12 19 28 29 22 13 10 5 1 9

GFSSW_500_spd_048.txt.gz
Wind_Speed
31 29 28 28 28 28 28 28 30 35 38 36 38 40 45 48 49 47 46 46 46 44 46 46 46 45 44 41 40 41 41 39 33 30 27 31 39 48 30 36 35 32 27 36 36
35 34 32 30 31 30 30 30 29 30 36 36 38 39 41 43 46 47 47 48 48 46 46 46 46 47 46 44 44 43 40 37 33 29 35 39 45 44 32 37 36 35 33 38 35
32 35 36 34 33 33 32 31 33 32 35 39 36 38 42 43 42 42 44 45 47 48 47 45 46 47 47 46 45 44 41 36 33 34 37 37 40 37 39 40 37 39 38 40 36
38 39 37 39 37 36 36 35 34 33 33 35 39 34 40 43 44 41 44 43 45 48 47 46 46 47 47 46 44 45 44 38 35 39 36 35 38 41 40 38 41 41 37 37 26
41 40 42 43 43 42 40 38 38 37 34 33 38 47 37 41 42 39 41 42 44 47 47 46 46 46 46 46 45 46 46 39 37 38 32 37 39 38 37 38 36 39 35 33 25
45 45 46 45 46 47 46 43 41 40 38 37 36 43 45 39 40 38 40 42 43 45 45 46 45 45 44 45 46 47 46 41 38 34 34 38 36 38 37 34 35 35 31 30 31
52 48 45 47 48 49 51 51 45 43 42 39 38 39 43 42 38 37 39 40 40 41 44 46 44 45 45 44 45 45 44 43 39 35 36 38 38 37 34 36 32 31 31 29 32
54 56 54 52 51 52 52 55 53 46 43 42 42 39 39 39 40 38 38 38 39 39 41 43 44 44 47 44 42 42 45 44 37 37 37 38 33 35 35 33 29 30 30 28 27
59 60 64 70 71 67 67 65 59 52 45 42 44 42 39 38 38 38 37 37 39 38 38 39 42 42 44 42 42 44 42 43 40 39 39 37 34 33 32 29 27 29 28 27 26
70 79 81 79 75 66 60 60 63 57 45 43 45 45 39 37 37 37 37 35 36 34 37 38 39 40 41 40 39 40 41 42 41 40 40 39 35 33 32 28 29 29 30 30 29
83 68 56 47 43 39 35 38 47 52 48 43 44 40 38 38 39 37 35 34 33 34 35 35 36 36 36 37 37 40 41 40 40 40 39 40 38 35 34 32 31 33 34 33 34
58 42 34 28 24 23 25 34 44 52 49 41 42 42 41 39 37 36 34 31 30 30 32 32 31 30 34 37 36 38 35 33 36 38 40 40 39 37 34 34 35 34 35 36 38
37 17 16 15 15 18 18 33 41 57 57 48 41 37 37 39 37 35 33 31 28 27 28 29 30 31 31 32 31 32 32 31 33 34 34 37 38 35 36 34 35 38 41 43 45
13 11 16 13 16 7 14 25 47 56 55 46 45 43 40 41 38 37 35 32 29 27 27 28 28 29 28 27 28 28 29 27 29 30 33 34 38 34 36 38 41 44 47 50 52
13 15 16 19 16 10 16 32 52 38 41 45 46 43 38 40 39 36 34 32 28 24 25 25 24 26 24 24 25 25 24 26 27 29 32 32 38 36 38 42 46 52 54 54 55
9 17 20 20 13 8 28 49 47 31 22 45 47 40 39 42 39 37 34 30 28 26 25 25 24 23 21 22 22 22 23 26 28 30 33 35 39 34 40 46 51 53 53 52 54
16 24 27 19 11 13 36 53 39 33 13 42 40 37 37 36 37 36 33 32 28 25 24 24 21 22 22 22 22 23 25 27 30 31 33 40 41 36 41 47 50 48 46 49 48
18 25 22 8 10 18 41 48 31 31 19 26 39 34 34 37 35 35 33 32 30 28 24 22 21 21 20 22 22 23 24 27 32 35 37 40 40 38 43 46 46 45 47 47 49
21 25 20 7 11 28 49 49 27 28 17 21 38 37 35 36 33 35 33 30 29 26 24 23 21 21 20 20 21 21 25 28 32 33 38 39 39 41 44 46 47 51 54 55 50
19 25 21 2 22 39 50 25 22 31 24 28 30 33 34 33 31 31 31 30 28 26 25 23 21 20 19 20 23 26 26 27 29 34 35 38 38 43 43 43 46 50 55 53 49
19 17 12 16 31 49 40 25 27 26 30 26 25 20 26 27 29 27 29 28 27 26 24 22 22 19 18 21 24 23 23 24 28 29 34 35 37 37 38 43 44 45 46 47 50
21 11 7 22 39 41 33 27 27 27 26 25 22 26 24 27 31 29 27 27 26 24 23 23 22 17 22 21 21 20 22 24 26 29 30 32 38 36 37 40 46 47 48 45 49
17 11 17 42 46 31 29 32 30 24 26 22 24 26 25 27 32 30 28 26 25 23 23 21 18 18 19 21 19 21 23 23 26 28 23 35 35 36 40 39 41 43 37 37 42
11 19 25 48 34 29 31 25 25 24 22 21 24 28 25 26 27 25 25 24 23 22 20 20 17 18 19 18 19 18 19 21 25 25 31 28 33 23 31 38 37 30 23 32 35
20 28 30 39 25 25 29 26 27 22 19 21 22 26 25 25 26 26 25 24 23 21 19 16 14 15 18 22 17 15 19 20 22 23 29 24 25 25 34 43 42 38 31 29 24
19 25 37 29 30 24 26 19 20 20 15 17 19 23 23 22 22 22 22 22 19 18 15 12 14 15 20 16 14 13 17 19 21 22 23 24 19 30 32 31 45 36 28 25 21
26 27 29 33 24 26 22 15 25 20 17 10 10 13 17 22 22 23 22 21 18 17 14 13 16 14 15 15 16 16 18 19 18 20 21 22 24 27 32 39 39 24 18 18 12

GFSSW_500_spd_051.txt.gz
Wind_Speed
35 31 33 38 34 34 33 30 29 28 28 34 38 39 44 49 50 51 50 50 48 47 48 46 44 43 44 43 42 42 43 39 32 29 24 28 33 38 41 32 29 32 27 31 27
38 37 31 34 38 36 36 34 33 30 30 30 38 41 41 43 48 48 50 51 50 48 47 48 49 47 46 45 45 45 43 37 31 31 29 33 37 41 43 33 28 32 31 32 35
41 41 41 35 35 39 38 38 36 35 32 32 29 41 44 42 43 43 49 50 50 51 50 49 50 51 50 48 47 47 44 39 38 36 35 35 38 43 41 34 29 30 35 36 37
46 45 43 43 42 38 42 41 41 38 36 34 33 34 42 45 42 41 45 46 48 50 50 50 50 50 51 50 49 47 46 45 40 41 38 35 35 39 38 36 35 32 40 37 36
48 49 49 46 46 46 43 46 44 43 40 38 36 35 32 43 44 42 41 41 44 48 49 49 51 50 50 50 50 49 48 47 44 43 42 35 31 35 34 37 35 37 39 38 35
50 52 54 50 47 49 50 48 49 47 44 42 40 37 35 32 43 38 40 41 43 45 46 47 49 50 50 50 50 50 49 47 45 43 43 35 31 38 36 36 35 38 38 36 32
61 64 58 55 50 50 52 54 52 52 47 45 43 40 36 34 38 36 37 40 41 42 44 46 48 50 50 48 49 48 47 44 43 42 43 40 39 40 33 37 35 34 36 33 29
69 64 66 65 68 59 54 56 56 56 52 46 45 44 37 38 36 38 38 37 40 40 41 39 35 46 47 48 46 46 45 45 41 44 44 43 39 34 35 35 36 34 33 33 28
74 77 74 65 61 63 66 65 63 62 60 49 44 47 40 40 35 37 43 37 39 40 41 41 42 43 44 45 46 44 44 43 40 44 45 44 40 35 38 36 34 32 31 31 28
83 73 59 52 46 43 45 50 66 67 65 57 45 48 43 36 37 36 38 38 37 38 38 40 42 41 41 43 42 40 44 44 43 45 45 44 41 35 36 34 32 32 31 30 28
75 60 48 34 27 27 25 28 36 59 71 59 56 45 43 39 39 36 37 39 35 37 37 39 41 37 34 36 39 41 43 42 41 42 42 41 42 36 35 34 34 33 33 33 30
63 39 21 20 20 17 15 16 27 37 55 62 46 47 45 37 38 36 35 36 35 34 34 37 36 30 34 37 39 39 39 37 37 39 41 39 40 39 36 37 37 36 35 35 36
33 13 13 17 14 18 13 10 19 32 53 54 48 42 41 37 37 34 32 33 33 33 33 33 28 30 33 32 31 34 34 33 34 35 37 37 40 39 38 38 38 37 39 38 38
12 10 14 17 16 18 1 2 16 36 58 56 44 36 41 38 38 38 34 33 31 30 31 32 31 31 31 27 27 30 30 26 27 29 32 34 39 36 37 37 37 38 39 39 41
15 16 22 22 16 17 5 10 24 39 65 45 42 44 40 35 34 35 36 34 31 30 28 27 27 27 26 25 25 24 22 22 25 27 29 30 36 33 33 35 36 38 39 43 46
20 22 22 24 14 17 9 15 33 37 43 46 42 45 42 36 35 35 36 31 30 28 26 27 25 26 25 23 21 20 21 21 22 24 28 26 30 34 32 34 38 42 46 47 50
20 24 24 22 9 7 14 33 39 36 27 39 41 43 37 32 33 34 33 31 30 27 24 21 21 22 22 21 19 18 18 19 21 21 24 26 26 27 33 37 41 45 48 50 50
29 26 23 19 2 7 28 52 36 24 24 39 40 38 32 32 32 32 33 31 28 26 24 22 23 23 21 19 18 18 18 20 21 22 23 25 24 26 34 40 40 40 40 43 46
32 25 26 6 11 26 48 47 22 19 27 33 35 38 32 32 32 32 32 29 28 24 22 23 22 20 19 18 17 17 18 18 21 23 24 25 27 29 32 36 40 42 44 44 43
33 24 17 15 30 42 43 21 25 23 21 33 34 38 30 29 28 33 29 29 26 24 24 21 19 20 19 18 16 16 18 19 20 24 26 27 28 29 30 33 37 42 45 47 50
24 22 21 40 51 46 31 27 24 13 34 35 31 30 26 22 28 26 28 26 26 25 23 21 19 17 16 17 18 17 16 18 19 22 25 25 26 25 27 33 37 38 42 45 48
14 15 40 49 38 40 36 31 28 30 27 31 26 25 23 22 30 25 25 26 25 24 21 19 18 16 19 17 16 15 14 15 19 23 24 28 20 22 31 31 30 37 36 41 43
20 37 48 36 29 42 31 24 24 28 28 29 27 28 28 25 30 25 25 26 24 22 20 19 18 17 17 16 13 12 16 19 22 23 16 23 23 27 26 23 33 41 46 50 49
28 36 35 35 42 34 30 26 22 21 21 21 19 20 24 24 30 25 23 24 23 21 19 18 16 15 14 12 11 16 19 21 18 18 17 18 23 23 21 25 33 40 42 46 45
43 36 31 31 29 24 27 27 18 18 16 17 19 19 21 20 28 22 22 21 20 20 17 14 13 12 12 12 15 16 20 18 15 17 20 15 24 23 25 27 34 35 40 47 41
34 24 26 26 26 26 21 21 16 15 14 16 18 17 18 20 23 21 20 19 18 17 14 12 11 12 15 15 15 12 15 15 15 19 18 23 18 22 19 26 24 29 33 38 32
21 19 24 28 26 20 23 19 20 19 16 12 13 17 15 18 19 20 20 18 17 15 14 12 10 13 16 15 10 11 12 13 17 16 18 19 19 17 19 23 16 23 28 29 30

GFSSW_500_spd_054.txt.gz
Wind_Speed
35 35 36 35 34 30 33 35 37 35 33 33 32 34 40 43 46 55 53 53 53 49 50 49 45 42 41 42 45 45 47 44 37 36 29 33 34 35 36 34 33 31 30 30 26
38 39 38 39 38 36 32 34 37 40 38 36 34 34 37 43 44 49 54 55 55 52 50 49 49 46 43 43 44 45 47 42 36 35 33 35 39 39 40 39 34 30 30 31 28
43 42 43 41 40 40 40 38 37 41 43 40 37 35 35 44 43 41 51 54 54 52 53 51 51 51 48 47 46 46 45 42 38 35 37 39 41 41 43 42 33 32 31 34 32
45 46 47 47 47 45 49 46 42 44 45 45 41 38 36 36 45 39 43 50 53 52 53 53 52 51 51 49 48 48 47 44 40 40 41 40 42 42 43 39 31 30 31 33 33
50 49 51 52 54 57 57 54 50 48 49 48 44 41 38 35 31 43 38 43 49 52 52 51 53 51 50 52 52 51 49 47 44 44 44 41 40 42 41 35 32 27 33 34 34
57 59 62 61 63 63 60 56 54 52 53 50 48 45 41 34 40 39 42 41 44 46 50 49 50 52 50 50 52 53 52 51 48 46 45 42 38 40 37 38 36 31 34 35 34
67 71 74 75 76 76 74 63 60 57 55 55 51 48 46 37 39 35 43 40 42 44 45 46 48 50 50 50 51 53 53 53 49 46 46 45 40 37 39 44 42 35 33 34 32
75 81 84 81 72 64 59 57 61 63 59 58 54 51 48 39 37 38 42 40 39 39 41 41 45 48 48 51 51 51 52 51 47 47 48 48 39 39 41 45 42 35 32 32 30
84 87 81 63 54 50 48 50 48 65 62 61 56 53 52 41 36 39 37 42 38 40 41 38 37 40 46 49 51 52 51 48 45 48 48 48 42 39 44 46 41 36 32 31 31
92 81 56 41 34 27 24 26 32 43 68 62 58 55 53 39 38 37 38 38 38 38 42 41 41 38 28 42 47 48 48 47 45 46 47 48 45 39 41 44 44 40 35 32 31
79 58 34 23 21 22 19 16 18 27 43 62 56 55 49 43 39 37 38 38 41 39 39 39 39 40 42 39 34 43 46 47 45 44 46 45 46 37 38 42 42 40 37 33 32
63 37 27 19 21 23 21 14 12 18 30 57 56 55 51 39 36 36 39 36 34 40 38 38 37 36 35 37 36 41 44 41 42 44 45 44 44 39 38 41 42 41 37 33 34
46 27 24 19 22 20 23 4 10 10 23 45 52 47 50 41 36 33 35 34 33 36 31 33 32 32 30 32 33 34 34 36 38 40 41 41 43 39 35 38 40 41 40 38 37
36 26 27 27 27 19 10 13 12 6 31 51 43 42 42 40 36 35 33 32 34 32 32 29 29 29 29 30 31 33 32 33 34 35 38 37 40 33 35 35 37 40 39 38 40
37 31 28 30 22 18 19 10 11 18 47 49 42 46 39 39 36 35 36 35 33 30 29 32 27 28 28 27 28 28 26 27 30 32 33 31 37 26 29 31 33 35 38 38 40
40 38 31 27 24 12 8 5 11 31 57 46 48 44 39 37 37 34 35 33 33 33 31 28 27 27 27 27 25 23 22 23 24 25 29 26 32 26 26 27 31 33 36 38 40
46 44 33 25 11 3 4 13 33 34 51 32 37 38 40 39 38 36 32 33 34 32 28 24 24 25 26 25 22 21 21 20 21 22 21 20 26 24 22 29 32 35 38 41 43
42 38 26 7 3 12 24 38 32 38 20 42 46 40 43 36 33 31 30 31 29 23 18 18 22 24 24 23 22 23 22 20 18 18 17 18 22 25 26 28 32 35 38 41 44
32 28 14 19 34 47 48 34 29 31 37 35 37 37 38 32 29 32 29 30 24 21 22 23 25 25 24 24 23 21 20 18 16 18 19 20 22 25 28 28 29 32 35 38 41
22 24 30 54 49 37 31 32 38 31 29 36 40 38 35 30 28 26 28 28 24 24 24 23 22 23 23 21 20 18 17 17 16 19 20 21 20 23 26 29 30 31 32 35 39
40 44 54 42 34 30 34 29 31 30 27 32 36 35 27 25 25 24 27 24 24 24 23 23 23 20 19 18 19 18 16 16 16 18 19 18 16 17 20 24 28 30 34 35 39
38 40 39 35 36 34 29 32 32 30 31 29 32 28 20 22 23 27 26 25 25 24 22 21 20 19 20 18 16 13 12 12 15 16 16 19 16 17 21 23 25 26 29 35 41
34 31 28 26 30 31 29 20 24 32 29 26 27 26 24 22 25 27 24 24 24 22 20 19 18 19 17 15 12 11 14 14 16 16 15 14 12 19 23 23 24 26 30 36 39
25 27 27 27 31 30 23 18 29 28 25 24 25 25 23 19 27 21 22 23 23 22 20 19 17 16 13 12 11 13 14 15 15 14 12 14 8 23 21 21 21 25 32 35 38
24 27 20 22 27 21 21 25 26 26 21 19 19 18 20 18 26 21 20 21 19 19 17 15 14 12 11 11 11 14 16 15 13 14 9 15 17 17 21 22 19 25 26 30 35
23 16 19 22 21 21 23 19 19 19 17 16 13 18 20 21 23 18 17 18 18 15 15 13 12 11 10 12 14 13 15 13 11 13 13 13 16 18 18 16 19 17 23 27 31
13 9 15 17 15 17 19 16 16 16 15 15 16 14 15 19 23 20 18 18 17 16 14 13 12 11 11 13 12 13 12 11 11 13 11 11 12 13 10 9 11 16 20 22 24

GFSSW_500_spd_057.txt.gz
Wind_Speed
49 48 42 40 41 40 38 38 34 32 33 39 38 36 36 37 42 39 55 54 58 55 52 50 48 45 48 51 54 54 53 49 43 37 32 39 44 45 41 33 36 38 33 31 32
52 50 45 43 41 42 44 41 40 37 36 38 42 41 39 38 39 39 45 54 58 56 55 51 49 49 46 46 49 54 53 48 42 38 36 43 45 44 41 38 38 37 33 32 31
55 54 49 46 44 43 44 47 47 45 40 40 43 45 43 39 35 34 44 50 55 55 56 54 51 51 49 46 45 47 48 46 43 37 40 42 43 43 42 42 38 35 32 31 30
61 59 55 53 50 49 50 51 53 52 50 46 46 48 46 44 37 37 44 43 49 55 56 56 53 50 50 48 46 43 43 44 39 38 42 44 45 45 44 40 39 35 33 31 30
68 64 63 62 63 62 60 59 58 61 60 55 50 53 53 49 35 39 40 45 45 52 54 54 53 50 47 49 49 46 44 43 40 40 42 45 46 46 42 40 40 37 34 32 32
70 69 71 72 73 76 78 75 70 68 63 61 56 58 57 50 41 40 38 44 45 44 50 52 52 51 48 49 51 51 49 47 44 43 44 44 45 44 38 40 42 37 34 37 38
72 76 78 86 81 73 66 62 64 67 69 63 60 61 60 53 46 41 40 38 40 41 44 49 48 50 50 48 49 52 51 51 47 44 45 45 44 40 38 41 43 41 38 40 41
78 82 87 76 63 51 44 43 46 48 57 65 64 63 59 54 43 42 40 39 43 42 41 44 45 47 47 50 49 49 50 52 49 46 46 48 43 43 43 42 44 45 42 39 37
82 86 72 52 40 30 26 25 26 28 40 52 65 62 59 51 44 41 38 42 41 40 40 41 41 44 48 48 49 51 50 49 47 47 49 48 44 43 46 43 46 48 43 38 38
86 70 54 41 32 27 25 22 24 18 27 37 63 63 58 47 45 40 39 43 37 42 38 37 39 40 43 47 49 49 50 48 45 44 46 47 47 44 45 45 45 46 43 40 38
75 59 45 34 30 25 29 29 25 16 19 31 51 56 54 47 48 39 39 42 39 43 38 34 40 38 32 39 47 47 49 48 46 45 46 44 47 42 44 45 45 45 43 41 40
66 50 40 33 33 33 29 22 13 12 12 27 49 57 49 48 43 39 38 40 40 37 43 45 41 31 40 30 29 42 47 46 44 46 49 46 46 41 41 43 46 47 43 41 41
57 46 39 38 34 30 26 17 18 18 5 27 50 54 48 48 45 39 37 38 36 31 41 43 45 41 34 38 36 31 32 32 35 40 45 44 45 41 37 40 43 45 44 41 40
54 50 44 38 30 26 23 19 20 16 10 31 55 53 48 46 41 38 33 36 33 30 37 40 37 37 33 35 36 34 31 29 33 37 39 39 43 35 37 37 39 41 42 40 38
57 44 35 32 24 24 18 17 14 3 10 45 58 51 34 43 38 35 35 35 32 26 30 34 34 33 33 31 30 29 27 27 30 32 35 34 39 25 31 34 35 38 40 39 38
44 34 33 24 15 16 5 7 3 18 13 55 58 44 42 44 37 36 37 37 31 27 24 32 27 32 32 29 26 25 23 23 26 29 33 29 34 22 27 28 30 32 35 37 37
38 30 21 14 8 6 9 13 29 28 46 55 46 37 40 40 36 34 34 35 33 29 28 34 30 28 27 28 25 22 22 22 23 26 28 24 28 21 23 23 24 27 29 32 34
29 21 23 28 34 36 34 26 37 25 20 45 42 41 42 39 36 34 33 30 29 28 24 22 25 26 26 25 22 23 23 22 22 22 19 19 25 20 17 21 24 27 29 31 35
41 42 42 42 38 35 34 30 12 21 44 36 39 37 35 35 33 30 31 26 25 22 22 21 23 25 25 26 26 25 23 20 19 19 18 19 19 19 19 23 25 28 31 33 34
42 43 36 34 31 29 28 16 27 35 37 42 40 37 32 32 28 29 31 28 26 24 22 23 22 22 22 23 25 24 23 22 20 20 20 19 18 17 20 23 24 26 29 29 31
32 29 31 31 28 33 25 21 34 32 32 32 33 32 26 25 25 26 25 27 25 24 23 22 19 17 19 20 21 22 21 20 20 20 18 15 15 18 20 22 23 24 24 28 32
25 20 19 26 20 19 17 24 36 29 34 28 30 24 21 20 24 25 26 26 24 22 19 18 18 18 19 22 21 20 18 16 16 14 14 15 14 18 20 22 23 25 28 29 32
22 19 22 24 20 13 15 16 23 24 26 28 26 25 21 23 24 25 26 23 21 20 18 19 18 19 19 18 16 14 15 15 15 13 13 12 15 17 21 21 24 28 29 31 33
14 16 15 21 22 14 18 15 18 20 25 25 22 20 20 21 22 20 20 18 19 19 20 19 19 18 16 14 14 15 15 15 15 14 14 13 15 23 19 19 22 25 30 28 27
4 7 15 21 25 21 22 18 17 15 21 20 17 18 16 15 21 17 17 18 17 18 19 17 15 13 13 13 14 14 14 15 13 17 12 16 15 20 21 21 22 21 22 23 25
5 2 4 12 19 21 20 20 15 14 15 15 16 15 15 20 22 17 16 17 15 16 17 16 14 13 12 13 14 15 15 13 14 15 11 12 17 15 19 19 17 14 11 17 17
6 6 7 8 12 12 15 14 12 10 11 11 12 15 14 20 19 16 16 17 17 17 17 14 13 13 14 15 14 13 13 12 12 11 11 12 12 14 15 13 12 13 17 11 17

GFSSW_500_spd_060.txt.gz
Wind_Speed
45 48 50 52 52 50 44 41 40 43 41 40 40 39 41 38 37 35 31 53 52 56 54 52 49 51 56 57 55 54 55 51 46 40 38 38 42 46 45 40 36 36 35 31 34
49 52 54 56 57 55 49 44 41 44 46 44 42 43 42 43 39 34 35 46 54 55 55 54 51 52 50 54 57 55 54 49 44 42 42 40 44 46 44 41 36 37 36 32 32
53 57 58 60 63 57 53 51 48 46 50 50 49 46 46 44 43 32 41 41 48 53 57 55 54 52 52 49 53 56 52 49 47 44 44 41 44 45 43 40 37 39 37 33 30
58 61 61 66 64 64 65 62 59 56 55 57 58 51 50 47 42 41 41 41 45 48 51 54 55 54 50 49 46 50 55 50 48 49 46 43 43 43 42 39 40 39 38 35 32
60 63 67 70 70 72 73 73 71 71 68 66 67 63 55 54 39 44 43 42 43 44 47 50 53 53 51 48 48 45 46 47 42 43 46 45 45 45 42 42 42 40 39 36 33
67 69 71 72 76 77 74 68 65 69 73 75 70 70 62 54 46 46 44 41 42 40 44 46 51 51 51 50 47 49 46 43 39 36 40 43 45 46 42 44 43 41 38 36 36
71 74 74 79 75 63 52 48 44 43 47 58 74 66 68 54 54 48 45 43 42 38 46 38 46 49 51 51 49 50 50 48 42 38 38 42 45 44 42 44 43 42 40 38 38
74 77 80 76 57 42 35 32 29 28 27 32 52 67 69 58 55 49 46 41 41 35 42 39 43 47 50 51 51 50 49 50 45 41 39 41 41 45 46 45 42 44 42 40 40
78 81 81 58 44 35 31 30 32 33 26 21 27 52 65 58 52 51 46 42 41 40 39 45 42 45 49 50 51 52 49 47 45 44 42 41 42 45 46 46 44 45 44 41 41
81 84 63 45 39 32 29 29 30 30 26 20 20 39 57 55 49 47 44 41 43 41 40 42 39 44 48 49 50 52 51 46 44 43 45 44 43 42 44 44 44 45 45 44 41
84 77 52 42 39 35 31 28 27 19 22 18 23 28 52 54 51 49 44 42 40 42 37 31 40 37 35 43 46 47 48 47 46 44 45 44 47 43 43 43 43 45 46 47 45
83 63 44 37 37 30 28 24 23 19 22 16 15 36 54 56 51 47 40 41 39 40 35 34 42 37 38 36 42 45 45 44 44 45 45 43 44 40 39 41 43 46 47 47 46
71 55 36 29 26 25 20 20 22 18 22 7 18 48 53 50 46 46 43 39 38 39 34 45 31 39 36 32 30 38 42 40 42 44 46 44 44 39 35 38 39 42 44 47 45
64 49 31 27 26 25 19 22 23 22 12 6 34 38 50 48 46 44 39 35 37 38 31 40 40 39 30 37 32 31 32 35 37 42 44 43 44 36 38 39 38 41 42 43 43
48 40 31 25 18 15 12 18 12 6 12 21 50 43 44 50 45 40 33 32 34 35 28 31 40 28 34 33 35 36 32 28 26 31 37 37 40 27 35 38 38 39 38 39 40
57 49 32 25 17 10 8 7 16 13 9 49 44 40 48 45 43 39 36 34 33 30 23 31 31 31 33 30 25 23 25 25 26 28 31 30 34 25 30 32 31 33 34 36 36
50 52 50 40 37 35 31 31 29 19 46 54 49 47 42 44 37 35 32 34 37 29 31 29 30 30 26 29 25 22 23 24 24 26 29 26 28 24 25 28 27 27 29 31 33
44 42 38 43 35 32 30 28 26 39 54 42 38 39 32 41 33 33 31 34 33 27 22 31 30 28 27 27 25 24 22 23 26 26 23 19 24 22 20 23 24 26 27 29 31
37 36 31 26 28 32 19 20 33 50 42 29 29 44 37 36 34 31 28 31 26 23 22 22 29 26 24 27 28 29 28 25 21 21 18 19 20 18 18 23 25 27 27 28 29
31 31 27 19 28 31 27 34 43 24 35 37 33 38 35 31 28 29 28 28 24 21 20 20 26 25 26 28 28 28 27 24 21 20 18 18 18 16 18 22 23 25 26 25 27
26 29 25 20 28 28 21 26 23 29 29 27 24 31 28 24 24 21 25 25 24 21 18 20 18 19 21 24 24 26 23 22 21 20 19 16 15 15 18 20 20 20 22 25 27
18 29 21 18 18 19 20 22 23 23 22 22 22 18 19 17 20 22 23 22 23 20 20 18 17 17 18 21 23 23 22 22 20 16 13 13 15 18 18 19 18 20 23 26 27
22 27 21 15 15 18 18 20 21 17 16 23 19 18 19 20 20 21 21 21 20 19 18 17 17 18 18 18 18 17 17 16 15 14 12 13 16 17 19 18 21 22 25 27 29
14 20 25 20 17 15 16 13 13 18 19 20 15 15 15 18 19 18 20 18 17 17 16 17 17 17 14 13 13 14 14 13 13 12 12 14 15 18 18 17 19 22 24 24 25
9 12 19 17 13 13 13 13 15 15 17 15 11 11 13 15 15 15 21 16 16 15 16 15 13 12 11 13 13 14 14 14 13 15 11 16 16 21 18 17 18 19 19 19 20
9 11 10 16 13 14 12 8 12 10 11 7 9 12 13 14 18 20 18 18 16 16 16 14 12 12 12 13 13 14 13 12 13 12 13 16 18 17 18 18 19 18 17 16 16
3 5 2 8 8 9 7 7 9 9 8 10 10 11 9 16 16 14 14 16 15 16 16 14 13 12 12 12 11 11 11 12 13 13 13 14 15 17 16 16 16 15 15 16 12

GFSSW_500_spd_063.txt.gz
Wind_Speed
42 41 45 45 47 51 53 51 51 50 43 42 44 45 43 42 39 42 36 38 45 52 55 55 50 51 57 57 59 52 55 51 46 42 41 42 44 44 43 42 41 38 33 31 29
42 42 47 49 52 55 57 55 56 52 49 46 47 47 49 46 44 38 39 43 44 50 53 56 53 52 52 55 57 56 52 49 45 44 43 43 45 46 45 44 42 39 34 31 31
46 46 49 52 56 61 61 62 62 60 56 55 53 57 55 52 47 38 45 46 46 43 49 56 55 53 51 50 54 55 53 48 48 47 46 45 46 47 47 45 42 41 37 33 32
52 51 53 58 63 65 66 67 67 67 67 65 62 63 63 58 51 48 49 50 49 47 46 52 59 54 51 50 50 54 53 54 49 48 48 46 47 48 48 44 43 40 38 34 33
52 55 59 63 66 69 71 72 70 69 66 65 66 72 74 65 55 54 50 52 48 46 41 50 54 55 52 51 49 53 52 54 54 50 49 48 47 48 47 47 44 41 39 35 33
57 61 65 67 70 74 70 58 52 47 49 55 62 69 78 74 62 59 52 51 49 45 45 39 55 50 53 51 49 49 51 51 55 52 49 49 47 48 44 48 45 42 39 37 35
62 67 70 73 78 62 46 38 33 33 30 28 29 39 63 68 63 61 53 51 49 43 44 37 34 56 52 52 50 50 52 49 46 43 47 48 48 44 46 49 46 42 41 40 37
67 72 76 77 60 42 34 33 33 29 26 28 24 25 36 52 67 63 53 50 46 41 42 39 36 49 50 52 52 53 52 51 45 41 41 39 39 42 48 49 47 46 43 43 39
72 77 76 69 43 30 28 31 32 30 27 26 19 21 23 50 64 57 54 48 44 40 40 38 37 44 47 50 53 54 51 49 47 43 41 40 41 39 42 46 48 46 44 43 40
75 77 69 50 34 26 28 24 27 28 24 21 16 23 19 48 55 53 48 48 43 41 40 41 38 39 46 49 51 50 51 49 46 44 43 40 39 39 42 44 46 45 43 42 39
73 66 59 36 24 23 19 21 17 18 18 18 19 19 20 49 57 54 48 47 44 40 39 36 42 36 35 42 48 49 48 46 43 40 43 43 41 37 41 41 43 44 44 44 43
61 69 50 36 30 24 16 13 15 15 11 22 16 17 24 53 56 50 49 46 45 39 38 36 33 33 34 38 42 46 47 46 45 44 42 44 46 41 40 39 41 43 46 47 47
62 57 53 38 25 20 20 22 17 19 20 18 9 21 35 55 53 48 49 45 44 40 31 37 33 40 31 36 37 42 44 43 42 41 42 41 43 38 39 40 41 43 43 45 45
44 58 58 59 41 16 16 15 18 15 7 1 7 27 50 52 49 45 44 44 44 38 35 34 30 30 33 34 30 37 42 41 40 40 42 44 44 38 37 39 41 42 41 42 43
33 52 53 55 43 41 33 15 12 8 10 10 32 43 49 52 52 47 44 42 41 38 37 30 31 25 35 37 33 31 29 35 38 39 40 40 42 37 39 40 40 40 38 38 38
45 49 45 46 31 35 31 23 17 17 25 46 46 50 50 42 47 38 38 37 37 35 33 27 19 27 28 37 34 36 31 33 35 39 40 39 40 34 36 36 36 37 38 37 37
47 46 50 47 31 24 21 17 26 38 39 45 49 53 21 50 45 39 39 35 33 33 29 24 21 19 23 28 33 29 26 33 31 32 31 31 32 30 30 32 31 31 31 32 34
42 41 46 48 39 28 25 37 48 47 47 51 39 37 38 44 38 36 33 33 34 31 23 24 24 24 18 22 27 23 27 26 25 24 24 23 27 25 24 28 28 29 29 30 30
40 38 38 44 38 37 44 39 42 43 38 27 30 32 40 33 34 31 30 31 34 29 22 21 22 22 23 19 24 26 21 23 22 23 19 20 22 21 23 24 26 27 28 27 28
36 35 29 31 27 30 25 30 30 23 33 31 30 32 25 29 29 26 27 30 31 25 20 18 24 20 21 21 24 25 25 21 19 20 17 19 19 18 19 22 25 27 26 26 26
34 35 23 26 16 20 23 28 27 23 19 26 24 28 24 24 25 25 27 27 25 20 17 17 24 22 22 21 22 24 24 23 24 21 20 19 18 19 20 21 22 24 25 25 26
27 34 19 23 13 18 16 22 23 24 23 22 22 18 15 16 16 17 21 20 16 16 15 16 18 20 18 19 22 25 26 23 23 20 18 17 18 19 17 19 21 20 21 23 25
17 27 15 17 18 14 13 13 15 18 22 18 15 17 17 15 15 18 18 18 19 16 16 16 15 15 17 19 19 19 21 21 19 18 17 17 18 20 20 21 15 20 22 23 25
13 20 16 11 13 17 12 12 9 11 14 15 13 11 12 14 17 17 15 15 17 15 12 13 13 14 15 15 17 19 21 19 18 17 16 18 19 19 17 15 22 23 21 21 24
7 14 15 11 9 9 11 6 11 13 11 8 7 7 11 15 15 15 17 14 14 12 13 15 12 13 14 14 16 16 17 17 17 17 16 18 17 17 16 18 19 17 18 20 19
5 7 10 11 8 7 6 5 7 9 8 6 2 5 6 9 12 14 18 18 17 16 14 15 14 15 15 16 15 15 14 14 14 13 16 14 16 16 15 15 14 15 17 16 15
1 4 5 8 6 2 4 4 2 5 7 4 5 6 7 8 10 16 15 13 13 14 15 17 16 14 13 13 12 11 10 11 11 11 12 16 16 14 13 15 17 17 16 15 14

GFSSW_500_spd_066.txt.gz
Wind_Speed
41 41 41 45 45 47 48 48 49 49 50 50 50 49 47 42 40 40 41 37 44 46 51 52 55 54 55 56 56 56 57 53 47 46 43 43 45 45 46 46 44 40 37 35 34
42 43 43 46 47 50 54 54 55 56 56 55 55 54 54 48 42 40 41 43 49 46 50 52 56 57 56 57 58 58 58 52 46 45 45 45 46 47 47 47 45 41 38 35 34
41 42 43 44 46 49 53 56 59 60 61 61 60 59 59 55 49 43 48 49 50 48 50 52 55 57 58 56 59 57 55 53 48 48 47 47 48 48 47 47 45 42 40 37 34
45 45 47 50 54 57 58 61 64 66 66 66 65 65 65 62 58 55 55 54 54 53 51 52 55 58 59 54 53 57 58 57 55 48 48 47 49 48 46 48 46 45 41 39 36
48 50 54 57 60 64 67 69 70 69 64 61 61 61 66 67 61 62 59 56 57 55 52 52 50 55 57 55 53 50 57 59 56 50 50 47 49 51 47 48 48 46 42 40 38
55 57 61 63 65 67 67 61 46 45 46 47 51 57 65 68 63 70 68 60 59 57 54 50 44 54 53 56 54 50 52 53 55 55 50 47 49 52 49 49 50 47 44 42 38
58 59 63 65 67 62 51 35 35 35 35 37 37 36 37 42 56 68 69 63 60 57 53 49 49 49 57 55 54 53 51 51 52 52 53 50 48 47 52 50 50 50 47 44 41
59 61 58 60 59 47 30 24 29 30 33 35 34 31 25 29 44 61 69 52 58 56 53 49 47 46 53 58 56 54 54 52 48 47 51 50 44 49 51 51 51 50 49 47 42
57 49 55 68 64 35 19 16 21 23 21 22 24 27 23 27 38 56 61 49 50 56 51 47 47 45 34 62 59 58 53 49 49 47 44 46 49 49 49 48 49 49 48 46 43
52 48 59 70 62 30 15 18 19 19 20 23 21 22 18 23 32 56 60 55 51 47 49 45 44 45 35 47 64 57 54 51 48 46 44 41 45 48 47 44 48 50 49 47 45
51 57 62 65 52 26 18 11 12 12 16 12 12 18 16 21 29 59 63 57 52 45 47 44 45 45 36 28 56 59 56 52 48 46 47 43 42 43 46 42 42 44 47 46 46
57 60 61 53 41 35 15 19 19 13 16 14 16 15 12 19 35 57 58 53 49 45 44 44 40 35 34 34 42 59 55 52 50 45 42 45 42 40 42 42 41 41 42 43 43
60 56 57 54 38 32 19 15 13 11 16 20 13 9 18 31 51 47 48 46 44 41 42 39 35 35 34 31 39 53 51 50 48 46 44 43 46 46 41 39 39 40 40 39 40
56 54 59 45 37 32 27 13 10 7 4 3 2 15 37 60 47 53 45 45 40 35 37 36 36 32 33 33 34 46 48 47 44 43 45 43 44 44 44 40 39 38 39 39 40
54 56 53 44 32 31 25 17 11 8 11 18 20 38 59 51 58 54 45 52 48 38 38 33 32 29 28 34 36 32 41 42 40 41 43 43 43 41 39 39 40 41 40 39 38
41 47 52 56 46 34 25 21 24 31 32 36 48 51 52 54 56 31 44 47 39 37 34 23 21 34 17 29 34 33 32 35 37 39 41 42 43 42 40 38 38 39 41 40 40
33 34 41 50 50 42 33 40 46 49 49 47 42 41 49 37 47 40 44 42 39 40 31 19 19 12 25 28 36 34 30 30 35 37 40 40 41 42 38 38 37 37 38 38 38
31 28 31 41 43 42 39 38 44 53 51 41 36 40 34 38 39 35 38 35 34 34 28 23 15 22 25 25 29 37 37 35 36 38 42 40 42 41 37 37 36 35 36 37 37
31 26 27 34 33 31 24 20 27 27 18 18 32 35 42 37 36 33 29 29 28 30 30 19 17 16 20 15 27 30 33 33 36 30 29 34 35 32 32 32 33 33 33 33 32
31 25 22 25 27 29 21 25 27 25 21 34 39 35 30 27 31 28 26 28 33 25 21 24 16 19 14 15 20 26 25 24 27 25 23 22 24 24 25 27 29 30 30 31 30
26 21 19 22 20 22 20 14 17 23 28 29 23 25 26 25 22 22 23 28 30 22 19 20 16 15 16 18 20 26 26 22 23 21 19 21 20 21 23 25 27 28 28 27 27
20 18 19 17 17 14 20 19 17 23 20 17 20 20 20 15 17 19 20 23 21 17 12 13 14 19 18 19 21 23 25 25 25 21 19 19 19 21 22 24 25 27 26 26 27
19 14 14 17 15 14 15 16 13 13 16 15 13 17 17 16 15 18 20 21 15 14 13 13 12 21 18 18 19 20 22 23 22 23 21 21 23 22 24 27 26 21 22 25 25
13 16 10 12 14 11 12 10 11 12 12 11 11 11 14 15 16 18 18 17 15 13 14 14 11 14 17 16 18 19 22 23 22 20 20 23 25 24 23 19 19 22 24 23 25
5 11 13 13 8 10 8 9 8 10 10 8 7 6 8 12 15 16 14 14 15 14 12 13 11 10 12 14 14 15 15 18 20 21 24 25 24 22 18 19 21 23 24 24 24
4 2 6 12 9 7 6 4 5 6 5 5 5 4 6 8 10 12 12 14 18 15 13 14 12 12 12 11 12 12 13 15 17 20 22 21 23 20 21 21 21 22 21 20 20
7 7 4 6 9 8 6 2 2 4 3 2 1 2 5 8 9 7 10 13 13 11 13 14 16 16 16 15 16 16 16 17 19 21 21 22 21 19 18 18 18 18 17 18 20

GFSSW_500_spd_069.txt.gz
Wind_Speed
46 44 43 42 43 43 45 47 50 52 54 54 54 52 49 46 44 41 39 39 42 42 43 48 50 52 56 52 52 54 57 57 51 52 50 46 47 43 44 44 46 39 42 43 36
46 43 40 41 44 46 46 47 50 52 55 55 61 58 53 53 49 44 42 44 46 44 46 46 50 52 56 55 54 56 55 54 41 44 49 49 48 41 45 45 44 43 43 39 38
42 41 41 43 43 45 49 52 56 59 60 62 61 59 60 62 58 49 48 48 50 49 48 48 50 52 55 58 55 55 55 48 49 55 52 48 45 44 46 48 47 44 43 42 41
42 43 44 46 48 51 55 59 63 66 68 69 69 66 67 65 59 57 54 53 56 54 52 52 51 52 54 58 55 54 53 55 58 56 49 45 47 49 43 49 47 50 51 41 42
43 44 47 49 48 46 53 56 56 56 60 64 69 73 72 69 57 62 60 58 57 57 54 50 53 50 53 54 55 54 56 58 58 54 54 48 48 50 46 51 49 47 45 45 42
48 49 46 42 47 50 57 52 51 41 37 39 40 45 54 56 62 67 68 62 60 60 57 49 50 49 50 53 56 53 56 58 57 56 53 48 49 52 49 46 47 48 47 45 43
49 45 51 53 51 55 50 47 33 23 25 27 30 35 37 38 53 60 67 69 65 62 59 53 48 51 49 51 54 57 55 57 58 60 52 54 50 49 50 50 44 47 47 45 43
46 47 55 52 57 55 41 34 22 21 21 22 26 32 31 34 42 51 60 66 68 63 60 56 52 49 51 49 55 55 56 58 55 58 58 50 51 47 50 50 49 45 45 45 42
49 59 56 61 56 46 32 24 17 18 19 21 25 28 30 32 35 38 48 56 65 66 61 55 53 49 52 48 49 56 57 55 52 52 53 53 50 50 48 50 48 49 46 45 43
51 57 57 57 50 39 27 23 18 17 17 17 19 26 29 28 30 31 38 51 48 50 62 56 46 53 50 50 47 46 56 54 52 51 50 47 50 52 48 43 48 48 49 49 46
50 48 62 61 44 41 31 24 19 18 16 16 16 14 22 21 22 26 42 61 39 53 57 51 62 51 44 41 28 45 54 53 54 51 47 46 44 50 50 48 47 49 49 48 47
38 51 62 62 48 35 36 20 14 16 22 18 19 18 21 21 21 26 54 64 56 34 61 52 41 45 43 39 35 42 55 57 55 50 46 47 45 42 44 45 47 48 46 44 46
35 49 62 64 48 37 30 22 9 8 13 15 21 20 15 15 24 48 53 52 45 27 47 50 46 44 43 44 36 31 48 60 59 50 46 48 46 41 39 41 44 45 43 42 40
36 48 58 54 48 40 29 20 9 8 8 6 4 3 14 21 37 67 62 28 59 33 46 47 43 44 39 32 31 31 35 54 60 50 47 46 44 46 41 39 40 43 45 42 36
34 42 48 42 54 51 38 26 19 13 12 12 4 26 37 49 54 44 48 46 46 35 38 41 41 37 35 28 30 36 29 48 48 47 49 46 45 46 42 38 36 36 39 41 43
32 37 38 39 50 55 57 47 32 27 23 25 46 53 47 45 48 47 44 40 39 34 34 33 37 34 32 30 32 28 34 40 41 45 45 46 44 48 40 40 42 41 38 38 38
30 31 34 33 36 37 38 43 47 46 42 45 41 16 56 44 42 32 40 36 32 34 30 29 30 30 24 26 34 29 26 33 36 38 41 44 43 49 41 39 38 40 43 40 39
27 27 29 31 34 36 36 32 38 35 28 28 32 54 24 30 19 44 44 32 30 30 29 23 30 19 25 25 26 30 33 33 36 39 41 43 43 48 41 43 39 38 38 38 38
23 25 26 25 29 28 31 28 28 31 24 20 21 13 23 19 31 42 30 31 24 27 19 22 24 20 19 26 24 32 38 28 31 38 41 40 41 40 39 40 39 39 38 38 39
19 21 19 23 27 26 22 21 27 30 26 21 26 24 19 24 28 31 24 25 21 27 17 11 10 16 18 18 24 33 34 36 38 27 30 36 40 43 40 39 38 38 38 38 38
15 18 17 16 21 24 20 17 26 24 18 19 21 18 15 20 23 19 21 21 17 19 16 12 11 13 15 14 19 27 34 34 34 37 32 28 30 37 35 33 33 34 35 36 36
11 16 17 13 18 16 15 14 10 16 15 12 13 15 15 14 15 18 19 21 22 15 14 18 13 13 14 16 16 22 27 29 23 22 22 20 20 22 27 28 31 31 32 32 32
18 9 15 12 12 11 10 8 10 13 14 10 11 13 11 12 12 12 14 18 23 11 10 12 13 15 18 18 18 19 25 24 20 20 21 21 18 21 21 25 28 31 31 31 32
15 11 10 8 12 9 6 6 6 7 8 9 8 6 7 9 12 13 14 18 15 13 10 11 11 16 18 14 15 16 20 23 25 24 23 24 19 21 22 23 24 26 27 29 32
16 11 7 10 11 9 5 2 5 6 6 5 5 5 6 8 10 13 15 17 14 12 11 12 10 11 16 17 17 18 19 22 22 22 26 27 26 26 24 22 23 24 27 27 26
17 14 8 7 9 9 7 3 3 1 1 3 3 5 7 8 10 12 13 13 14 14 12 13 11 11 13 14 16 16 18 18 22 24 24 26 26 24 22 21 23 25 26 26 26
16 16 15 9 6 6 6 5 5 6 6 4 2 3 6 8 9 9 9 11 13 14 12 12 13 13 12 13 12 13 15 17 21 27 27 23 22 18 21 22 23 24 23 23 24

GFSSW_500_spd_072.txt.gz
Wind_Speed
45 42 38 36 35 36 38 40 43 49 47 47 48 50 53 57 53 49 45 42 41 39 40 40 44 46 48 48 46 50 53 51 44 42 39 48 48 46 45 43 42 43 42 47 36
39 37 38 37 37 38 41 42 44 47 49 53 53 53 54 55 61 56 49 47 45 45 43 42 42 46 49 49 53 53 54 47 40 36 43 44 45 41 49 45 45 44 46 45 36
39 37 37 40 41 41 41 43 46 49 52 55 58 59 60 59 56 58 56 51 49 50 47 46 45 45 48 50 53 51 47 41 40 44 50 47 52 47 48 45 44 41 45 38 37
40 42 43 43 41 45 45 46 50 53 56 58 57 58 66 68 59 57 59 56 53 54 52 50 48 47 47 50 50 49 43 48 48 55 51 49 50 55 46 39 43 43 46 44 40
43 46 42 44 48 48 46 46 52 51 48 51 58 59 61 68 61 61 62 60 57 55 55 53 52 48 47 47 48 49 48 50 51 57 50 51 47 45 43 43 46 50 49 47 40
47 44 46 48 49 49 48 42 43 39 41 45 33 32 44 54 54 63 62 60 59 57 57 54 51 50 49 48 49 48 52 53 57 54 47 51 45 43 44 47 49 47 46 42 43
45 44 40 54 61 53 46 39 35 31 36 24 20 20 16 22 41 50 58 61 58 58 59 56 52 50 49 49 47 48 51 55 57 55 53 49 48 45 45 46 51 46 44 45 45
44 46 50 62 66 55 38 34 26 28 25 18 15 14 12 21 24 27 43 55 56 53 56 56 52 46 47 50 47 46 48 56 54 55 56 51 48 49 43 45 48 45 42 45 45
47 46 55 59 60 50 31 28 21 24 20 18 15 16 19 21 26 28 32 41 53 53 54 54 54 50 43 46 46 47 51 49 53 53 54 52 43 47 51 46 46 52 42 43 42
45 47 48 61 72 50 31 26 22 19 16 14 12 16 16 20 23 26 27 37 39 52 57 54 55 52 49 43 44 39 43 43 48 50 52 50 50 50 48 48 46 45 50 43 40
42 46 44 60 70 65 32 24 15 9 15 16 13 12 12 17 23 22 26 33 41 35 56 56 56 54 41 32 39 37 34 36 45 50 53 47 47 50 49 49 48 42 44 51 44
40 45 47 58 68 68 40 21 10 6 8 12 18 18 18 13 16 22 27 33 51 44 45 59 59 49 44 40 37 37 36 34 40 45 52 48 45 47 46 47 48 44 44 44 49
41 45 48 54 65 65 47 25 15 11 7 8 12 17 19 18 21 20 23 42 60 38 40 52 47 49 46 42 39 37 31 32 39 43 52 48 46 46 45 42 49 47 45 42 41
38 42 45 51 58 59 53 31 21 17 16 16 11 8 5 15 19 28 46 56 39 42 27 41 47 46 44 33 36 32 37 28 34 44 48 44 43 43 39 40 35 48 42 44 42
35 36 42 47 53 47 51 44 35 38 33 28 20 7 2 13 32 48 57 42 37 35 37 38 42 49 49 38 40 34 36 27 29 39 48 46 44 42 41 39 33 33 42 47 45
33 33 38 42 46 36 39 37 38 47 47 40 35 22 30 53 57 47 40 19 19 52 38 50 41 36 40 40 34 38 38 29 32 36 42 47 43 44 39 36 36 34 32 35 33
32 31 34 38 38 31 28 29 25 35 30 34 40 38 40 36 27 25 25 29 28 37 41 45 42 37 34 33 36 30 31 34 31 33 34 39 49 45 41 37 33 34 33 34 34
32 28 29 35 31 29 23 22 23 34 38 40 41 32 28 27 32 37 34 24 19 25 29 35 39 34 31 32 31 26 25 29 32 31 31 38 46 44 43 39 34 39 33 34 35
28 28 25 29 26 27 23 16 20 20 27 26 26 18 20 19 22 22 22 25 19 23 22 24 28 28 27 28 20 25 31 31 30 25 26 35 43 44 45 41 35 36 36 35 36
28 26 22 23 21 24 23 16 16 15 18 18 23 20 16 17 15 21 19 20 25 24 19 22 23 29 19 21 24 19 28 31 22 23 23 29 37 42 39 37 36 38 38 39 36
31 20 22 19 20 15 14 18 12 13 13 17 16 17 18 14 16 9 10 14 17 19 20 16 18 21 14 15 19 21 25 34 32 25 21 25 29 34 38 35 36 38 38 38 38
28 25 18 16 16 12 12 11 12 10 9 10 12 13 14 16 14 7 4 5 3 8 6 6 11 15 13 12 15 19 29 31 33 33 27 26 21 23 32 35 37 36 37 38 38
24 22 18 14 13 10 7 6 7 8 7 7 6 7 7 8 8 8 10 9 9 7 6 9 7 8 10 11 12 17 22 28 28 26 27 29 24 21 18 24 30 35 34 33 35
23 20 16 15 13 10 5 3 3 3 2 1 1 2 2 4 8 9 12 15 16 9 7 9 12 14 15 14 14 14 19 21 24 24 17 19 17 16 16 18 23 25 28 31 32
25 21 17 16 15 10 7 3 1 1 2 1 2 4 5 6 8 9 10 13 14 12 10 10 12 13 14 18 18 18 19 20 21 22 22 21 18 18 19 19 19 20 22 24 27
24 23 19 16 15 14 11 7 6 5 3 2 2 4 6 7 8 10 10 13 13 12 13 11 12 10 10 17 19 18 18 18 21 24 25 24 24 23 22 20 19 19 22 24 25
23 23 21 18 16 15 14 12 9 7 9 8 6 6 7 9 9 9 9 11 13 14 13 11 12 12 12 13 15 17 18 19 20 23 26 26 25 24 20 18 19 21 22 23 23

GFSSW_500_spd_075.txt.gz
Wind_Speed
44 39 37 38 38 38 38 39 41 43 44 45 46 45 45 42 46 49 54 51 50 47 44 43 41 44 47 45 48 47 52 49 61 46 45 47 48 47 33 45 53 48 48 45 43
43 44 46 43 44 44 42 41 42 44 43 45 47 48 49 51 47 46 52 57 55 52 47 45 44 44 46 46 48 51 48 48 50 41 40 39 45 47 42 41 50 54 51 49 47
48 50 49 47 44 43 42 44 46 48 47 49 51 50 50 52 51 45 51 62 59 55 52 48 47 46 45 47 48 47 45 39 48 41 46 39 47 35 40 50 46 55 49 47 46
54 53 49 42 42 47 53 58 55 48 49 52 56 56 55 54 49 50 55 53 64 58 56 53 49 48 46 48 48 45 39 39 45 49 51 46 39 43 33 41 51 54 52 44 43
54 54 44 38 39 51 61 66 51 44 48 47 49 53 55 54 47 52 51 55 61 61 58 55 52 49 47 46 47 48 43 41 46 54 51 48 49 45 36 40 44 54 55 47 46
55 54 42 42 46 59 70 67 44 33 30 31 31 34 40 47 46 55 52 57 55 64 60 57 54 51 49 47 45 44 47 44 47 49 44 47 49 51 40 39 44 48 51 50 48
59 47 44 52 55 64 69 58 27 25 25 23 27 25 19 22 24 36 51 56 56 59 61 55 49 46 51 48 44 43 46 46 50 44 50 43 43 41 44 45 49 50 53 52 46
58 46 51 56 61 67 70 43 20 17 23 21 15 12 14 14 21 26 43 49 55 54 62 57 54 51 48 47 46 45 47 47 46 49 47 47 40 40 43 42 49 49 49 48 47
56 50 52 58 65 68 61 32 15 15 17 15 11 9 12 13 15 16 31 48 51 57 58 61 54 47 42 45 48 46 41 46 45 42 48 45 45 41 46 44 45 44 46 43 45
55 48 51 58 61 67 52 31 14 8 9 10 8 8 13 16 16 18 18 26 47 54 54 59 57 49 44 42 43 37 41 40 44 42 39 46 45 49 43 45 44 43 47 48 46
53 45 50 56 58 63 57 37 19 9 2 7 8 7 9 13 15 19 19 22 31 44 53 52 57 51 41 36 36 36 37 37 34 40 42 46 47 46 51 43 44 43 41 47 49
50 44 49 52 49 57 64 60 38 22 11 6 5 7 9 11 8 16 18 25 27 39 52 51 51 49 44 39 30 31 35 35 33 37 41 40 45 47 47 47 40 42 46 43 50
49 44 44 49 47 49 56 57 47 36 24 16 9 9 12 13 15 13 20 26 33 42 43 48 46 43 42 43 35 28 33 30 29 31 33 36 43 45 45 47 45 40 44 43 42
48 41 43 45 40 52 54 50 46 36 37 36 30 11 5 14 17 14 21 31 46 43 47 48 47 44 43 39 33 30 29 30 33 27 24 29 34 45 42 41 45 41 41 46 43
49 38 41 39 38 42 45 44 49 42 42 29 42 39 21 9 8 18 26 42 43 34 35 47 44 38 42 39 34 31 27 32 28 24 26 31 35 39 46 43 39 39 35 43 44
46 40 37 36 34 31 36 42 43 47 48 44 40 32 28 34 25 29 36 46 31 32 28 39 46 40 38 36 34 31 31 29 30 27 30 30 31 35 43 37 37 33 35 35 47
43 38 34 34 29 27 25 31 38 42 42 42 38 33 31 33 32 35 26 22 22 24 25 38 41 40 39 37 34 31 34 30 29 32 27 29 32 29 41 41 37 34 35 30 35
40 37 31 30 26 21 25 27 30 32 33 32 34 30 31 41 27 30 29 20 24 35 35 41 41 39 43 42 33 30 27 31 33 33 30 29 27 25 37 41 37 34 32 30 31
39 36 30 26 22 18 23 21 24 24 28 20 22 25 22 25 22 21 27 22 32 31 27 37 35 31 32 35 30 32 34 28 38 37 33 30 29 26 37 42 39 34 33 34 31
34 32 29 23 22 19 19 18 17 23 24 21 12 9 22 15 17 13 23 23 22 19 23 28 25 22 22 23 29 27 30 28 23 25 30 25 19 24 29 38 38 36 34 32 37
30 31 27 25 22 17 18 17 14 16 16 16 15 9 5 11 18 19 14 18 15 19 19 19 21 23 23 21 26 25 27 30 28 26 33 23 16 15 26 30 36 36 36 37 35
29 27 24 23 22 19 13 14 14 13 12 12 12 10 11 5 5 14 8 10 19 23 19 18 19 21 20 18 22 27 23 27 31 32 22 18 15 13 18 25 30 32 35 34 39
31 26 24 21 20 22 15 10 11 11 10 8 6 9 6 5 4 3 2 6 9 9 12 17 17 19 14 12 17 20 23 24 23 26 27 33 25 23 17 19 26 31 35 36 38
36 26 23 21 19 18 17 12 9 9 7 9 7 2 2 3 2 1 5 6 11 12 10 10 9 10 8 9 11 13 17 18 21 25 26 28 26 25 25 16 20 29 32 35 35
37 29 24 22 21 16 15 14 11 8 6 6 7 6 3 3 5 6 7 9 11 8 4 5 6 9 12 14 17 16 16 19 21 24 25 26 17 15 13 11 14 17 23 25 30
43 35 26 21 21 19 16 13 12 13 11 7 7 8 8 8 9 11 11 10 11 12 9 8 8 10 13 16 20 21 20 18 20 21 20 22 18 14 16 15 10 12 16 19 21
45 34 38 28 22 23 20 18 14 14 15 13 12 10 11 10 10 10 11 13 15 15 14 12 12 12 12 12 19 22 21 19 20 21 22 22 19 21 19 17 13 17 20 19 19

GFSSW_500_spd_078.txt.gz
Wind_Speed
54 49 48 51 41 37 35 33 32 33 37 40 40 43 46 46 43 49 45 58 60 59 56 54 50 47 47 50 49 50 55 61 70 63 60 50 55 58 63 60 60 52 52 46 46
58 54 55 48 42 39 37 34 38 43 43 45 47 45 43 49 49 43 45 55 64 63 58 55 51 50 48 50 50 50 55 52 55 48 50 62 56 61 62 62 62 60 53 50 48
58 59 56 44 44 44 45 47 51 56 59 53 48 49 46 46 48 45 49 52 59 67 62 57 54 53 49 49 50 47 47 44 49 46 54 62 51 56 59 60 62 63 54 52 49
60 59 53 45 45 49 54 58 59 59 55 45 40 48 50 48 50 50 50 53 50 58 67 60 56 54 52 48 48 48 44 48 49 51 52 59 53 54 46 52 60 64 58 56 51
60 58 47 45 51 58 64 65 54 38 28 23 20 33 46 47 47 54 53 51 55 51 68 60 58 55 52 48 47 50 46 49 49 55 47 67 54 60 51 47 55 59 62 57 55
59 56 47 50 56 61 67 61 42 22 20 20 21 19 23 30 39 44 49 53 56 48 63 66 58 54 53 51 47 46 49 47 52 52 50 57 62 49 43 50 50 55 63 56 56
59 52 49 52 57 62 65 64 40 11 13 17 18 17 17 20 27 31 41 50 52 52 52 69 59 58 53 51 48 46 48 48 48 48 46 50 57 50 47 46 54 52 54 52 51
59 53 52 53 57 62 60 64 40 9 11 13 17 17 14 16 18 27 38 44 51 47 49 59 63 57 53 53 51 48 48 50 47 45 43 53 58 52 47 47 38 42 52 49 51
58 53 50 51 57 57 60 58 42 16 11 14 13 12 10 8 9 16 32 45 41 40 50 53 66 57 49 53 52 50 46 42 45 42 39 42 49 41 45 46 43 35 42 47 52
57 52 47 46 52 61 61 52 48 28 12 7 10 7 9 9 8 9 24 51 51 48 48 48 63 56 47 50 51 48 46 44 41 38 40 36 43 43 40 47 43 46 44 44 45
55 51 47 42 51 60 65 56 46 43 21 10 7 5 2 11 11 10 11 44 53 48 51 49 62 56 48 42 45 45 42 40 40 41 39 37 40 41 47 43 44 43 42 43 49
52 49 45 39 44 46 56 63 57 44 38 19 7 8 8 9 11 14 16 32 45 48 50 48 58 56 42 41 36 38 39 38 34 35 38 37 37 45 48 48 43 38 44 43 46
50 47 44 37 34 44 52 53 54 57 49 37 31 9 9 12 10 15 20 23 29 46 51 51 53 60 43 42 38 35 36 32 35 36 34 35 41 41 45 49 46 46 38 42 42
47 45 41 32 32 38 47 47 46 52 53 48 38 36 9 19 12 11 21 25 29 40 45 51 52 53 53 40 36 30 30 32 34 34 33 32 35 40 38 43 49 45 43 38 42
45 43 39 30 25 30 39 39 39 46 51 44 41 39 31 9 11 14 24 27 30 42 45 46 49 47 41 39 37 30 26 28 28 28 27 29 33 38 41 40 41 43 42 41 39
42 41 35 30 20 30 31 32 32 37 41 43 43 37 42 27 21 17 20 28 41 36 47 46 50 49 36 35 38 33 25 25 27 26 30 26 28 32 34 35 38 41 38 45 42
44 38 35 29 27 30 27 30 28 29 36 32 39 42 34 32 31 27 29 27 26 29 47 48 51 41 38 39 38 34 29 28 31 30 27 27 30 24 24 34 40 43 38 38 43
47 38 34 30 26 25 22 25 27 22 26 25 29 30 31 33 27 8 21 20 18 29 41 45 49 39 29 38 34 32 32 34 32 30 26 26 21 18 20 26 39 45 42 40 37
50 38 33 30 26 25 24 21 21 23 17 19 19 22 23 21 23 25 10 15 19 19 35 39 46 40 40 36 37 33 31 30 28 25 28 23 15 16 18 24 34 44 41 38 34
52 40 33 29 27 24 22 21 18 18 20 17 14 15 15 22 20 18 14 16 14 15 26 38 41 39 35 34 35 34 25 24 22 19 26 30 23 15 13 26 33 41 40 37 39
55 46 36 29 27 24 22 20 17 17 14 14 10 9 11 20 19 12 13 14 8 6 25 24 22 23 26 31 32 35 25 30 27 28 27 24 26 17 19 25 32 40 37 37 36
57 53 42 33 27 23 22 20 17 14 12 9 9 8 10 8 12 10 12 15 17 19 21 24 20 16 15 20 22 29 26 27 30 27 31 26 22 15 12 17 25 36 39 37 36
61 56 40 40 31 25 22 19 18 14 12 8 6 5 3 1 3 8 9 16 13 15 19 22 22 22 23 22 22 27 28 24 28 30 32 30 20 17 12 9 20 27 32 36 35
65 60 48 47 39 29 22 19 19 16 13 11 7 4 3 3 3 1 3 8 11 15 19 16 15 15 14 14 16 19 25 28 26 27 28 30 27 25 26 23 19 26 33 33 34
67 58 54 50 43 34 28 22 18 17 16 13 10 7 7 6 6 6 6 9 11 10 10 11 12 16 14 14 15 16 21 26 26 25 30 27 24 22 23 24 24 23 28 33 35
63 62 60 58 53 43 34 29 24 20 17 16 14 12 9 9 9 9 10 10 15 15 11 11 10 11 13 14 16 18 19 20 21 21 21 21 21 21 19 17 14 14 19 25 28
68 67 66 63 57 54 42 33 31 26 21 19 16 16 15 12 12 14 14 15 14 14 15 13 11 11 13 14 16 19 21 22 22 21 23 23 19 19 17 13 16 15 15 16 18

GFSSW_500_spd_081.txt.gz
Wind_Speed
81 70 60 53 46 44 43 43 43 43 43 42 41 37 37 41 45 48 49 52 54 65 67 61 58 58 56 51 50 48 44 53 61 65 60 63 52 58 62 62 60 56 54 50 47
82 69 61 51 48 47 48 49 52 51 48 50 50 51 48 44 45 49 48 52 55 61 71 63 61 60 58 52 51 49 42 34 51 59 62 59 56 56 61 64 62 58 55 52 50
77 66 58 51 50 47 50 55 60 58 48 41 48 52 53 50 44 48 50 53 55 56 64 65 60 61 58 56 52 46 34 38 47 57 62 60 64 61 58 60 62 63 57 53 51
75 61 52 47 51 56 58 63 62 47 24 23 22 23 38 47 45 49 51 55 53 54 53 65 62 59 58 57 51 45 43 42 44 54 57 58 64 57 50 56 62 63 59 56 54
68 58 48 45 52 61 58 57 56 42 14 16 15 18 17 20 38 51 52 51 55 52 52 55 66 64 57 56 53 47 47 45 47 51 54 53 54 58 59 53 56 60 62 59 56
66 57 43 43 46 60 65 64 55 36 12 11 15 16 17 17 21 39 52 51 49 51 44 56 63 62 57 56 54 49 48 49 47 50 50 52 54 59 64 54 57 58 59 64 58
67 55 44 42 47 58 62 68 65 39 13 9 10 15 13 13 10 24 38 49 51 45 45 44 63 62 58 55 55 51 48 51 47 48 49 52 55 50 59 53 53 59 58 62 63
65 54 45 41 43 51 56 63 66 58 17 15 12 14 14 14 17 15 27 36 44 47 43 40 59 65 62 56 56 54 49 48 49 46 48 49 51 46 58 62 54 48 60 63 64
66 53 46 40 41 50 53 60 62 59 50 19 15 16 12 11 10 13 27 34 35 44 45 43 49 64 59 59 57 57 49 46 49 46 46 48 51 46 59 64 53 50 54 60 54
65 52 45 40 38 46 49 55 61 61 53 39 13 8 7 7 6 10 21 38 41 41 42 41 44 62 56 62 58 54 49 45 46 46 43 47 48 46 48 69 63 43 60 57 53
65 50 44 35 40 43 45 48 57 59 57 47 31 8 6 4 6 6 12 37 46 39 43 42 45 60 44 56 53 50 46 45 42 46 44 40 43 37 53 55 64 62 37 45 51
68 50 43 35 37 43 41 47 49 54 56 51 45 15 9 4 6 8 5 33 49 46 45 45 43 52 52 47 54 48 46 44 39 38 42 45 42 40 40 51 58 58 44 38 34
69 54 44 39 31 39 40 42 45 49 54 49 48 38 8 6 4 7 7 31 45 37 54 41 41 45 48 42 54 50 43 39 36 34 35 36 43 43 38 42 47 42 44 41 40
71 58 44 39 37 34 36 40 40 45 51 45 43 39 22 6 5 9 11 13 28 31 50 43 47 47 50 46 45 49 40 39 38 36 32 38 38 42 38 42 41 42 31 38 39
68 59 46 41 37 35 34 37 39 39 44 47 37 39 35 14 5 12 16 17 28 37 47 45 49 45 46 47 40 37 35 36 37 37 36 34 32 38 42 39 39 41 41 38 35
70 60 51 41 37 34 34 34 35 34 36 38 40 34 34 31 13 10 18 23 25 36 41 48 59 47 40 38 38 34 33 32 32 32 35 32 32 30 33 39 38 36 42 46 45
69 66 56 43 37 34 32 33 27 33 33 30 35 37 34 28 27 15 16 21 28 41 43 43 56 46 37 40 38 37 30 29 30 33 35 31 29 17 30 31 38 40 38 43 49
68 67 59 49 38 34 32 30 29 27 30 26 27 31 28 29 20 19 17 20 30 30 34 38 48 56 35 35 35 38 32 34 35 36 32 31 28 20 21 28 31 34 39 41 45
65 65 57 54 41 33 31 29 26 26 25 26 19 23 20 21 21 15 13 9 16 25 25 41 43 36 29 36 34 39 36 32 32 32 28 27 19 18 21 27 27 32 38 42 43
65 64 54 54 45 36 31 31 26 24 23 21 15 14 18 18 16 10 8 9 13 21 17 45 47 35 35 39 34 34 31 30 28 27 25 24 19 18 15 17 27 32 37 42 43
64 61 58 50 45 40 31 31 29 23 21 18 14 5 10 13 16 12 1 12 9 13 21 31 43 32 33 40 39 39 35 34 29 28 26 25 23 24 21 20 26 32 35 41 44
64 64 61 52 45 42 42 31 27 25 20 17 14 6 2 5 10 18 5 4 10 16 17 26 40 29 28 27 31 33 31 27 24 24 26 25 17 14 19 22 27 27 28 39 45
64 64 65 60 55 43 41 35 25 24 21 18 13 11 6 4 3 8 6 8 10 20 19 19 18 21 23 24 28 28 32 33 23 29 27 27 20 18 19 21 17 18 20 30 41
62 64 65 63 64 60 47 40 29 21 23 20 15 11 11 8 3 7 10 12 13 17 21 21 21 16 14 14 15 18 20 31 34 31 26 24 22 23 24 28 28 23 22 25 37
62 64 68 69 69 67 65 54 32 22 20 20 18 14 12 12 8 7 11 10 13 17 19 19 19 19 20 20 21 24 28 32 33 29 29 21 26 24 27 28 23 23 20 30 35
63 65 68 70 74 78 79 59 31 26 23 21 20 17 14 14 14 11 13 15 12 13 20 18 18 19 20 19 17 18 21 23 25 27 23 24 25 24 23 23 23 22 22 24 32
63 65 70 75 79 83 83 66 37 25 21 24 23 20 19 16 15 14 15 16 17 18 16 15 15 15 17 18 19 20 19 21 22 25 26 29 22 24 22 21 18 20 20 22 25

GFSSW_500_spd_084.txt.gz
Wind_Speed
85 86 81 70 59 53 49 49 51 51 50 47 48 45 48 45 45 46 49 51 57 58 55 50 67 61 60 58 59 60 59 54 47 43 47 59 58 58 54 55 58 55 52 49 47
86 85 77 65 54 50 51 54 57 62 57 37 29 35 46 56 48 46 46 48 50 56 60 53 62 65 58 58 59 61 58 50 46 42 43 59 54 62 58 56 59 59 55 51 49
85 85 74 60 52 49 51 52 63 67 56 26 22 24 20 48 58 53 47 46 49 51 56 56 53 68 61 61 59 59 55 48 44 40 44 61 61 59 61 60 62 60 59 54 52
85 84 72 57 46 47 52 56 64 68 66 21 16 21 20 22 40 53 53 49 47 54 51 56 58 67 64 63 60 58 55 50 45 42 43 55 67 63 60 52 59 58 61 58 53
83 82 73 56 43 48 51 57 65 67 71 31 11 16 18 19 20 36 50 52 48 50 50 49 58 57 68 60 58 58 56 51 48 45 43 51 60 66 63 50 61 61 59 60 53
81 80 72 54 40 46 49 54 61 66 67 52 16 16 17 18 17 17 41 49 47 48 54 45 52 56 69 60 58 57 56 53 51 47 41 46 55 64 66 58 62 60 57 57 57
79 78 74 56 40 44 49 53 57 64 64 61 23 14 15 17 13 10 26 36 49 48 52 41 52 58 62 62 57 56 57 54 51 48 42 42 53 56 64 68 56 55 55 57 57
77 76 72 54 42 44 49 50 55 60 64 63 40 16 17 18 16 12 17 34 42 48 45 50 46 58 57 67 56 55 56 54 50 48 43 41 45 51 62 63 63 54 53 54 59
76 76 69 58 44 42 47 49 51 56 63 61 51 23 12 13 12 9 15 26 31 42 41 38 38 46 62 65 61 54 55 53 49 47 44 38 43 47 52 62 62 62 56 53 55
76 77 70 58 48 42 43 48 48 52 59 59 55 37 15 10 8 9 13 24 34 32 37 30 36 42 55 55 65 64 57 52 48 45 42 38 41 45 49 56 55 55 59 53 56
73 76 71 57 48 44 39 44 50 47 56 57 53 49 21 7 7 7 9 25 37 34 32 36 41 38 49 56 53 55 54 51 46 42 42 40 39 43 49 56 55 58 62 49 54
69 73 71 63 52 45 42 41 45 48 49 54 50 50 34 6 5 7 7 19 37 39 41 43 39 33 44 40 50 55 51 44 42 40 40 39 39 42 45 53 49 52 49 60 51
67 69 72 67 52 46 44 43 43 45 46 48 48 47 44 18 2 6 7 12 41 39 42 41 39 37 47 48 49 55 49 43 41 40 39 37 40 39 43 51 57 48 54 49 41
66 69 71 67 52 46 44 41 42 40 43 43 44 44 43 30 5 4 4 12 33 37 37 38 40 40 47 37 38 51 45 37 39 39 36 33 41 38 42 46 48 43 45 44 52
65 68 68 63 54 47 44 42 39 41 40 37 39 41 42 38 21 2 0 8 22 26 40 41 40 43 44 32 34 43 46 38 39 40 38 34 33 38 43 43 41 38 36 44 56
64 66 69 66 55 47 42 41 37 37 37 32 34 35 38 37 28 8 5 7 13 25 33 41 41 46 41 34 32 36 46 43 37 37 37 34 29 27 35 39 40 38 39 35 40
62 66 70 67 55 49 44 40 38 33 35 34 30 30 32 33 29 18 6 12 20 24 38 42 46 44 43 33 33 31 32 43 38 38 40 34 32 25 29 33 37 39 35 35 39
60 65 69 67 55 46 50 45 37 33 30 32 25 25 26 26 26 20 8 22 19 19 34 34 48 40 39 39 33 31 28 34 40 41 38 33 33 25 24 32 29 31 35 36 31
61 65 68 66 55 52 50 44 38 30 28 26 26 20 23 22 21 20 10 8 24 22 28 33 44 42 40 39 37 34 30 30 30 35 36 33 33 22 22 21 28 30 28 32 37
61 63 66 67 61 59 45 49 40 30 26 23 21 20 19 19 19 16 12 8 14 26 28 31 44 40 32 36 35 34 31 29 28 32 34 33 31 24 23 27 31 30 30 32 35
60 62 65 68 67 66 60 55 36 33 24 19 15 16 17 14 17 11 8 9 13 25 20 26 43 43 19 26 26 31 35 31 28 27 28 29 29 24 23 27 27 29 34 36 36
59 61 63 67 69 70 65 63 56 36 30 19 12 10 14 11 10 7 5 3 10 16 13 33 38 36 22 26 32 31 32 33 31 29 28 27 26 20 18 25 27 24 25 28 33
58 58 62 66 70 74 73 71 70 44 30 23 15 10 11 8 5 3 5 5 11 13 14 33 38 29 22 32 38 32 30 32 32 30 27 26 26 23 14 17 25 26 23 16 23
59 59 63 67 72 77 84 83 78 48 23 20 20 12 10 8 5 5 4 0 9 17 15 24 27 32 21 22 21 27 27 26 27 27 25 27 23 22 22 23 20 25 25 26 26
58 59 62 69 73 79 88 88 82 52 22 17 17 13 12 10 8 13 17 13 10 12 15 19 21 27 21 18 19 23 26 29 33 33 34 25 29 22 25 24 25 26 29 28 25
57 57 63 69 75 82 87 90 86 51 22 15 14 15 18 13 12 14 17 18 16 16 16 17 22 20 19 23 24 23 25 28 28 27 33 30 28 26 27 26 23 27 27 28 28
55 58 62 71 75 81 85 90 81 57 23 15 18 15 19 19 15 14 17 18 17 17 18 18 18 18 19 20 20 19 19 22 25 28 29 31 28 30 26 23 26 26 27 26 25

GFSSW_500_spd_087.txt.gz
Wind_Speed
73 76 79 84 78 59 52 46 46 53 60 64 62 23 33 50 48 44 44 46 57 62 58 61 65 61 57 57 58 58 61 60 53 49 39 41 41 46 54 56 52 54 49 48 47
73 75 80 82 74 60 50 45 48 55 63 66 70 19 21 24 51 51 48 46 48 58 63 58 63 61 55 59 64 57 61 60 54 49 46 46 45 46 55 57 57 53 53 49 48
72 77 79 81 76 56 48 45 49 55 61 67 71 32 20 20 25 48 50 49 45 48 59 61 60 60 52 56 63 64 62 60 56 52 51 49 48 47 59 62 60 57 54 52 50
71 76 79 79 72 58 49 48 50 52 58 67 68 50 18 24 21 21 53 54 48 46 49 51 59 56 50 51 64 64 64 60 56 55 54 52 47 46 58 60 60 60 55 55 51
69 73 77 76 71 61 49 48 49 50 55 63 67 58 19 16 17 18 28 55 54 46 51 50 54 59 51 50 66 69 60 58 57 55 53 52 47 47 56 59 62 60 58 54 56
68 71 75 78 74 56 48 44 48 52 53 59 64 59 27 18 18 15 18 43 58 47 43 50 49 52 47 50 64 62 61 59 57 57 55 51 47 46 55 65 61 61 59 55 52
66 70 74 76 73 61 49 43 46 51 52 56 58 57 35 15 19 14 14 26 53 55 46 42 50 46 44 48 56 66 61 57 57 57 55 50 47 42 54 66 63 62 64 59 55
65 69 73 76 69 62 52 46 46 49 51 54 54 56 43 22 11 10 13 13 32 54 49 44 47 41 44 51 59 62 62 58 56 56 56 49 43 40 46 65 69 57 59 58 55
63 67 72 76 68 63 54 47 47 48 49 51 51 53 45 29 10 7 11 11 31 38 46 45 45 42 41 50 56 64 64 62 56 54 53 49 43 41 40 55 68 63 54 58 55
63 67 72 74 69 65 52 48 48 49 47 48 48 48 48 36 10 5 8 13 35 29 40 43 44 41 45 50 54 50 63 59 53 51 51 47 44 41 40 47 60 67 62 54 55
62 66 70 72 71 63 54 50 49 47 46 45 45 45 47 43 13 6 5 13 24 28 36 41 39 41 39 29 35 52 54 59 51 49 47 45 42 38 39 41 53 63 66 60 53
61 65 68 72 70 65 55 50 48 44 43 44 43 43 41 43 20 6 6 6 23 33 36 42 33 35 48 34 33 50 54 56 49 45 44 42 38 37 38 40 47 53 61 62 59
61 64 67 71 70 65 53 52 48 45 41 42 41 40 39 37 29 8 5 9 23 36 34 38 36 34 37 45 35 44 49 52 45 43 42 37 36 37 36 38 44 49 53 60 59
60 63 66 70 69 66 54 54 49 45 40 39 38 37 37 35 26 13 6 5 22 34 39 36 35 37 41 32 44 39 46 50 43 43 43 38 35 34 34 35 38 42 49 52 54
59 63 64 68 70 65 63 54 53 47 39 38 36 35 36 34 34 17 10 10 13 33 39 35 38 37 42 31 32 31 40 44 44 41 41 39 36 30 32 31 37 37 42 48 41
58 62 63 66 68 69 64 59 56 46 39 33 32 32 35 32 30 18 14 11 12 23 32 34 35 34 44 39 29 26 32 38 39 42 45 38 35 26 31 34 30 34 36 41 35
57 60 63 65 68 69 69 63 55 47 41 33 27 26 32 31 27 17 14 16 11 21 20 32 39 38 44 34 25 31 33 38 39 41 44 37 34 23 25 28 33 34 35 36 34
56 60 61 65 68 71 73 69 64 57 41 29 26 23 25 28 23 18 12 10 7 18 14 33 37 39 47 29 29 31 30 32 42 41 40 35 36 28 24 19 24 28 33 36 32
55 59 60 63 67 73 74 74 71 62 41 27 22 19 19 21 22 16 7 15 9 10 18 33 34 47 40 30 27 26 25 25 32 37 34 32 35 25 21 25 23 25 24 30 35
54 57 59 61 66 72 77 77 75 69 38 28 18 15 13 14 14 17 11 3 15 13 13 24 32 40 34 40 29 32 24 24 23 33 34 30 32 25 21 26 25 23 24 25 26
54 57 59 60 65 71 78 81 77 73 44 23 14 14 10 9 10 8 11 10 14 16 14 15 38 32 35 37 33 29 25 23 24 27 29 28 34 23 24 27 28 27 25 24 23
52 57 59 60 65 71 77 83 85 77 48 21 7 10 8 5 7 5 8 4 10 18 17 10 30 31 31 34 29 24 26 24 23 23 23 24 26 25 24 29 30 31 28 24 22
50 54 59 61 66 72 75 82 84 84 50 17 4 5 8 3 2 6 2 8 13 15 10 11 32 31 24 27 28 30 28 28 26 25 24 23 23 20 20 22 23 29 26 23 21
49 54 58 59 65 69 73 79 83 80 50 11 4 4 8 2 3 8 1 6 9 7 8 15 27 32 20 20 28 25 23 22 25 26 24 21 15 17 21 25 27 23 27 29 33
49 52 54 57 63 67 73 78 83 77 60 21 11 15 5 7 7 7 8 6 12 13 5 19 20 29 24 18 19 22 24 24 25 25 27 23 21 17 20 30 23 23 28 30 33
47 50 53 55 61 66 72 77 83 74 64 30 14 25 9 13 12 11 13 7 10 9 12 17 25 31 24 16 20 19 22 24 28 26 27 26 23 24 24 27 26 26 29 29 31
46 47 49 53 58 64 69 76 79 71 64 32 10 23 13 15 13 12 14 15 14 13 13 15 19 26 30 21 20 20 21 23 24 24 28 28 24 31 26 26 27 27 29 29 29

GFSSW_500_spd_090.txt.gz
Wind_Speed
54 58 63 68 72 77 71 60 49 43 44 49 53 60 59 27 21 45 44 46 47 58 59 50 65 59 59 59 57 58 60 57 59 59 52 54 52 48 48 48 50 48 51 46 47
54 58 63 68 74 76 70 60 51 46 47 49 51 57 57 41 18 26 46 44 44 48 60 59 61 64 62 60 59 63 57 52 54 58 61 59 53 49 48 49 49 49 48 49 48
54 57 62 68 73 75 64 60 51 45 47 49 49 54 55 42 16 16 35 48 44 44 52 62 52 62 64 61 62 62 52 51 58 64 64 60 57 52 48 48 49 51 50 50 50
53 57 63 67 72 75 69 57 51 48 48 45 48 51 51 42 19 16 19 43 47 45 45 58 63 53 60 62 65 58 53 62 58 60 64 62 55 52 48 44 48 54 54 53 51
52 57 62 66 72 74 70 57 52 48 47 45 46 47 49 41 24 17 15 16 48 49 44 42 58 51 53 61 63 59 52 62 59 59 63 62 57 53 49 46 43 50 56 56 54
51 55 61 66 71 74 74 60 52 48 46 44 44 45 45 35 36 17 17 16 30 50 45 41 49 60 51 45 53 56 56 58 62 60 60 60 54 57 49 47 45 44 55 60 58
51 55 60 66 70 74 73 60 52 51 46 43 43 44 42 37 33 15 15 16 20 46 51 49 37 49 57 52 45 52 53 57 60 61 60 59 56 53 53 50 47 44 50 59 61
51 55 59 64 69 72 73 61 53 51 49 43 42 43 42 39 32 12 15 17 14 34 52 49 47 43 47 53 46 45 50 57 54 64 62 58 52 55 52 51 48 44 49 58 61
49 54 58 64 68 72 72 63 57 53 48 43 41 41 42 41 29 18 12 16 14 27 49 53 44 46 41 44 52 49 51 54 56 64 60 57 52 52 51 49 47 45 51 58 63
48 54 59 63 67 71 72 65 58 55 50 42 40 41 43 41 32 15 10 11 11 28 42 52 45 43 45 37 42 57 46 53 60 57 60 56 53 48 49 47 46 43 47 63 61
48 53 58 63 66 70 73 67 58 56 49 39 40 39 40 41 34 16 9 8 11 23 33 47 47 43 46 35 35 44 45 43 54 60 61 55 50 48 47 48 44 40 38 59 66
47 52 57 60 64 69 72 70 59 58 50 38 36 36 39 40 35 15 9 6 10 23 30 43 43 39 44 44 39 41 41 45 53 57 54 51 49 44 47 46 44 39 36 50 68
46 51 56 58 62 69 74 75 69 58 52 38 33 32 37 40 35 16 8 9 9 21 31 42 45 41 40 38 41 40 42 46 46 49 53 49 45 43 45 46 42 40 37 42 56
44 49 56 58 61 68 74 77 75 62 51 44 32 31 34 36 35 16 10 6 5 24 28 40 39 42 39 36 30 35 44 44 46 45 46 44 42 39 39 42 41 38 39 41 48
43 48 54 60 62 67 72 78 78 66 47 45 32 27 30 32 34 20 10 8 7 26 34 38 37 41 48 36 25 23 35 37 37 44 44 45 41 39 39 39 40 38 37 40 45
43 48 54 59 61 65 72 77 78 70 48 36 27 23 25 28 28 18 14 9 10 27 34 39 39 40 48 39 22 23 26 31 28 40 44 43 47 42 37 36 36 35 31 35 39
42 47 51 57 61 64 70 74 79 73 58 38 26 17 20 22 23 12 15 13 16 24 33 36 35 41 38 41 32 27 28 35 38 36 43 44 44 40 38 36 33 30 31 34 38
41 45 50 55 60 64 69 74 80 79 60 37 22 12 13 15 17 16 8 12 11 20 20 32 32 39 42 41 31 36 30 33 39 43 40 41 41 40 34 33 28 25 31 30 33
41 44 48 54 58 63 69 75 79 82 68 35 16 5 9 11 17 14 4 3 7 14 13 25 31 38 42 42 19 38 28 27 31 34 36 37 40 34 30 28 23 22 23 31 34
40 43 46 53 56 61 68 75 79 81 69 33 11 1 8 9 10 13 10 3 4 8 13 27 31 35 42 35 37 37 27 27 29 30 31 30 34 29 27 27 27 23 20 21 26
38 41 46 52 55 60 67 73 78 82 70 32 10 4 10 9 9 11 12 7 12 11 13 22 30 31 41 27 41 31 26 27 25 26 28 30 30 26 24 27 25 23 22 18 21
38 41 45 50 55 59 65 71 77 79 68 28 7 8 5 5 8 15 9 9 14 11 12 9 8 34 33 34 31 29 24 19 20 19 25 27 26 22 24 28 28 27 26 23 19
37 39 44 49 55 58 64 69 74 78 71 35 7 12 5 4 7 11 7 4 12 10 6 4 15 33 33 28 24 30 20 18 18 19 21 21 21 18 25 27 29 31 30 27 23
36 39 42 48 53 56 62 66 72 76 69 38 7 12 6 6 8 10 9 9 13 11 7 10 28 26 27 26 23 19 15 17 20 20 19 17 14 16 20 29 32 33 31 29 24
36 37 41 45 50 53 59 62 67 73 70 40 11 14 8 7 11 12 10 13 9 10 9 17 21 27 25 24 26 21 21 17 19 21 21 19 18 21 26 28 32 31 29 24 25
37 36 39 42 47 52 56 58 62 70 66 45 16 13 9 7 11 12 16 12 10 7 4 9 19 26 23 14 16 22 23 21 21 19 17 19 19 23 27 24 26 29 28 27 26
34 33 36 41 44 49 52 54 58 65 63 46 10 19 15 9 9 11 12 13 18 12 10 10 18 28 28 20 16 17 17 19 21 23 24 20 20 24 23 23 22 25 31 27 28

GFSSW_500_spd_093.txt.gz
Wind_Speed
40 43 47 53 57 61 66 66 61 54 53 46 43 42 41 44 44 43 17 44 45 44 50 52 66 65 58 62 63 61 65 63 61 58 53 58 61 58 59 57 56 52 55 46 47
40 42 47 52 56 60 66 68 59 57 52 49 45 40 39 41 43 38 21 29 46 43 47 57 57 64 61 60 64 60 61 57 51 55 51 48 60 60 57 57 57 55 51 54 48
38 42 45 51 56 62 66 68 63 56 55 51 45 40 39 39 41 35 24 16 46 45 42 53 52 66 60 63 65 65 53 45 56 50 54 55 59 61 58 57 55 57 57 50 52
36 41 46 50 56 62 67 70 63 59 56 52 46 41 39 38 37 34 20 18 35 43 43 46 59 58 64 63 64 64 60 61 57 54 60 54 56 61 60 57 57 55 54 52 48
35 41 45 51 56 61 66 70 63 62 58 52 46 41 38 37 37 35 22 16 22 46 40 43 50 53 60 54 64 64 60 64 57 55 48 57 53 61 61 59 59 54 51 51 47
34 40 45 51 56 60 66 69 67 64 58 52 47 41 38 37 37 35 23 17 20 37 47 44 43 56 49 62 60 66 67 61 63 62 52 48 62 65 64 63 57 53 51 50 48
34 39 46 51 54 59 64 70 70 65 60 51 45 42 37 37 38 38 26 18 21 25 41 42 43 49 62 51 57 69 72 65 64 64 67 60 64 63 63 63 56 54 52 51 49
35 40 45 52 54 59 64 70 72 67 62 52 42 41 36 36 39 39 25 15 20 22 39 47 34 37 53 53 52 58 64 69 58 63 64 58 60 63 62 62 58 54 50 47 46
35 40 46 51 55 60 65 69 72 70 62 51 39 39 36 35 39 38 22 11 17 21 34 50 49 29 43 57 47 54 55 59 57 51 64 61 52 51 59 62 57 54 49 46 45
35 39 44 51 54 57 64 69 73 72 65 52 39 37 33 36 39 38 19 11 12 19 24 51 58 37 39 51 53 48 46 52 56 55 51 61 55 52 56 61 57 54 51 47 45
34 39 44 49 52 57 63 69 74 73 66 49 40 32 32 35 38 36 19 10 9 13 23 49 58 54 36 36 49 53 43 40 48 49 50 54 55 52 53 55 54 53 50 46 41
34 39 44 47 51 57 65 70 75 79 65 42 39 30 30 32 36 32 17 8 7 9 14 43 52 47 42 35 37 42 49 40 36 44 50 44 56 51 54 53 53 52 50 45 41
34 38 42 46 51 57 64 70 75 79 70 44 37 27 27 30 34 26 15 10 11 11 18 37 46 44 40 40 34 41 40 48 37 36 44 39 44 56 52 51 52 52 48 44 42
34 37 41 46 50 56 62 70 76 80 69 57 35 25 23 27 32 22 16 12 9 10 24 35 44 42 44 48 31 36 36 40 41 41 43 51 40 49 51 51 50 49 45 43 42
33 35 40 46 51 55 63 69 76 80 60 56 36 20 19 25 28 22 18 10 3 14 22 33 44 41 39 42 29 31 32 37 38 39 38 45 48 42 44 47 48 44 45 45 43
33 34 38 45 50 55 61 69 76 79 61 46 33 14 14 21 24 18 18 10 8 19 19 37 42 38 34 37 36 27 27 27 28 34 33 36 46 41 43 45 44 44 44 43 43
31 34 37 43 49 56 60 68 74 79 74 55 28 7 11 21 23 13 15 10 9 14 19 35 36 37 36 37 34 25 25 31 34 33 32 32 44 48 43 46 43 41 40 43 43
28 32 36 42 48 54 59 66 72 79 78 52 18 6 9 13 21 15 13 8 5 11 28 32 26 37 36 39 34 29 29 29 31 29 32 37 41 46 47 38 37 35 38 39 39
26 31 35 40 47 52 58 65 70 78 80 44 13 7 10 16 15 16 10 10 10 19 26 27 25 36 30 41 29 28 28 32 34 29 26 35 41 41 45 38 36 32 30 30 33
25 30 34 39 45 50 57 62 68 75 77 44 11 10 13 10 12 18 9 9 9 9 11 20 24 29 32 37 31 27 27 29 26 32 29 26 37 35 36 38 35 32 30 27 23
26 28 33 38 43 48 54 59 65 72 76 47 10 11 9 8 13 20 13 15 9 9 7 12 17 29 37 37 25 28 29 24 24 22 18 21 27 32 26 29 31 28 25 21 19
26 29 32 35 42 47 52 56 62 68 73 51 10 8 8 7 13 16 12 16 14 13 13 9 14 24 37 40 26 34 28 22 21 18 20 18 24 23 27 28 27 28 25 22 20
26 28 29 34 41 45 50 54 58 64 69 55 10 5 6 7 11 11 10 13 15 13 12 8 10 17 24 26 24 34 26 20 22 17 16 16 20 20 26 30 28 26 25 26 25
25 29 30 34 39 43 46 49 54 59 65 56 17 7 7 7 8 8 9 10 11 11 9 14 11 15 24 22 28 24 15 14 16 16 16 15 15 18 24 31 30 31 31 29 27
25 28 30 34 36 40 43 47 52 56 60 57 27 5 8 7 5 7 7 15 15 12 14 13 11 25 24 19 17 26 17 15 14 14 15 17 18 22 25 25 31 33 32 31 30
26 29 29 32 34 38 40 44 48 53 57 54 30 6 10 8 5 5 10 7 10 14 11 16 18 16 24 18 17 19 14 14 11 13 14 16 17 20 23 27 28 30 33 31 28
24 28 30 30 32 34 38 41 45 49 53 54 32 6 11 9 7 7 3 5 8 8 7 7 12 20 20 14 13 13 15 15 16 15 14 14 19 22 21 22 23 25 27 28 28

GFSSW_500_spd_096.txt.gz
Wind_Speed
38 36 35 38 44 47 51 55 62 66 68 63 59 53 50 44 38 38 37 38 24 33 40 52 59 60 62 63 69 64 70 57 69 64 58 54 58 56 61 58 52 53 51 51 44
35 33 35 39 43 47 51 56 62 66 69 64 60 52 48 42 36 36 36 36 22 35 38 43 62 54 61 60 67 68 70 64 60 58 55 51 49 59 60 62 54 53 51 50 46
33 32 34 40 44 48 51 56 61 66 69 67 62 53 46 40 34 34 33 34 19 29 40 40 55 48 65 59 64 69 63 57 62 57 58 52 51 49 60 59 55 53 53 48 50
30 31 35 40 45 48 52 56 61 66 70 68 65 52 43 38 35 31 32 32 19 20 42 38 37 47 67 57 62 63 58 63 62 62 57 58 41 52 63 57 57 56 57 51 46
30 32 36 40 44 48 53 57 62 68 70 68 65 51 40 38 33 31 31 33 20 18 38 41 40 52 48 58 57 54 65 63 61 65 65 50 63 45 56 51 59 61 57 56 53
31 35 37 40 45 48 53 58 63 69 71 68 67 49 39 36 32 31 32 31 19 21 34 40 41 44 39 58 53 61 69 68 64 63 69 57 51 48 37 51 56 62 59 57 55
33 35 37 40 45 48 54 58 65 70 71 70 67 46 38 35 29 31 33 30 16 20 31 39 43 32 47 50 51 62 66 72 63 58 55 61 61 46 60 50 57 61 59 58 55
32 36 38 41 45 48 54 60 65 70 72 73 63 47 37 32 29 33 36 25 13 19 26 39 41 41 29 44 58 49 69 71 66 66 54 46 67 57 43 45 58 63 59 57 52
33 38 39 42 45 48 53 60 67 70 71 76 59 45 37 28 29 34 35 23 10 17 23 40 42 48 38 42 49 42 60 70 70 68 50 53 56 71 63 33 50 63 59 57 53
33 38 38 40 44 48 53 60 67 71 70 74 56 47 36 26 30 34 32 20 7 10 23 36 43 48 46 39 50 52 57 69 66 64 65 59 53 54 69 60 54 59 59 59 55
29 33 37 39 42 48 53 60 66 72 76 71 56 38 28 25 30 35 27 15 6 7 18 26 47 40 41 44 46 43 51 53 68 68 55 53 55 60 49 59 62 57 57 58 54
27 33 36 37 41 47 53 60 67 75 76 63 44 35 24 24 30 34 25 14 6 6 12 24 51 41 40 40 50 46 40 45 52 65 61 53 54 57 52 51 56 56 55 56 52
26 33 34 36 40 46 52 60 67 76 79 64 51 29 19 24 30 31 26 21 10 10 12 16 50 48 37 43 41 47 43 37 33 44 45 53 50 43 51 54 46 60 56 57 54
29 33 33 34 39 45 51 58 67 77 78 69 45 23 17 26 29 28 28 20 10 5 10 16 50 57 34 40 45 41 49 37 28 28 28 42 42 42 42 54 49 57 60 59 52
28 31 32 33 38 44 50 57 66 75 70 72 42 16 18 25 29 24 25 20 10 7 11 17 44 45 39 37 34 37 44 36 35 29 38 29 36 38 28 49 51 48 52 51 53
27 29 30 32 37 43 49 56 64 72 67 59 37 11 13 22 27 21 20 17 12 19 12 16 37 37 38 31 31 37 33 32 36 31 32 30 26 23 31 42 48 49 45 49 49
25 26 29 32 37 42 47 54 62 68 76 65 26 12 13 22 29 17 17 13 8 9 15 22 36 35 32 29 28 36 37 30 27 40 38 34 30 34 37 32 44 44 45 44 44
23 26 27 31 35 40 46 53 59 66 71 67 20 12 13 20 23 19 16 10 8 5 18 34 32 30 26 30 27 25 34 33 27 35 33 27 27 29 41 39 42 49 49 49 47
20 25 26 29 32 38 45 51 56 63 68 66 25 9 12 18 23 16 12 14 12 13 22 27 26 28 24 27 29 23 27 27 29 24 26 29 29 31 37 40 41 42 42 40 38
18 25 25 25 31 36 42 48 54 60 66 63 20 11 14 18 24 17 8 13 14 17 16 13 21 27 26 29 28 28 28 22 25 25 20 25 28 28 32 36 32 37 34 32 34
19 22 24 24 29 35 41 46 51 57 63 59 26 10 11 15 19 18 5 8 12 9 7 6 10 23 23 34 28 25 33 21 29 26 26 19 13 24 30 33 33 28 27 27 26
18 23 24 24 28 34 39 43 48 54 59 61 24 8 7 14 19 18 10 11 14 16 12 5 5 18 17 30 27 28 24 23 20 20 18 14 16 17 21 25 33 33 25 23 27
18 22 23 23 27 33 38 40 45 50 56 59 31 5 6 11 17 20 15 17 16 17 15 5 2 12 24 29 27 16 21 19 18 17 17 9 10 17 28 28 27 27 32 31 26
16 19 22 23 26 31 35 37 42 48 53 56 38 4 6 11 15 16 11 9 12 15 10 10 7 6 20 26 22 14 20 17 17 11 14 8 19 18 22 26 29 27 29 29 28
15 17 21 25 24 29 32 33 39 43 49 53 43 12 2 7 11 10 13 10 10 12 12 11 7 6 12 18 21 12 17 15 10 18 13 12 12 23 25 27 28 31 27 29 29
13 16 21 23 24 27 28 32 36 40 47 49 44 23 2 4 7 9 9 12 13 8 10 11 7 10 15 11 12 19 11 9 10 11 12 14 16 19 24 24 27 32 29 27 27
13 15 19 20 22 25 27 30 34 37 42 47 45 20 5 3 3 1 5 6 10 10 9 7 11 12 13 11 9 15 11 8 8 9 8 11 18 18 18 20 24 25 26 29 28

GFSSW_500_spd_099.txt.gz
Wind_Speed
32 33 33 34 37 40 43 46 49 54 59 64 65 66 68 53 44 38 37 34 32 32 21 11 43 57 62 62 65 67 74 61 70 75 51 57 54 52 54 59 55 54 57 50 47
32 31 32 34 37 41 43 47 50 56 61 67 68 68 68 52 40 36 35 32 30 29 16 19 37 54 54 62 65 68 78 32 69 68 62 57 60 51 62 59 53 55 48 55 48
31 31 32 35 38 43 45 47 52 58 63 67 70 71 66 48 41 37 31 29 27 28 14 27 31 48 43 64 65 68 74 62 53 67 70 59 61 64 47 57 59 52 57 48 51
30 30 34 36 40 43 46 48 52 58 64 68 70 70 61 46 35 34 28 26 26 27 15 35 28 40 41 64 65 67 70 78 46 63 68 65 61 66 66 51 56 56 47 49 49
30 31 35 35 40 44 46 49 52 59 64 69 72 67 55 45 33 30 25 25 27 24 15 39 33 37 48 52 63 67 72 69 77 64 61 61 63 46 50 61 62 61 57 48 49
29 31 33 37 42 45 45 48 53 59 66 71 72 67 51 37 32 22 23 26 29 21 16 34 31 23 46 41 67 66 70 70 69 61 53 65 69 62 52 46 61 60 58 57 49
29 31 34 40 42 44 44 48 54 60 67 72 70 61 49 36 23 20 23 29 29 20 19 35 43 32 29 40 64 66 65 73 64 60 48 54 63 61 58 59 61 63 60 58 54
29 31 36 39 40 42 44 47 54 61 69 72 68 54 45 31 18 22 26 31 26 19 21 32 45 44 21 29 56 60 63 68 63 63 54 58 60 62 52 52 50 61 62 59 56
30 33 34 36 39 39 43 47 54 63 70 71 68 59 43 21 19 24 32 29 24 15 20 26 42 42 31 35 46 63 65 63 66 66 58 55 58 59 63 41 44 47 67 58 60
30 30 32 36 38 38 42 46 55 63 70 71 68 60 36 19 22 29 31 26 19 9 13 27 42 46 34 25 42 57 58 60 60 57 64 59 71 41 73 67 52 45 52 58 57
28 27 31 37 38 38 41 46 53 61 71 74 68 47 23 18 26 32 29 25 15 7 11 25 43 51 43 22 40 49 51 57 56 58 63 56 67 56 60 44 55 42 53 49 49
26 26 32 38 36 37 40 46 53 62 69 71 62 30 20 21 29 30 30 24 14 7 6 24 42 55 48 33 35 46 51 34 56 58 61 59 54 38 64 55 49 51 43 62 59
24 27 31 35 34 35 39 45 52 61 69 68 59 35 23 27 29 27 29 25 16 10 11 15 38 50 48 36 31 42 54 38 40 58 61 65 57 49 47 66 59 57 46 39 53
24 26 30 33 31 34 38 43 52 60 66 69 59 34 23 28 30 28 28 23 14 3 10 13 38 44 47 36 30 36 34 40 42 40 51 58 64 54 48 51 65 63 60 50 42
23 26 29 29 30 32 37 43 51 59 64 70 66 37 23 26 33 28 24 17 14 14 7 8 40 40 37 33 34 37 36 32 36 32 34 44 42 52 45 40 43 44 47 52 54
21 23 27 27 28 30 35 41 50 59 59 66 62 25 22 26 31 22 18 15 19 14 14 19 42 39 35 37 35 40 32 30 27 23 27 29 29 37 46 36 36 38 46 46 52
19 21 24 25 25 28 34 40 48 54 62 70 57 25 23 26 29 20 17 9 7 13 13 20 25 28 23 37 30 42 33 37 32 24 31 27 26 21 35 39 33 40 40 46 43
16 17 21 24 23 28 32 38 46 52 60 68 54 22 20 28 29 19 19 9 3 12 15 22 25 25 23 31 27 30 34 39 31 28 30 25 24 17 20 37 35 35 43 46 42
12 14 20 22 21 26 31 36 42 49 57 65 48 22 22 28 30 16 18 16 10 18 15 22 23 22 22 34 35 33 33 32 39 30 22 26 27 22 20 30 33 32 43 49 44
10 13 17 19 19 24 28 33 40 46 54 60 50 21 21 28 28 16 16 17 16 17 17 21 19 14 19 22 30 39 29 32 27 26 31 29 26 25 21 26 33 34 42 40 40
9 11 15 16 17 21 25 31 38 44 51 57 50 24 19 26 28 18 11 13 13 17 9 16 16 14 10 19 19 28 30 20 29 23 19 26 29 27 26 24 27 35 35 46 39
6 10 13 13 15 19 24 31 35 42 48 53 50 28 20 23 24 23 15 13 10 14 12 8 12 16 14 21 20 25 24 18 26 25 24 23 20 16 18 24 22 32 27 32 31
3 8 12 13 13 18 23 29 32 39 45 52 51 34 17 20 22 16 16 16 18 14 13 12 11 16 21 24 21 18 24 19 21 20 24 20 17 17 18 27 27 27 30 32 32
2 5 10 12 12 17 22 27 29 37 43 49 50 36 16 17 17 16 12 12 13 14 14 14 10 12 17 21 17 17 13 17 17 18 18 11 20 21 28 26 30 35 32 30 30
2 4 9 9 11 15 21 25 27 33 40 46 48 41 20 13 14 15 13 9 13 13 11 9 6 4 10 14 17 16 6 19 16 12 13 9 15 18 24 31 29 27 32 38 34
3 2 7 8 10 14 19 22 25 29 38 42 44 42 24 10 8 14 13 10 12 9 7 7 5 4 3 11 14 14 9 14 12 16 15 14 14 18 18 24 29 35 29 31 34
3 2 6 9 10 13 17 20 23 27 34 39 42 41 27 13 6 7 8 9 8 8 4 5 1 4 8 9 5 15 13 9 8 14 15 17 17 14 19 24 27 28 31 30 29

GFSSW_500_spd_102.txt.gz
Wind_Speed
33 32 34 31 33 35 38 41 45 48 49 52 58 63 68 68 67 60 54 42 38 33 30 30 33 42 51 59 66 70 72 80 49 62 58 64 65 58 60 68 66 64 62 57 58
33 32 33 34 34 37 39 42 45 47 48 54 59 66 69 69 59 62 45 38 34 28 28 25 25 25 34 51 68 72 74 63 51 73 57 62 65 61 59 63 68 68 62 59 59
32 34 33 34 35 37 39 42 45 47 49 55 63 69 71 66 63 53 41 34 27 24 24 23 19 24 38 49 61 64 72 75 76 56 52 61 70 63 54 54 53 53 66 54 59
34 33 35 34 34 36 43 45 45 47 50 58 64 70 73 63 55 44 39 27 22 22 24 24 29 23 37 47 60 50 68 70 59 69 74 54 65 65 55 56 52 54 54 57 52
33 35 34 35 34 39 43 45 44 47 52 60 67 71 72 65 47 46 23 20 21 23 26 22 36 26 37 45 45 61 70 81 64 51 64 71 56 67 57 58 58 56 56 57 56
33 36 33 35 36 39 42 43 44 47 53 59 69 74 69 55 46 23 16 20 22 26 24 22 29 28 34 33 24 66 72 84 86 49 69 61 65 63 68 45 62 60 54 52 56
33 34 33 35 36 37 42 42 43 48 54 60 69 72 64 48 30 16 19 23 28 27 26 22 28 27 35 40 24 62 71 78 71 48 45 74 80 56 70 66 52 61 66 59 51
34 33 32 34 34 36 41 41 43 48 55 63 67 70 55 40 20 20 23 29 30 27 24 18 29 34 35 22 31 53 70 76 69 72 56 63 59 73 49 69 59 55 59 63 58
32 31 30 32 33 36 40 40 42 47 55 65 69 67 49 33 23 25 31 33 30 24 16 17 34 44 34 26 30 45 66 75 71 77 63 47 55 51 70 60 70 69 62 60 59
29 29 29 30 33 36 37 38 41 48 56 64 67 59 42 28 28 32 33 32 24 16 10 19 31 42 34 31 37 39 64 72 65 65 60 47 51 47 67 71 51 56 59 66 61
29 28 28 29 32 34 35 36 40 48 57 62 64 47 37 28 31 32 32 30 20 10 8 13 32 41 35 31 34 39 56 62 63 73 62 52 47 44 65 66 64 54 50 57 60
29 26 27 27 30 32 33 34 40 47 56 62 58 46 38 29 35 35 30 27 19 9 8 12 31 41 38 23 33 42 49 55 56 53 57 65 47 52 61 64 66 53 48 63 61
27 25 25 25 28 29 31 33 40 47 54 62 61 46 39 33 36 30 23 24 22 6 10 9 27 45 48 22 24 35 50 53 48 47 44 55 54 57 55 65 54 49 39 65 54
26 23 21 23 24 27 27 31 38 46 54 60 55 44 37 34 35 29 19 22 19 9 7 8 32 53 44 25 24 33 44 36 36 43 43 48 59 68 43 62 63 52 43 43 49
16 16 17 20 23 23 26 31 37 44 52 58 57 56 36 35 34 27 16 21 18 12 6 6 35 46 40 28 19 30 37 40 33 40 46 40 60 56 44 43 50 56 45 45 46
14 14 16 15 21 20 23 29 34 43 48 55 59 44 34 36 35 26 16 15 20 13 18 13 34 27 31 31 23 26 36 35 27 22 30 43 54 58 50 45 44 40 50 43 33
14 14 13 11 18 16 22 26 32 39 47 56 58 44 38 36 32 25 14 13 17 24 21 21 30 25 29 27 19 28 29 29 27 27 24 21 37 50 52 48 35 34 39 51 44
15 13 10 10 14 14 19 24 29 36 44 54 59 47 35 34 26 22 14 15 15 15 20 19 33 22 20 21 20 26 27 27 27 25 20 21 19 26 42 44 40 34 31 28 35
16 13 10 9 10 12 16 21 27 35 43 51 57 41 34 33 23 20 18 16 15 10 17 16 16 33 31 26 29 27 29 23 35 27 22 23 24 18 18 26 34 33 35 30 36
19 11 5 6 7 10 14 19 26 33 41 49 55 41 33 31 22 17 18 19 17 14 14 17 18 25 21 27 31 32 34 34 26 20 27 23 20 19 15 14 29 35 34 32 34
19 11 3 3 4 8 12 17 24 31 38 47 52 41 30 30 26 13 12 17 18 16 13 10 11 15 20 22 21 20 21 26 25 25 21 13 21 18 21 17 22 29 36 40 33
18 11 4 2 1 6 10 16 22 29 35 45 48 44 28 28 26 15 12 14 17 13 11 8 4 6 13 22 33 24 27 25 21 23 24 22 21 22 23 24 28 34 34 34 36
18 11 6 3 2 4 9 15 21 26 32 42 45 44 26 24 23 20 18 17 13 10 8 9 5 5 7 15 31 21 17 19 26 27 25 22 22 24 25 27 28 25 37 39 36
19 11 6 4 3 3 8 14 19 23 29 38 43 43 27 19 21 17 16 19 20 18 9 10 6 6 6 11 20 23 17 14 15 20 21 22 27 28 27 28 27 32 33 37 38
19 12 8 6 5 3 7 13 16 21 26 34 40 41 31 15 16 17 14 17 15 19 11 9 12 11 9 10 9 12 7 13 17 17 17 18 15 30 25 27 27 29 28 34 33
20 13 10 7 6 4 7 12 13 18 24 30 36 38 36 19 10 13 13 11 10 11 11 9 9 12 14 13 13 11 5 15 17 16 15 7 15 14 25 30 31 34 33 31 31
18 15 11 7 7 4 7 10 11 16 22 27 32 34 33 25 9 7 10 10 9 7 7 6 6 4 4 9 12 13 10 13 14 15 17 15 15 17 18 30 31 34 35 32 32

GFSSW_500_spd_105.txt.gz
Wind_Speed
35 35 36 36 36 36 36 36 37 41 45 47 47 50 56 61 68 72 72 66 60 55 42 37 35 39 44 50 54 52 61 67 74 84 45 63 73 68 61 64 68 67 66 59 54
34 35 35 35 38 35 37 36 38 44 45 47 48 52 59 64 70 73 70 61 55 46 35 29 29 32 37 43 53 59 62 56 67 73 61 63 68 66 65 72 68 71 68 62 57
33 33 34 35 37 35 38 37 40 43 46 47 49 54 59 70 73 72 62 53 45 32 21 20 25 28 31 38 49 59 63 56 60 73 80 46 69 66 69 71 75 72 70 67 60
34 31 36 37 36 34 35 38 41 42 45 47 50 56 62 70 72 64 56 42 28 23 21 23 27 29 29 31 37 41 65 61 58 72 74 57 57 66 72 67 64 67 70 69 64
32 31 33 36 34 35 35 38 39 43 45 47 51 57 66 69 67 57 42 28 22 22 25 27 29 26 28 32 33 35 42 62 63 78 66 57 44 68 72 61 58 60 66 69 64
29 30 32 33 32 34 34 37 39 43 44 47 53 60 67 69 61 47 33 25 25 27 30 33 29 26 29 33 43 37 45 57 71 72 79 51 39 76 77 69 57 57 63 68 72
31 30 31 31 31 31 32 36 40 41 44 48 55 63 67 65 53 40 31 30 30 33 34 32 29 27 28 31 34 37 59 46 73 74 63 48 34 66 72 67 55 61 60 67 72
35 28 31 32 28 30 32 36 40 41 44 49 57 63 65 59 46 36 32 34 35 36 33 29 26 24 29 31 29 29 54 47 71 80 49 53 39 52 75 71 67 60 63 59 56
29 29 33 30 28 30 31 35 37 40 44 50 59 63 63 54 41 36 38 34 34 34 27 21 18 25 33 33 30 27 44 57 71 78 52 52 34 46 72 74 61 61 61 58 54
34 31 33 27 29 28 29 35 36 39 45 52 58 62 58 46 40 38 37 32 26 28 20 16 13 26 37 34 25 28 46 59 52 72 67 44 35 51 58 70 70 58 57 59 56
35 28 32 27 28 25 29 33 35 38 44 51 57 61 54 42 40 38 34 24 25 25 15 14 13 28 40 33 19 31 50 53 41 59 71 52 45 42 70 71 73 51 66 63 61
34 28 30 29 28 21 28 29 32 37 43 50 55 57 48 39 40 33 27 22 23 25 13 13 12 30 42 26 20 31 43 52 49 47 60 60 46 39 56 65 65 72 59 59 54
30 27 27 26 23 19 25 26 29 35 42 47 55 54 46 42 39 31 24 23 25 20 9 9 9 29 44 23 20 30 34 44 47 46 59 63 46 47 52 73 47 62 69 63 57
29 33 25 24 13 17 22 22 27 33 40 45 51 47 42 40 36 29 24 22 24 18 4 1 14 39 33 22 24 28 27 40 40 49 52 37 56 46 44 52 71 55 68 64 65
36 24 24 10 9 15 19 20 25 32 39 44 50 53 46 38 33 27 21 27 17 16 5 3 22 36 26 23 19 28 29 29 43 19 42 44 45 50 45 37 67 66 50 50 53
26 21 17 8 10 14 15 17 22 30 36 41 49 49 44 40 28 21 25 24 20 19 16 15 32 31 24 25 17 22 32 26 30 36 34 37 36 48 42 23 41 61 61 56 48
28 19 13 9 11 13 12 14 20 25 32 39 48 52 45 39 26 19 23 21 20 21 24 26 19 27 17 26 24 21 30 33 30 29 30 36 29 43 48 34 32 50 51 50 49
26 16 12 11 9 11 9 11 17 23 29 40 47 51 43 39 24 26 17 19 14 24 20 18 21 25 20 16 28 24 37 32 28 21 16 27 36 28 47 42 31 48 58 54 31
27 19 16 11 8 8 5 9 15 21 29 38 46 51 41 35 24 24 26 14 13 17 13 14 14 14 21 16 9 28 22 21 22 13 15 15 26 29 33 38 39 35 39 46 44
23 20 17 12 8 6 2 7 13 19 28 36 46 50 39 34 23 20 21 16 14 17 19 17 13 11 8 8 2 27 25 19 22 19 16 19 18 24 24 32 40 41 32 27 23
22 21 17 12 9 5 1 5 11 18 26 33 44 45 37 32 22 20 17 18 16 13 17 13 11 17 10 13 10 10 20 15 26 21 26 27 25 24 18 21 26 37 31 29 24
23 23 17 12 10 6 2 3 10 17 23 31 41 43 35 29 19 23 18 17 11 9 10 12 9 15 19 16 10 19 16 16 22 15 23 16 17 20 21 20 20 19 19 22 24
24 25 19 14 11 8 3 2 10 16 21 29 37 42 34 25 18 21 15 17 10 9 8 9 11 7 10 16 14 16 15 16 18 13 15 15 14 17 19 21 19 18 21 29 34
24 25 20 16 12 9 4 3 9 14 19 26 34 38 32 22 19 14 15 14 12 5 6 2 7 9 9 12 10 16 15 17 18 17 15 16 17 17 20 22 24 24 26 25 30
29 26 20 18 14 10 6 4 8 12 16 23 30 35 32 21 16 11 12 11 10 9 4 4 4 6 6 8 15 13 8 9 13 17 23 20 18 20 20 21 22 24 25 28 28
31 26 20 19 15 11 7 4 7 10 15 19 27 33 32 24 17 9 7 10 12 9 4 7 4 1 3 8 9 12 9 9 11 13 14 17 19 22 22 27 28 28 28 28 29
31 25 22 20 16 12 8 5 6 9 13 17 24 30 32 29 17 7 7 6 6 9 9 5 7 6 4 10 10 11 11 11 13 16 17 17 16 25 18 29 29 28 29 30 28

GFSSW_500_spd_108.txt.gz
Wind_Speed
39 39 35 34 33 34 33 34 36 39 39 41 44 45 47 49 51 55 62 70 73 71 70 61 57 51 40 38 46 50 58 65 63 58 70 58 73 65 68 69 68 63 68 65 58
39 39 35 33 31 34 33 34 35 38 39 41 42 46 47 49 52 59 68 71 69 67 60 52 46 38 33 34 42 48 56 57 56 54 61 86 58 72 71 72 70 70 68 65 64
43 42 37 31 32 32 35 34 34 36 38 41 43 47 48 50 56 65 69 68 66 58 48 40 36 28 26 30 36 42 49 43 49 53 57 79 73 63 73 70 74 68 69 65 65
40 37 40 35 38 33 33 33 34 35 38 40 45 46 48 54 62 67 67 65 57 49 37 34 32 29 27 31 34 39 38 41 44 52 56 75 84 56 67 75 64 68 70 66 69
42 41 41 37 34 32 32 31 33 35 37 42 45 46 50 57 66 68 64 58 50 39 33 33 33 35 32 35 34 37 38 42 44 53 55 67 68 61 70 68 65 71 70 67 67
37 39 34 33 30 34 29 32 33 34 38 43 44 46 53 62 64 64 60 52 45 36 35 38 39 41 40 40 38 34 38 42 51 54 58 64 70 73 58 61 68 66 68 70 66
34 31 34 36 36 29 29 32 33 33 39 43 44 49 56 61 64 60 54 48 42 38 39 41 43 42 40 36 31 32 39 37 44 58 62 53 75 68 46 59 69 66 69 69 69
39 31 37 37 34 28 31 30 33 32 39 41 44 51 58 61 61 55 51 43 42 39 37 34 37 35 34 32 32 35 38 37 29 61 64 65 80 59 37 61 63 75 61 67 70
35 34 33 34 29 29 31 31 31 32 37 40 46 53 56 61 56 53 47 39 37 35 33 37 29 25 25 28 33 25 30 40 33 59 58 72 77 74 25 47 71 69 63 65 70
32 32 35 31 32 33 30 29 27 32 35 39 46 52 56 57 54 50 43 36 34 31 32 34 24 20 21 26 31 31 31 22 43 44 62 74 75 70 27 46 67 74 70 67 70
26 35 33 30 32 32 28 26 26 30 33 38 45 49 57 57 52 45 39 33 30 28 33 28 18 15 17 28 30 25 19 22 32 34 55 67 74 49 35 59 67 72 73 66 72
31 32 27 33 33 27 23 18 23 26 34 37 44 49 54 52 45 38 33 30 28 32 27 19 12 10 17 28 27 17 23 30 32 29 40 68 64 48 41 64 71 71 74 62 65
32 31 27 30 26 23 18 17 20 24 31 38 41 48 51 47 40 32 29 31 29 24 20 6 6 8 22 27 12 22 18 30 32 34 43 65 57 44 49 49 71 80 75 74 60
25 32 31 32 30 21 13 14 17 23 28 33 42 45 47 44 35 23 24 30 22 18 9 5 4 12 23 11 13 21 18 28 32 39 32 44 58 52 28 48 67 68 69 69 63
31 29 33 31 24 16 9 12 16 21 29 34 40 44 47 40 35 23 23 27 31 12 8 10 14 25 21 18 15 16 22 28 31 37 35 21 39 43 35 61 61 69 68 62 58
32 34 33 32 20 12 5 11 15 19 27 32 37 42 45 35 28 18 24 28 28 32 27 22 29 20 23 16 10 15 20 29 30 29 27 37 27 35 37 31 47 62 72 57 62
33 32 27 17 17 10 5 9 11 16 23 28 35 44 44 31 27 23 18 24 20 22 25 16 17 13 13 19 9 12 15 21 28 18 22 24 28 26 35 26 22 64 50 70 60
36 26 22 20 16 10 6 6 9 14 20 27 36 43 42 31 27 24 19 20 22 27 22 13 19 11 12 13 20 12 15 15 13 22 20 23 18 19 26 30 14 35 52 45 65
29 30 26 21 15 9 6 2 6 12 17 26 35 42 43 32 29 25 17 17 17 8 12 12 7 6 16 15 11 20 25 16 21 12 18 24 24 21 22 29 26 11 46 53 45
33 32 27 21 15 11 6 1 5 9 16 25 35 42 42 32 29 22 14 17 21 15 7 7 2 7 13 16 18 21 21 18 14 9 13 11 16 26 20 22 30 18 26 53 47
36 33 27 21 16 13 8 4 4 8 15 24 34 40 40 32 28 21 14 12 18 16 13 4 9 2 6 8 9 16 14 12 13 10 7 12 14 17 17 20 27 30 18 19 34
35 30 28 22 17 14 9 6 3 7 14 23 33 40 38 32 24 18 13 7 10 12 12 7 6 4 8 11 12 10 13 16 20 14 16 15 14 14 17 22 19 19 20 26 20
32 30 27 22 20 15 11 8 5 7 14 22 30 38 38 29 21 19 11 5 10 16 17 13 8 6 2 2 6 5 3 20 20 16 18 17 14 13 16 18 16 16 15 20 21
36 30 28 22 20 16 13 9 6 8 13 20 28 34 36 28 21 16 8 4 4 10 13 14 16 10 9 3 2 6 5 5 9 9 14 9 8 10 13 16 19 21 23 22 17
34 32 28 24 20 16 14 10 8 9 13 18 25 31 34 29 19 12 10 3 2 3 11 13 13 16 8 9 9 11 6 4 8 9 9 10 11 12 15 17 18 17 18 19 23
32 34 28 26 21 17 15 11 8 8 12 17 22 27 31 30 24 11 7 6 6 1 5 5 7 11 8 6 5 2 1 0 3 6 16 18 14 14 16 17 17 22 25 24 25
37 32 28 26 22 18 15 12 9 8 11 14 19 25 27 30 26 16 7 2 3 4 2 1 4 3 3 5 4 6 6 5 7 9 11 15 18 20 22 23 24 27 26 24 25

GFSSW_500_spd_111.txt.gz
Wind_Speed
41 42 44 40 42 40 42 37 39 43 37 37 38 39 41 41 44 46 46 48 54 61 65 69 69 70 68 62 56 55 57 59 56 52 42 50 56 65 57 70 75 71 70 68 63
42 44 42 47 45 41 40 38 39 40 41 39 39 40 42 43 47 46 47 52 58 67 69 70 68 66 59 48 47 48 49 45 39 40 45 51 57 65 73 67 74 70 70 68 65
39 41 48 38 44 44 45 43 39 35 40 38 37 41 41 45 45 48 50 56 64 68 71 70 63 54 44 40 41 41 37 34 37 38 43 50 54 72 71 76 76 70 73 71 67
37 43 40 47 41 48 42 39 41 37 39 36 39 41 42 44 48 50 55 61 66 68 66 63 53 44 37 38 36 38 31 31 28 38 44 49 57 67 77 66 70 69 72 71 64
38 36 36 27 39 41 38 37 35 35 33 35 40 39 42 45 49 53 58 63 67 64 60 53 45 42 40 39 40 36 33 35 33 37 41 49 60 60 66 63 59 73 73 74 67
37 30 39 39 34 34 32 29 37 34 32 37 38 39 42 45 51 56 59 65 65 61 54 47 44 44 43 43 45 40 39 37 37 38 41 48 59 58 64 65 65 72 72 76 66
39 39 35 34 40 30 29 36 37 32 34 36 36 39 42 48 53 56 61 63 63 55 47 43 42 40 39 39 42 43 45 45 37 34 42 45 59 59 55 75 63 77 72 77 70
42 38 21 33 36 29 31 32 30 30 34 35 35 39 42 50 54 58 61 61 57 47 40 38 35 35 37 43 38 36 38 42 34 34 38 46 50 54 57 71 61 61 67 75 67
38 41 32 38 30 28 29 24 26 31 32 31 35 38 45 49 54 58 60 56 46 39 36 33 31 35 35 29 27 28 30 34 32 33 34 47 50 53 54 71 55 68 75 68 69
39 37 44 33 37 31 25 26 28 26 26 30 33 38 45 50 54 56 54 44 37 34 34 32 34 32 24 23 21 24 28 27 27 30 21 50 51 50 59 68 52 69 71 69 71
43 44 34 37 32 32 25 28 29 25 23 28 32 39 45 50 52 52 43 34 30 35 32 30 27 20 16 16 13 18 20 15 19 31 29 43 51 49 53 59 26 57 69 71 68
48 45 46 30 37 36 30 31 16 16 23 24 31 37 45 49 48 40 34 31 37 35 24 24 14 8 7 4 6 16 4 14 22 27 28 36 32 46 60 56 33 62 67 70 65
50 43 43 28 29 31 25 19 13 15 19 22 30 37 43 45 39 32 26 34 36 26 16 11 6 12 11 12 7 14 3 15 24 13 17 32 26 38 59 62 28 53 70 69 65
48 45 41 28 27 28 24 23 12 12 16 25 30 35 41 39 35 27 27 29 35 17 9 10 22 23 14 7 6 13 9 25 15 17 16 22 41 39 52 73 30 49 65 67 67
49 38 37 28 25 26 21 14 9 8 17 21 29 34 37 32 36 23 24 24 29 25 25 26 22 27 17 16 5 15 14 16 19 15 22 27 28 39 49 56 34 28 66 68 66
44 42 42 26 24 29 17 12 5 6 14 22 27 32 33 29 27 19 23 21 22 25 27 21 16 15 12 14 10 13 22 22 21 18 7 13 27 36 46 46 30 30 51 67 68
46 38 41 31 28 18 16 11 5 6 12 19 25 30 32 28 19 18 22 18 18 18 19 12 14 14 10 3 12 14 17 22 17 20 15 16 23 25 44 34 10 41 51 70 65
45 38 43 33 27 17 16 10 5 5 11 17 23 28 30 26 15 20 20 12 13 13 4 10 10 24 26 6 5 9 17 19 17 13 3 12 12 6 21 30 13 43 39 55 59
43 37 46 38 22 20 17 12 6 6 9 15 22 28 31 25 18 22 22 10 10 17 14 14 14 25 19 11 16 17 16 19 12 10 6 6 5 6 3 4 10 38 43 58 59
42 41 38 26 22 21 18 12 8 6 10 16 22 33 29 23 21 23 24 18 2 9 11 16 15 28 29 21 22 22 24 22 17 14 10 4 6 6 3 3 8 39 48 52 56
41 40 31 24 20 22 18 13 10 9 12 18 25 33 30 25 16 20 22 24 10 6 8 14 16 19 23 16 18 18 14 16 14 13 17 9 6 3 4 6 6 12 34 34 49
46 38 32 20 24 23 18 15 12 11 13 18 27 34 31 27 13 14 18 20 20 17 6 6 12 12 18 14 21 10 13 15 12 16 11 10 11 9 8 3 13 6 7 30 38
44 35 26 22 27 23 19 16 14 13 15 19 26 33 33 26 19 12 14 15 18 21 17 6 4 11 16 16 19 16 14 15 15 16 16 13 15 14 11 12 8 8 7 15 25
42 31 27 30 29 24 21 18 16 15 16 21 26 32 32 28 20 14 6 10 10 17 17 19 11 10 9 11 14 18 18 16 13 15 19 15 14 12 12 12 13 11 8 8 18
37 29 32 33 29 25 22 19 17 16 16 20 26 31 34 31 25 16 10 6 7 10 13 18 20 11 10 14 17 16 11 8 7 8 8 8 9 9 10 12 13 13 15 12 11
34 29 35 34 30 26 23 20 17 16 17 19 23 28 33 34 33 21 13 6 3 5 7 10 14 13 13 10 12 11 10 8 6 4 4 3 2 3 4 6 8 8 10 14 18
36 40 38 33 30 28 24 21 19 15 16 18 21 24 30 33 35 28 20 12 4 4 2 5 7 9 8 8 7 5 4 3 2 2 1 3 8 11 11 9 11 13 16 17 17

GFSSW_500_spd_114.txt.gz
Wind_Speed
43 42 42 40 42 41 39 38 38 40 42 44 44 51 48 52 50 43 45 46 48 48 49 50 52 56 61 64 70 72 76 78 71 60 58 57 58 53 52 57 62 72 77 79 82
42 41 42 41 41 46 47 40 44 40 43 42 43 48 47 42 42 42 45 47 49 49 49 52 57 61 65 70 73 75 78 70 57 56 58 59 52 51 55 61 64 73 77 79 80
39 44 43 40 38 42 44 45 45 43 45 45 48 50 44 44 44 43 46 50 50 49 53 58 61 65 70 70 69 70 68 56 48 50 56 54 47 50 56 64 65 76 79 77 79
36 41 42 39 39 30 29 43 44 47 46 47 48 48 44 41 43 43 46 50 52 53 58 62 65 69 70 69 62 62 52 48 41 46 48 44 41 54 56 63 62 71 72 73 77
39 37 39 39 37 38 28 35 46 43 39 39 43 41 38 39 42 43 49 51 53 58 62 64 66 68 67 60 55 52 47 46 43 44 41 41 42 46 58 60 71 77 71 79 77
40 38 39 42 44 35 36 33 32 30 28 37 41 39 37 40 41 45 48 52 56 59 63 65 63 61 56 50 48 48 48 46 46 45 42 41 38 49 52 63 72 79 67 79 75
40 40 39 45 40 40 34 31 34 36 35 37 40 36 36 39 41 46 49 54 57 61 63 61 57 52 48 46 44 41 42 45 45 46 44 42 43 44 43 63 62 76 67 76 72
45 40 41 42 42 47 48 34 36 35 35 37 33 31 36 37 43 46 51 53 58 61 57 52 47 42 42 42 40 39 45 46 43 45 44 43 33 35 46 62 57 77 64 81 76
51 45 45 44 40 35 44 35 35 30 32 29 27 31 34 36 42 47 50 54 57 52 47 43 42 40 39 40 42 39 37 29 29 34 36 39 32 39 45 52 51 76 70 87 76
53 51 47 44 37 30 36 37 37 31 32 25 24 28 31 38 42 46 50 52 48 42 44 44 39 34 31 33 30 24 21 19 21 21 28 31 32 38 42 47 51 76 77 91 80
56 49 47 45 40 41 31 35 34 33 22 20 23 28 32 35 42 47 47 43 38 41 42 36 25 24 19 12 9 8 10 12 19 21 26 25 32 36 42 45 51 75 80 87 81
34 51 47 49 41 40 33 32 37 32 20 18 21 28 30 36 41 43 39 31 35 36 23 13 9 12 15 14 10 4 4 6 10 16 22 20 18 36 39 44 53 62 78 80 77
28 40 47 47 39 37 41 34 33 19 14 15 21 23 30 35 37 34 25 26 28 17 24 25 21 19 17 13 7 1 4 5 12 11 20 13 11 32 36 42 49 61 60 75 76
28 36 48 43 38 35 34 27 27 17 12 14 19 24 30 35 29 21 19 20 30 28 31 24 17 14 16 12 8 4 5 14 20 15 11 18 13 18 28 35 51 59 63 62 68
29 40 47 42 37 39 35 28 17 9 9 12 19 24 30 31 18 18 14 21 20 21 21 21 16 12 12 15 4 13 7 11 13 15 18 26 16 13 25 53 59 53 55 60 73
29 42 46 38 33 31 32 20 8 6 8 13 18 22 27 21 12 12 12 14 12 14 15 13 14 8 15 9 11 12 11 9 11 16 29 19 19 12 16 50 45 48 27 58 68
27 39 41 37 32 30 24 17 11 6 4 10 15 21 23 10 13 8 7 10 7 14 17 14 20 7 6 11 9 7 10 9 22 30 31 23 14 9 9 41 39 24 25 57 70
27 39 40 37 30 36 11 15 13 3 3 9 15 18 15 11 16 14 11 5 10 17 18 24 25 15 9 8 9 10 14 13 24 25 34 32 20 18 17 37 27 14 27 56 70
29 41 40 33 32 29 12 16 10 6 5 8 13 14 12 14 19 18 8 10 10 16 22 24 24 20 15 13 18 12 13 10 14 16 29 30 25 14 18 30 18 21 30 37 56
29 39 37 33 38 29 15 16 12 9 9 11 11 13 11 17 22 20 15 1 8 5 15 23 31 22 16 18 25 24 19 9 10 18 24 22 21 15 12 23 22 29 37 38 43
34 40 35 36 32 17 22 18 16 13 14 11 13 16 13 15 18 20 20 13 10 9 12 18 24 20 16 12 21 19 17 17 20 18 24 26 22 17 6 10 21 38 44 37 44
38 37 35 37 20 24 24 21 19 16 16 16 14 19 19 12 14 18 23 18 16 16 11 13 18 19 22 13 17 22 22 21 24 21 15 17 22 19 14 8 18 31 36 38 35
41 40 39 30 25 26 23 23 21 19 19 19 17 22 21 15 11 13 16 17 19 16 14 15 15 17 24 17 15 19 23 24 26 23 18 16 21 19 15 7 6 5 19 37 44
43 42 35 25 28 26 27 25 24 23 23 23 24 25 24 21 13 5 11 13 13 16 16 18 20 18 20 22 19 21 20 23 22 21 21 19 19 17 13 11 7 7 4 15 30
46 39 27 30 30 28 29 26 25 23 24 26 28 30 29 24 19 10 7 9 10 14 19 17 16 20 23 24 20 18 17 19 15 18 13 20 17 16 13 12 8 6 6 8 5
44 36 30 34 32 31 30 27 24 23 23 25 28 29 30 27 22 17 10 3 3 7 12 16 15 15 14 17 19 17 16 15 14 13 14 16 15 13 12 10 8 8 6 2 6
42 26 34 34 34 33 30 27 24 22 21 23 25 28 30 31 30 25 20 11 5 5 6 11 13 12 12 12 12 13 12 11 10 9 7 5 5 6 7 6 6 5 6 6 7

GFSSW_500_spd_117.txt.gz
Wind_Speed
51 51 54 50 49 47 46 43 44 47 40 38 40 40 44 44 48 52 53 55 54 57 51 51 51 53 54 55 54 56 58 58 59 63 69 73 74 77 80 77 80 76 65 65 69
50 51 55 45 44 46 46 42 41 38 44 41 43 42 43 47 55 57 56 57 57 51 50 52 53 54 55 57 56 59 62 64 66 72 76 79 80 83 85 84 78 77 72 69 67
52 54 53 43 41 42 40 38 38 37 41 45 42 41 44 48 52 51 55 57 55 53 53 54 54 56 57 59 60 63 65 69 74 78 82 85 86 83 79 80 74 75 67 70 73
53 52 48 40 39 42 40 35 34 29 41 41 44 50 52 52 53 54 54 53 52 49 52 54 55 59 60 62 64 69 71 75 79 82 85 85 81 75 75 72 69 65 64 68 66
55 51 45 40 39 40 35 42 28 30 32 39 49 49 47 50 51 51 48 46 48 51 53 55 58 61 62 66 70 74 75 78 79 79 77 72 71 63 65 63 54 58 62 80 80
55 50 43 40 41 43 45 28 38 44 37 37 41 39 45 48 46 46 46 47 48 49 52 56 59 62 65 70 74 75 77 75 70 67 64 61 61 58 59 45 47 54 66 78 77
54 48 43 42 41 45 43 39 40 47 42 46 45 41 44 46 42 43 45 46 48 50 52 56 60 64 66 69 69 67 65 61 59 56 54 55 61 58 40 44 47 56 65 74 73
52 48 45 43 43 46 44 37 32 41 42 46 46 42 45 41 39 40 41 44 48 49 53 58 61 63 61 61 59 57 55 52 43 48 47 53 59 46 44 45 45 52 61 72 77
49 50 47 47 46 47 43 42 36 32 35 39 38 44 38 32 32 36 40 43 47 50 54 58 59 56 55 53 51 44 42 41 44 46 50 53 51 42 44 44 40 50 57 67 81
55 52 53 45 46 48 45 37 44 35 36 42 40 31 30 28 31 33 39 44 47 50 51 51 51 45 39 33 29 30 27 25 27 19 19 27 34 32 38 37 37 46 57 66 86
40 38 44 45 46 44 42 42 42 36 38 34 35 22 24 25 28 35 39 42 43 42 38 32 22 13 7 8 8 9 11 11 13 15 22 18 18 25 32 31 35 44 58 61 87
24 23 28 34 41 40 41 40 41 42 40 39 28 21 19 25 30 33 34 32 24 18 14 18 19 14 12 10 10 12 12 8 2 7 14 13 16 21 27 25 33 41 57 60 83
18 19 21 28 33 39 38 38 39 39 36 36 21 14 20 26 27 30 23 11 14 15 16 16 16 12 14 14 10 13 11 10 10 7 12 10 4 16 21 25 31 40 51 52 76
17 13 11 16 26 38 37 36 34 30 31 15 10 14 21 24 25 19 3 8 14 16 14 13 11 12 15 13 15 5 7 7 10 10 14 7 4 6 16 20 30 37 45 48 70
20 19 19 26 30 33 34 33 31 29 21 10 11 16 20 22 16 2 2 9 11 15 14 11 11 8 15 13 4 4 2 9 10 11 10 13 10 12 9 15 25 31 35 44 66
23 20 23 28 31 32 28 27 28 23 11 9 13 17 18 18 8 15 2 9 15 17 14 19 11 7 11 9 7 8 7 9 1 10 10 5 11 11 9 6 16 21 25 40 56
24 22 19 32 30 31 25 25 15 19 9 7 12 15 16 7 4 13 2 8 17 18 24 21 11 4 8 9 8 10 11 15 10 16 12 8 12 15 11 16 14 25 25 28 39
25 22 24 30 33 26 26 15 13 13 7 7 11 11 6 8 6 13 4 8 14 22 28 17 11 3 9 8 7 10 15 26 25 19 14 9 13 18 18 13 14 20 17 24 35
23 21 24 31 30 27 21 16 8 11 3 5 8 6 9 15 13 13 7 8 6 14 24 15 8 8 15 8 10 10 16 22 32 24 20 20 22 25 23 8 16 27 12 22 28
26 25 29 31 29 28 16 6 12 8 4 3 4 2 13 15 17 12 2 5 8 13 17 18 12 7 21 21 10 17 14 16 25 29 30 29 28 27 10 12 15 10 7 28 34
28 27 30 30 31 27 12 12 12 9 4 1 4 6 13 20 18 15 14 12 11 13 14 20 12 19 17 18 12 15 19 19 23 24 28 33 30 24 20 22 22 19 14 27 41
29 30 36 32 26 19 15 18 14 11 6 5 10 8 12 15 17 13 15 15 12 11 13 18 15 16 17 19 16 17 21 18 20 23 24 30 31 24 17 12 19 24 26 26 21
32 34 32 29 21 19 22 18 16 13 9 7 13 15 11 13 12 10 11 15 15 11 13 16 18 16 13 16 21 25 25 20 18 17 22 22 29 28 15 14 31 27 26 35 40
35 34 31 26 16 23 21 21 18 18 15 17 17 17 15 9 11 8 8 14 14 14 17 14 19 18 18 21 22 27 26 20 13 17 19 23 24 20 22 21 23 26 21 27 34
35 32 28 22 23 24 24 24 24 21 22 21 22 20 17 13 10 9 7 9 12 14 16 16 17 19 20 17 19 24 25 23 18 19 16 22 18 20 21 21 22 20 18 20 19
38 30 25 24 26 27 26 25 26 25 24 23 25 24 20 18 13 8 6 3 6 11 16 17 17 15 16 16 18 21 22 21 20 21 19 21 18 18 16 17 16 15 15 9 9
33 26 22 29 27 29 28 27 27 26 25 25 27 27 24 23 19 13 10 6 6 8 11 12 14 14 13 14 15 17 17 16 16 15 15 16 15 16 15 13 13 13 10 8 9